     2              OBSERVATION DATA    GPS                 RINEX VERSION / TYPE
teqc 1998Mar9 19981223 02:18:25UTC                          PGM / RUN BY / DATE
                                                            COMMENT
Original Marker Name: YUNG                                  COMMENT
Campaign Name: HPGN 1998                                    COMMENT
4-Character Station Name: YUNG                              COMMENT
6-Character Antenna Code: TRMCMP                            COMMENT
Vertical Measurement Point: BPA                             COMMENT
Vertical Offset to Rinex Ref. Point: 0.0000                 COMMENT
Radial Measurement Point: RRP                               COMMENT
Radial Offset to Rinex Ref. Point: 0.0000                   COMMENT
Antenna Height from Field Measurement: 1.8000 m             COMMENT
Original XYZ: -2431113.3489 -4741688.0008 3494048.0359      COMMENT
New XYZ position is based on association with SCEC monument COMMENT
E1D0E9H3+0011. Position of that monument is believed to be  COMMENT
valid to within 1 m horizontally; vertical accuracy         COMMENT
should be no worse than 3-times this value.                 COMMENT
                                                            COMMENT
Revised Rinex header created by UCSD GPS archive for        COMMENT
GSAC on 30-May-1999 (1999:150) 21:25:03 GMT                 COMMENT
For assistance contact dagnew@ucsd.edu or hjohnson@ucsd.edu COMMENT
                                                            COMMENT
YUNG                                                        MARKER NAME
unknown CALIF DEPT TRANSPORTATION                           OBSERVER / AGENCY
16913 TRIMBLE 4000 SSI NP 7.22; SP 3.06                     REC # / TYPE / VERS
69912 TR GEOD L1/L2 GP                                      ANT # / TYPE
 -2431115.0000 -4741697.0000  3494053.0000                  APPROX POSITION XYZ
        1.8000        0.0000        0.0000                  ANTENNA: DELTA H/E/N
     1     1     0                                          WAVELENGTH FACT L1/2
     7    C1    L1    L2    P1    P2    S1    S2            # / TYPES OF OBSERV
     0                                                      INTERVAL
  1998     6    11    20     6   15.000000                  TIME OF FIRST OBS
  1998     6    12     1    35   45.000000                  TIME OF LAST OBS
                                                            END OF HEADER
 98  6 11 20  6 15.0000000  0  7G 5G 6G30G10G17G24G26
  22785391.2344    4465645.15956   3393188.66156                  22785399.1374
        18.5004         17.5004
  21220825.3364   -1333241.96158   -988012.48057                  21220831.1024
        28.5004         28.7504
  21194239.8984    2517304.58758   1922966.07657                  21194246.1454
        30.2504         30.7504
  21778402.3984    2637252.50057   2019046.84057                  21778408.6454
        27.2504         25.7504
  22582654.6024   -1744680.54557  -1296776.27556                  22582661.6024
        21.2504         21.2504
  24144912.7504    3839931.88456   2905867.74755                  24144920.3714
        12.5004         10.5004
  24588400.8134     -14599.20455
         7.7504
 98  6 11 20  6 30.0000000  0  7G 5G 6G30G10G17G24G26
  22797286.0944    4528154.17846   3441896.93446                  22797294.5824
        18.0004         17.2504
  21218728.8914   -1344258.54648   -996596.82447                  21218734.7154
        29.0004         28.7504
  21202056.0394    2558378.16348   1954971.43547                  21202062.2504
        30.5004         30.7504
  21786398.3204    2679270.69847   2051788.28847                  21786404.2974
        26.7504         25.7504
  22579664.4454   -1760392.13147  -1309019.04946                  22579671.6214
        21.5004         21.2504
  24154765.5394    3891704.54946   2946210.07345                  24154773.2774
        12.2504         10.2504
  24583197.1174     -41944.71044
         7.2504
 98  6 11 20  6 45.0000000  0  7G 5G 6G30G10G17G24G26
  22809200.3134    4590762.72546   3490682.75646                  22809208.1334
        17.7504         17.0004
  21216651.6954   -1355173.48548  -1005101.96847                  21216657.5664
        28.5004         28.5004
  21209905.0784    2599623.93748   1987110.97447                  21209911.3134
        30.2504         30.7504
  21794426.3674    2721458.18347   2084661.64547                  21794432.4264
        27.2504         26.0004
  22576695.8204   -1775993.81947  -1321176.18946                  22576703.0434
        21.5004         21.2504
  24164624.4064    3943517.39645   2986583.69245                  24164631.0984
        11.0004         10.2504
  24578001.3914     -69247.66145
         8.0004
 98  6 11 20  7  0.0000000  0  8G 5G 6G30G10G13G17G24G26
  22821131.8834    4653463.47146   3539540.42246                  22821140.0434
        17.7504         17.0004
  21214592.8594   -1365992.15348  -1013532.09747                  21214598.6604
        28.2504         28.7504
  21217785.5704    2641036.32348   2019380.34147                  21217791.7344
        30.7504         30.5004
  21802486.4614    2763814.50647   2117666.56847                  21802492.6374
        27.2504         25.7504
  25031892.3834         -1.48453
         5.5004
  22573746.6094   -1791491.57647  -1333252.34046                  22573754.0204
        20.5004         21.2504
  24174490.5234    3995365.50045   3026984.79345                  24174498.6844
        11.5004         10.0004
  24572814.0314     -96511.11745
         8.2504
 98  6 11 20  7 15.0000000  0  8G 5G 6G30G10G13G17G24G26
  22833082.8204    4716265.69046   3588477.15746                  22833090.9454
        17.5004         16.7504
  21212553.5474   -1376709.69048  -1021883.41847                  21212559.4654
        28.7504         28.5004
  21225698.6884    2682620.02348   2051783.20047                  21225704.8054
        30.0004         30.2504
  21810579.8834    2806346.17147   2150808.11647                  21810585.9304
        27.2504         26.0004
  25033404.7504       7950.86144
         6.2504
  22570817.8674   -1806880.67247  -1345243.81746                  22570825.3714
        20.2504         21.7504
  24184364.0474    4047253.79545   3067417.20345                  24184371.0594
        10.5004         10.0004
  24567634.1954    -123727.87845
         8.2504
 98  6 11 20  7 30.0000000  0  8G 5G 6G30G10G13G17G24G26
  22845051.8054    4779162.57946   3637487.66046                  22845060.1884
        16.7504         16.7504
  21210532.0314   -1387332.72748  -1030161.09947                  21210538.0434
        29.0004         28.5004
  21233642.7034    2724366.85348   2084313.17447                  21233648.7974
        30.5004         30.2504
  21818704.9534    2849043.70847   2184078.91547                  21818711.1994
        27.0004         25.7504
  25034947.7974      16055.90944
         6.5004
  22567909.3364   -1822164.23747  -1357153.06746                  22567917.0044
        20.0004         21.2504
  24194244.9304    4099175.45145   3107875.55245                  24194251.2814
        10.7504          9.5004
  24562462.9924    -150902.33045     -9875.37055                  24562476.2734
         7.5004          8.0004
 98  6 11 20  7 45.0000000  0  8G 5G 6G30G10G13G17G24G26
  22857039.7034    4842159.19246   3686575.86246                  22857048.4144
        16.7504         16.2504
  21208529.3754   -1397857.05748  -1038361.87447                  21208535.3164
        29.0004         28.7504
  21241619.1024    2766280.58148   2116973.19947                  21241625.1844
        30.5004         30.2504
  21826862.1804    2891909.11147   2217480.51847                  21826868.4144
        27.0004         25.7504
  25036520.0394      24318.95045      1727.09955                  25036523.0274
         7.5004          6.2504
  22565023.1334   -1837333.43047  -1368973.19246                  22565030.5904
        20.2504         21.0004
  24204132.7814    4151135.39445   3148363.81745                  24204141.0234
        10.7504          9.7504
  24557301.3284    -178026.31045    -31010.86645                  24557314.6094
         7.5004          8.0004
 98  6 11 20  8  0.0000000  0  8G 5G 6G30G10G13G17G24G26
  22869043.9924    4905245.27246   3735733.78146                  22869052.3054
        16.7504         16.5004
  21206543.6484   -1408291.23348  -1046492.39547                  21206549.2734
        29.0004         29.0004
  21249624.2584    2808349.56348   2149754.19947                  21249630.4224
        30.7504         30.5004
  21835048.5394    2934930.02147   2251003.30647                  21835054.6214
        26.7504         26.0004
  25038120.5704      32728.45245      8279.87745                  25038125.0004
         7.5004          6.2504
  22562155.7194   -1852400.89547  -1380714.04846                  22562163.0944
        21.0004         21.5004
  24214025.2274    4203122.89345   3188873.53245                  24214033.4104
        11.0004          9.5004
  24552147.6094    -205110.20644    -52115.06845                  24552161.5354
         7.2504          8.0004
 98  6 11 20  8 15.0000000  0  8G 5G 6G30G10G13G17G24G26
  22881066.5784    4968422.17346   3784962.48146                  22881074.6094
        16.2504         16.0004
  21204575.1174   -1418635.83148  -1054553.11947                  21204580.9654
        29.2504         28.5004
  21257658.8754    2850571.65648   2182654.50447                  21257664.9804
        31.5004         30.5004
  21843264.6564    2978105.90047   2284646.84146                  21843270.9264
        26.0004         25.5004
  25039748.2034      41281.78445     14944.87245                  25039753.3364
         8.2504          6.2504
  22559307.0704   -1867370.43747  -1392378.60446                  22559314.2584
        20.7504         21.5004
  24223922.5634    4255134.49045   3229402.04145                  24223930.4064
        10.0004          9.5004
  24547000.7894    -232154.26245    -73188.23045                  24547015.5474
         7.5004          9.0004
 98  6 11 20  8 30.0000000  0  8G 5G 6G30G10G13G17G24G26
  22893108.1564    5031699.67846   3834269.56046                  22893116.2814
        16.0004         16.2504
  21202625.4844   -1428882.62648  -1062537.62847                  21202631.1804
        29.0004         29.0004
  21265724.2034    2892955.03248   2215680.48147                  21265729.9694
        31.5004         30.2504
  21851511.9694    3021443.78747   2318416.60846                  21851518.0984
        26.7504         25.5004
  25041403.6804      49987.14045     21728.30645                  25041412.1914
         8.7504          7.5004
  22556478.0704   -1882237.37047  -1403963.20146                  22556485.2464
        21.5004         21.7504
  24233826.4844    4307177.66645   3269955.09945                  24233835.0904
        10.0004          9.2504
  24541863.6174    -259149.45545    -94223.32045                  24541875.3634
         7.5004          8.2504
 98  6 11 20  8 45.0000000  0  8G 5G 6G30G10G13G17G24G26
  22905167.8204    5095072.39146   3883650.83446                  22905176.1334
        16.2504         16.5004
  21200693.1334   -1439035.89548  -1070449.26047                  21200698.9224
        28.5004         29.0004
  21273819.6254    2935496.34248   2248829.52647                  21273825.3794
        31.7504         30.2504
  21859789.1564    3064941.01947   2352310.55146                  21859795.2974
        26.5004         25.5004
  25043089.2034      58841.75645     28628.04545                  25043096.0124
         8.7504          7.5004
  22553667.3364   -1897008.11647  -1415472.85146                  22553674.4064
        22.0004         22.0004
  24243735.0474    4359246.84145   3310528.47145                  24243741.9884
        11.2504          9.7504
  24536735.6644    -286099.16545   -115223.00045                  24536748.6414
         7.7504          9.0004
 98  6 11 20  9  0.0000000  0  8G 5G 6G30G10G13G17G24G26
  22917244.2974    5158535.19346   3933102.30846                  22917253.5354
        15.7504         16.2504
  21198778.5164   -1449098.01848  -1078289.87047                  21198784.5744
        29.0004         29.0004
  21281944.8524    2978194.90648   2282101.11447                  21281950.5824
        31.5004         30.5004
  21868095.6804    3108593.22847   2386325.24846                  21868101.8674
        26.2504         25.2504
  25044802.4924      67845.05045     35643.56845                  25044808.2704
         9.7504          8.2504
  22550874.0784   -1911687.06747  -1426910.97646                  22550880.7934
        21.7504         22.0004
  24253647.7664    4411337.54945   3351118.64345                  24253656.2774
        10.0004          9.2504
  24531614.6484    -313005.16144   -136188.58245                  24531627.2734
         6.5004          8.0004
 98  6 11 20  9 15.0000000  0  8G 5G 6G30G10G13G17G24G26
  22929339.7344    5222097.76746   3982631.50646                  22929348.5274
        15.7504         16.7504
  21196882.3524   -1459062.39848  -1086054.30947                  21196888.5864
        29.2504         29.2504
  21290101.1954    3021057.31648   2315500.36847                  21290107.0664
        31.5004         30.2504
  21876431.9924    3152401.73647   2420461.73346                  21876438.2504
        26.7504         25.5004
  25046546.0554      77006.36745     42782.28045                  25046552.6294
         9.7504          8.0004
  22548098.9774   -1926269.43247  -1438273.82946                  22548106.0594
        22.2504         22.0004
  24263564.6954    4463455.47445   3391729.92445                  24263572.2114
        10.5004          9.5004
  24526504.6484    -339862.68245   -157116.43945                  24526517.5554
         7.5004          8.0004
 98  6 11 20  9 30.0000000  0  8G 5G 6G30G10G13G17G24G26
  22941453.1094    5285754.51446   4032234.10746                  22941461.8914
        15.5004         16.2504
  21195004.2194   -1468931.91548  -1093744.84247                  21195010.2894
        29.5004         29.2504
  21298288.4614    3064081.03648   2349025.31447                  21298294.4614
        31.5004         30.0004
  21884797.4924    3196361.26847   2454715.91446                  21884803.6914
        26.0004         25.2504
  25048318.6884      86322.68045     50041.73245                  25048324.9694
        10.0004          8.5004
  22545342.1024   -1940757.33447  -1449563.08846                  22545348.9224
        22.2504         21.7504
  24273487.6644    4515599.58445   3432361.69445                  24273496.1994
         9.5004          9.0004
  24521402.0234    -366675.03545   -178009.04745                  24521415.4694
         7.5004          9.0004
 98  6 11 20  9 45.0000000  0  8G 5G 6G30G10G13G17G24G26
  22953583.7814    5349502.39146   4081907.71146                  22953592.5984
        15.0004         15.7504
  21193143.8364   -1478707.67248  -1101362.31847                  21193149.6724
        29.2504         29.5004
  21306506.6954    3107267.56548   2382677.14147                  21306512.4964
        31.7504         30.2504
  21893191.2504    3240471.19747   2489087.27746                  21893197.6954
        26.0004         25.5004
  25050121.7664      95796.61045     57424.04545                  25050127.0634
         9.0004          8.2504
  22542603.4614   -1955149.30447  -1460777.58946                  22542610.0004
        23.2504         22.0004
  24283414.9694    4567771.91845   3473015.44645                  24283423.4924
         9.2504          9.2504
  24516308.6414    -393442.29545   -198866.48945                  24516321.5704
         7.5004          8.7504
 98  6 11 20 10  0.0000000  0  8G 5G 6G30G10G13G17G24G26
  22965732.6094    5413342.84046   4131653.44946                  22965740.7814
        15.0004         16.0004
  21191301.9144   -1488388.92848  -1108906.14447                  21191307.8324
        29.0004         29.5004
  21314756.1334    3150618.94848   2416457.40747                  21314761.9104
        31.5004         30.2504
  21901614.0394    3284733.46047   2523577.34546                  21901620.4734
        26.0004         25.2504
  25051953.9224     105427.40445     64928.57445                  25051961.3324
         7.7504          8.0004
  22539882.1644   -1969449.98947  -1471920.96946                  22539888.8914
        23.0004         22.0004
  24293349.8674    4619974.00545   3513692.34045                  24293358.3554
        10.0004          9.5004
  24511222.4384    -420166.40345   -219690.40345                  24511235.8134
         7.7504          9.2504
 98  6 11 20 10 15.0000000  0  8G 5G 6G30G10G13G17G24G26
  22977899.7344    5477283.44846   4181477.23746                  22977908.0234
        15.0004         15.5004
  21189478.2584   -1497971.29348  -1116372.91647                  21189484.0474
        29.0004         29.5004
  21323038.3524    3194142.51848   2450371.85647                  21323044.2584
        31.0004         30.0004
  21910067.2504    3329155.17147   2558191.66046                  21910073.7894
        25.2504         25.0004
  25053817.7664     115220.37344     72559.50345                  25053826.3834
         6.5004          7.0004
  22537178.8284   -1983655.92847  -1482990.51746                  22537185.7934
        23.2504         21.7504
  24303289.6954    4672211.40145   3554396.77545                  24303297.8324
         9.2504          9.5004
  24506146.2034    -446844.09145   -240478.09445                  24506160.2934
         8.5004          9.2504
 98  6 11 20 10 30.0000000  0  8G 5G 6G30G10G13G17G24G26
  22990085.9304    5541320.56146   4231376.19946                  22990094.6764
        15.5004         16.0004
  21187672.5554   -1507460.52948  -1123767.11447                  21187678.3094
        29.7504         29.7504
  21331353.5164    3237838.13348   2484420.35847                  21331359.4104
        31.0004         30.0004
  21918550.1174    3373732.90547   2592927.55046                  21918556.6914
        25.2504         25.2504
  25055711.2114     125174.66844     80316.15545                  25055718.8674
         7.2504          7.5004
  22534493.7034   -1997765.35647  -1493984.87046                  22534500.4184
        23.0004         22.0004
  24313237.2814    4724483.70045   3595128.40545                  24313244.2934
        10.0004          9.2504
  24501077.9614    -473476.91445   -261230.82045                  24501091.1484
         8.7504          9.0004
 98  6 11 20 10 45.0010000  0  8G 5G 6G30G10G13G17G24G26
  23002290.4274    5605456.33046   4281352.07046                  23002299.3134
        15.0004         15.7504
  21185884.5524   -1516856.08048  -1131088.31647                  21185890.1184
        30.0004         29.7504
  21339701.6534    3281708.46648   2518605.00347                  21339707.6884
        30.7504         30.0004
  21927062.8804    3418469.84347   2627787.49446                  21927069.4544
        24.5004         25.0004
  25057637.4424     135292.74144     88200.33445                  25057645.0404
         7.0004          7.0004
  22531827.1224   -2011778.39847  -1504904.10346                  22531834.0284
        22.0004         22.0004
  24323192.6854    4776799.22545   3635893.73645                  24323200.8214
        10.2504          9.0004
  24496018.2554    -500066.01645   -281949.52845                  24496032.1694
         8.2504          9.0004
 98  6 11 20 11  0.0010000  0  8G 5G 6G30G10G13G17G24G26
  23014509.8494    5669666.68046   4331386.03046                  23014518.9704
        15.0004         15.5004
  21184112.9584   -1526165.20448  -1138342.17447                  21184118.7354
        30.2504         29.7504
  21348080.1304    3325737.32848   2552913.18947                  21348086.2824
        30.7504         30.0004
  21935603.4584    3463348.89447   2662758.16646                  21935609.8924
        25.0004         24.7504
  25059591.0674     145559.59644     96200.51945                  25059594.3844
         6.5004          7.5004
  22529177.4274   -2025703.28347  -1515754.64446                  22529184.4504
        22.7504         22.2504
  24333153.0054    4829139.81945   3676678.57445                  24333161.0364
        11.5004          9.5004
  24490965.1534    -526617.93045   -302639.20345                  24490977.3924
         8.7504          9.2504
 98  6 11 20 11 15.0010000  0  8G 5G 6G30G10G13G17G24G26
  23026743.6534    5733957.87446   4381482.99246                  23026752.6104
        15.2504         15.2504
  21182358.6064   -1535384.80448  -1145526.27347                  21182364.3134
        29.7504         29.7504
  21356489.7394    3369930.83648   2587349.65847                  21356495.9504
        30.2504         29.7504
  21944171.2634    3508374.21547   2697842.82846                  21944177.7434
        25.0004         25.0004
  25061573.6224     155979.28344    104319.75645                  25061578.8024
         6.2504          6.5004
  22526545.0054   -2039536.43547  -1526533.71346                  22526551.8644
        22.2504         22.0004
  24343119.2164    4881512.87045   3717488.71445                  24343127.4234
        10.5004          9.2504
  24485920.0444    -553129.76045   -323297.67545                  24485933.1384
         9.0004          9.2504
 98  6 11 20 11 30.0010000  0  8G 5G 6G30G10G13G17G24G26
  23038994.8174    5798336.46346   4431648.06746                  23039003.7864
        15.0004         15.2504
  21180622.4814   -1544508.31648  -1152635.49247                  21180628.2714
        30.0004         29.7504
  21364932.0214    3414295.09748   2621919.18747                  21364938.1264
        30.7504         30.0004
  21952768.9034    3553554.68147   2733048.37246                  21952775.3134
        25.2504         25.0004
  25063587.5054     166556.92244    112562.09145                  25063595.2434
         6.7504          6.5004
  22523931.6614   -2053269.21547  -1537234.57046                  22523938.5214
        22.2504         22.2504
  24353092.9744    4933925.42545   3758329.64045                  24353100.9114
         9.7504          9.2504
  24480883.8494    -579594.54845   -343919.46645                  24480896.1694
         8.7504          9.0004
 98  6 11 20 11 45.0010000  0  8G 5G 6G30G10G13G17G24G26
  23051262.5054    5862801.95046   4481880.84646                  23051271.1924
        15.0004         15.0004
  21178905.2244   -1553532.52748  -1159667.34147                  21178911.1184
        29.5004         29.5004
  21373407.0214    3458831.16648   2656622.58847                  21373413.1384
        30.5004         29.7504
  21961396.7164    3598894.33647   2768377.96246                  21961403.0214
        25.0004         25.0004
  25065629.3804     177292.85944    120927.79145                  25065636.0714
         6.7504          6.5004
  22521337.9424   -2066897.32647  -1547853.86146                  22521345.0014
        22.0004         22.2504
  24363073.2314    4986377.49745   3799201.34345                  24363080.5014
         9.2504          8.7504
  24475857.3724    -606007.57045   -364500.89145                  24475870.5954
         8.7504          9.0004
 98  6 11 20 12  0.0010000  0  8G 5G 6G30G10G13G17G24G26
  23063545.9504    5927355.06046   4532181.90546                  23063554.8964
        14.7504         15.0004
  21177207.0914   -1562456.86448  -1166621.36347                  21177212.8214
        30.0004         29.7504
  21381914.1534    3503536.08548   2691457.56047                  21381920.3764
        30.5004         29.5004
  21970054.9584    3644392.48647   2803831.05946                  21970061.2984
        25.7504         25.0004
  25067701.5364     188182.82344    129413.53045                  25067707.2434
         6.5004          6.7504
  22518763.5134   -2080426.87547  -1558396.35346                  22518770.7354
        21.5004         22.0004
  24373062.4354    5038865.48645   3840101.03245                  24373069.9504
         9.7504          9.0004
  24470839.8174    -632373.24645   -385045.49845                  24470852.6424
         8.2504          9.0004
 98  6 11 20 12 15.0010000  0  8G 5G 6G30G10G13G17G24G26
  23075845.5914    5991989.76646   4582546.52346                  23075854.6064
        14.5004         15.2504
  21175527.3414   -1571284.16148  -1173499.77247                  21175533.1064
        30.5004         30.0004
  21390452.6224    3548406.41848   2726421.42647                  21390458.6464
        30.5004         29.2504
  21978742.6304    3690045.78447   2839405.04846                  21978749.1464
        25.5004         25.2504
  25069802.8804     199220.50244    138014.27245                  25069811.7784
         7.2504          6.7504
  22516206.7864   -2093862.67247  -1568865.79146                  22516214.3254
        21.2504         22.0004
  24383055.1304    5091382.35645   3881023.20845                  24383064.5214
         9.0004          9.5004
  24465831.2634    -658694.23145   -405555.25245                  24465843.5014
         7.5004          8.7504
 98  6 11 20 12 30.0010000  0  8G 5G 6G30G10G13G17G24G26
  23088160.0444    6056700.95746   4632970.76246                  23088169.0954
        15.0004         15.0004
  21173866.1924   -1580013.47248  -1180301.83047                  21173871.7714
        30.7504         30.0004
  21399022.6064    3593441.35548   2761513.55447                  21399028.6424
        30.5004         29.2504
  21987459.1064    3735852.68847   2875098.73146                  21987465.6694
        25.0004         25.0004
  25071931.1224     210408.91144    146732.53145                  25071934.4154
         7.2504          6.5004
  22513668.6774   -2107201.40547  -1579259.59346                  22513676.1814
        21.0004         22.2504
  24393054.7634    5143926.33145   3921966.54645                  24393062.8764
         8.5004          8.5004
  24460831.6924    -684967.75344   -426027.97845                  24460844.5874
         6.7504          9.2504
 98  6 11 20 12 45.0010000  0  8G 5G 6G30G10G13G17G24G26
  23100490.0054    6121495.52546   4683459.95946                  23100498.6464
        15.0004         15.0004
  21172226.1694   -1588632.18548  -1187017.70347                  21172231.7354
        30.5004         30.0004
  21407625.4584    3638650.12148   2796741.14547                  21407631.6924
        30.2504         29.2504
  21996207.2004    3781823.20047   2910919.90646                  21996213.5404
        25.0004         25.0004
  25074091.6064     221756.61945    155574.92845                  25074095.7554
         7.7504          6.5004
  22511149.9424   -2120435.05947  -1589571.51746                  22511157.3174
        21.0004         22.2504
  24403061.3494    5196506.31845   3962937.90445                  24403069.3214
         9.7504          9.7504
  24455843.1694    -711181.39444   -446454.04845                  24455855.7124
         7.2504          8.5004
 98  6 11 20 13  0.0010000  0  8G 5G 6G30G10G13G17G24G26
  23112835.1064    6186369.54446   4734011.06346                  23112843.8644
        14.5004         15.0004
  21170606.7714   -1597140.48648  -1193647.54147                  21170612.5364
        30.2504         30.0004
  21416260.0134    3684024.71648   2832097.94847                  21416266.0834
        30.0004         29.0004
  22004985.3964    3827953.61247   2946865.67946                  22004991.8994
        26.0004         25.2504
  25076279.3884     233259.98645    164538.58845                  25076285.5054
         8.0004          8.0004
  22508650.9114   -2133569.13947  -1599805.84746                  22508658.1574
        20.5004         22.0004
  24413071.1064    5249113.82945   4003930.75345                  24413079.0214
         9.2504          9.5004
  24450865.8724    -737338.45645   -466836.07445                  24450878.8134
         8.2504          9.2504
 98  6 11 20 13 15.0010000  0  8G 5G 6G30G10G13G17G24G26
  23125195.3104    6251323.03746   4784624.10946                  23125203.4704
        13.7504         14.7504
  21169008.1224   -1605542.97648  -1200194.93047                  21169013.9464
        30.7504         30.0004
  21424925.7394    3729562.33748   2867581.77647                  21424931.6224
        30.0004         29.0004
  22013793.4814    3874240.87647   2982933.67546                  22013800.1144
        25.2504         25.2504
  25078498.7394     244917.39145    173622.29045                  25078506.1494
         8.5004          7.2504
  22506170.4664   -2146603.93147  -1609962.80846                  22506177.8294
        20.5004         22.2504
  24423086.7084    5301743.85545   4044941.12845                  24423094.6814
        10.0004          9.7504
  24445899.1464    -763439.80645   -487174.67345                  24445912.4854
         8.2504          9.2504
 98  6 11 20 13 30.0010000  0  8G 5G 6G30G10G13G17G24G26
  23137571.9114    6316360.98046   4835302.94846                  23137580.3414
        14.2504         14.2504
  21167429.1144   -1613840.31148  -1206660.38247                  21167434.8564
        30.7504         30.2504
  21433621.9504    3775261.98548   2903191.86347                  21433627.9034
        30.0004         28.7504
  22022631.9664    3920686.29347   3019124.90246                  22022638.5994
        24.7504         25.5004
  25080745.8804     256732.03845    182828.51645                  25080754.2284
         7.5004          6.5004
  22503708.8964   -2159538.96647  -1620042.03846                  22503716.3294
        20.2504         21.7504
  24433106.8494    5354398.23445   4085970.49245                  24433114.8564
        11.2504          9.5004
  24440941.8024    -789486.78745   -507470.88845                  24440956.2434
         9.0004          9.5004
 98  6 11 20 13 45.0010000  0  8G 5G 6G30G10G13G17G24G26
  23149964.4194    6381483.92446   4886048.02146                  23149973.0954
        14.2504         14.5004
  21165870.2944   -1622032.43448  -1213043.84547                  21165876.0604
        31.0004         30.0004
  21442348.4664    3821120.45748   2938925.71747                  21442354.4894
        30.2504         29.0004
  22031500.7634    3967292.07547   3055441.08646                  22031507.4074
        26.2504         25.0004
  25083023.6064     268701.73245    192155.57845                  25083029.7594
         7.7504          6.5004
  22501265.8564   -2172376.73547  -1630045.47646                  22501273.2204
        20.7504         22.0004
  24443130.9744    5407077.32145   4127019.09945                  24443138.1734
         9.7504         10.0004
  24435995.6464    -815481.23045   -527726.19745                  24436010.2514
         8.0004          8.7504
 98  6 11 20 14  0.0010000  0  8G 5G 6G30G10G13G17G24G26
  23162372.7244    6446690.63846   4936858.35646                  23162380.6264
        14.0004         13.7504
  21164330.6614   -1630122.00948  -1219347.40947                  21164336.5564
        30.7504         30.2504
  21451105.0214    3867135.94448   2974781.90747                  21451110.9504
        30.0004         28.7504
  22040399.4034    4014054.86647   3091879.62146                  22040405.7434
        25.7504         25.2504
  25085330.8644     280825.37645    201602.52945                  25085335.5634
         8.0004          6.2504
  22498840.8884   -2185120.17847  -1639975.41546                  22498847.9354
        21.2504         22.0004
  24453159.7394    5459778.33545   4168084.80045                  24453168.4974
        10.5004         10.0004
  24431058.7394    -841425.76645   -547942.59345                  24431070.7674
         8.7504          9.0004
 98  6 11 20 14 15.0010000  0  8G 5G 6G30G10G13G17G24G26
  23174797.5054    6511982.87346   4987735.35346                  23174805.8174
        14.0004         14.2504
  21162811.7244   -1638105.94348  -1225568.65147                  21162817.5134
        30.7504         30.2504
  21459892.3024    3913313.20848   3010764.16247                  21459898.2784
        29.5004         28.7504
  22049328.3494    4060976.04347   3128441.56646                  22049334.8884
        25.5004         25.0004
  25087668.2244     293108.99245    211174.24445                  25087675.8334
         8.2504          6.5004
  22496434.6614   -2197767.04747  -1649830.10546                  22496441.9194
        21.2504         22.7504
  24463193.2394    5512505.16945   4209170.60245                  24463202.0214
        10.5004         10.0004
  24426131.3024    -867317.82245   -568118.13245                  24426143.5634
         9.2504          9.2504
 98  6 11 20 14 30.0010000  0  8G 5G 6G30G10G13G17G24G26
  23187237.8494    6577353.41846   5038673.36646                  23187245.8214
        14.0004         14.2504
  21161310.8494   -1645992.22348  -1231713.80047                  21161316.6734
        31.2504         30.2504
  21468708.5444    3959642.48048   3046864.87047                  21468714.5324
        29.7504         28.7504
  22058285.3884    4108046.73247   3165120.01846                  22058292.0444
        25.0004         24.7504
  25090035.2714     305547.95545    220866.92245                  25090042.3764
         8.2504          7.0004
  22494045.3174   -2210322.51447  -1659613.56946                  22494052.4464
        22.0004         22.7504
  24473230.7084    5565252.35045   4250272.28045                  24473240.5324
         9.5004          9.7504
  24421213.3644    -893162.86145   -588256.97945                  24421226.1184
         9.2504          9.7504
 98  6 11 20 14 45.0010000  0  8G 5G 6G30G10G13G17G24G26
  23199692.9034    6642808.48746   5089677.24046                  23199701.7674
        13.5004         14.2504
  21159829.2394   -1653778.09648  -1237780.70947                  21159835.1104
        30.5004         30.2504
  21477553.6304    4006124.00148   3083084.19947                  21477559.5834
        30.0004         28.7504
  22067271.4504    4155270.62447   3201917.85746                  22067278.2594
        25.0004         24.7504
  25092431.8724     318144.56344    230682.47145                  25092439.3884
         7.2504          7.7504
  22491673.5604   -2222785.52147  -1669324.98846                  22491680.7944
        21.5004         22.5004
  24483273.8104    5618025.97945   4291394.54045                  24483281.3374
        10.5004          9.5004
  24416303.6774    -918957.81145   -608356.84445                  24416317.2284
         8.7504          9.0004
 98  6 11 20 15  0.0010000  0  8G 5G 6G30G10G13G17G24G26
  23212165.0674    6708348.06846   5140746.96046                  23212173.6384
        14.0004         14.0004
  21158365.9894   -1661468.30648  -1243773.06847                  21158372.0014
        30.2504         30.5004
  21486426.2314    4052750.08048   3119416.18247                  21486432.2314
        30.0004         28.7504
  22076286.1304    4202641.80547   3238830.45846                  22076292.7044
        24.2504         24.5004
  25094859.3724     330895.38244    240618.20045                  25094865.9464
         6.7504          6.7504
  22489318.2634   -2235161.93447  -1678968.93146                  22489325.6144
        21.7504         22.5004
  24493319.8724    5670820.46345   4332533.05945                  24493327.9974
        10.2504         10.2504
  24411403.6924    -944708.94345   -628422.53145                  24411416.5284
         9.0004          9.2504
 98  6 11 20 15 15.0010000  0  8G 5G 6G30G10G13G17G24G26
  23224654.3964    6773980.30646   5191888.88346                  23224663.5994
        13.2504         14.0004
  21156921.0214   -1669060.24648  -1249688.85947                  21156927.0564
        31.2504         30.5004
  21495327.2084    4099524.84048   3155864.02647                  21495333.4664
        29.7504         29.0004
  22085329.3414    4250163.71847   3275860.50746                  22085335.8454
        25.0004         24.5004
  25097315.9424     343806.71745    250678.99545                  25097321.8604
         7.5004          7.2504
  22486980.4354   -2247447.77847  -1688542.30046                  22486987.3884
        21.5004         22.2504
  24503370.9424    5723641.85045   4373692.52945                  24503379.6654
         9.7504          9.7504
  24406512.5054    -970411.53445   -648450.41645                  24406525.0604
         8.2504          9.0004
 98  6 11 20 15 30.0010000  0  8G 5G 6G30G10G13G17G24G26
  23237161.2164    6839704.01146   5243102.08046                  23237170.9354
        13.5004         14.0004
  21155494.2714   -1676557.80248  -1255531.11847                  21155499.8844
        31.7504         30.2504
  21504257.0994    4146451.29448   3192430.06247                  21504263.2984
        29.2504         29.2504
  22094401.2784    4297836.25147   3313007.93046                  22094407.9464
        25.5004         25.0004
  25099803.2784     356875.74945    260862.66245                  25099807.6854
         8.0004          8.0004
  22484659.2004   -2259646.42547  -1698047.72546                  22484666.1774
        21.5004         22.2504
  24513427.6694    5776488.21445   4414871.45145                  24513436.8494
        10.5004         10.0004
  24401629.5524    -996068.96545   -668443.09645                  24401642.3534
         7.7504          9.0004
 98  6 11 20 15 45.0010000  0  8G 5G 6G30G10G13G17G24G26
  23249685.7314    6905519.62546   5294386.90346                  23249695.2634
        13.0004         14.0004
  21154086.8414   -1683954.97948  -1261295.15147                  21154092.2554
        31.7504         30.5004
  21513216.8964    4193535.58248   3229119.08947                  21513223.1424
        29.0004         29.0004
  22103502.2784    4345662.59147   3350275.20346                  22103508.8064
        25.5004         25.0004
  25102320.7714     370106.66845    271172.52145                  25102329.4464
         7.5004          6.7504
  22482354.5134   -2271756.77047  -1707484.34946                  22482361.5014
        21.7504         22.2504
  24523489.4814    5829364.09645   4456073.43945                  24523497.3254
        10.5004         10.2504
  24396756.7394   -1021675.77845   -688396.30545                  24396768.0284
         7.5004          8.5004
 98  6 11 20 16  0.0010000  0  9G 5G 6G30G10G13G17G24G26G23
  23262226.2004    6971423.09946   5345740.18146                  23262235.5914
        13.0004         13.7504
  21152698.2634   -1691252.51748  -1266981.53747                  21152703.6654
        31.7504         30.5004
  21522206.9584    4240778.92248   3265932.05347                  21522213.0994
        29.2504         29.0004
  22112632.2784    4393641.14447   3387661.08046                  22112638.7714
        25.5004         24.7504
  25104868.8564     383499.87045    281608.78445                  25104875.3134
         7.7504          7.0004
  22480067.0284   -2283777.43947  -1716851.09146                  22480074.1814
        21.0004         22.2504
  24533557.1614    5882268.02845   4497297.27245                  24533564.8064
        11.0004         10.0004
  24391894.4814   -1047227.26445   -708306.46445                  24391905.1144
         8.0004          8.5004
  24848558.3174     -27734.38155
         8.2504
 98  6 11 20 16 15.0010000  0  9G 5G 6G30G10G13G17G24G26G23
  23274783.1774    7037406.64946   5397155.85946                  23274792.6264
        13.2504         13.5004
  21151327.8174   -1698453.90248  -1272593.00447                  21151333.3024
        31.2504         30.2504
  21531226.5914    4288176.76448   3302865.40847                  21531232.8724
        29.7504         29.0004
  22121789.8024    4441763.09047   3425158.69046                  22121796.4234
        25.5004         24.5004
  25107447.8024     397051.21145    292168.32045                  25107454.5754
         8.7504          8.0004
  22477795.7634   -2295712.92847  -1726151.45246                  22477802.8334
        21.0004         22.0004
  24543629.0914    5935195.94145   4538539.73045                  24543638.7284
        10.7504         10.0004
  24387042.1384   -1072727.15045   -728176.33345                  24387053.7784
         8.0004          8.5004
  24841371.3414     -65505.69545
         8.2504
 98  6 11 20 16 30.0010000  0  9G 5G 6G30G10G13G17G24G26G23
  23287355.1144    7103472.26846   5448635.46346                  23287364.1304
        13.5004         14.2504
  21149976.4744   -1705554.93348  -1278126.27247                  21149982.0524
        31.5004         30.2504
  21540275.3724    4335728.59248   3339918.75247                  21540281.8064
        29.7504         29.0004
  22130974.5674    4490030.97147   3462770.01946                  22130980.9074
        25.5004         24.5004
  25110057.7314     410762.81945    302852.67745                  25110062.6304
         9.0004          7.2504
  22475541.1614   -2307560.45247  -1735383.27246                  22475548.4314
        21.0004         22.2504
  24553706.7004    5988150.70745   4579803.13945                  24553714.9784
        10.7504         10.0004
  24382200.5754   -1098169.27845   -748001.26245                  24382211.5134
         8.0004          8.5004
  24834194.9974    -103216.49245
         8.0004
 98  6 11 20 16 45.0010000  0  9G 5G 6G30G10G13G17G24G26G23
  23299941.9504    7169617.39946   5500177.03846                  23299951.6814
        13.2504         14.5004
  21148643.2554   -1712560.64048  -1283585.26347                  21148648.9154
        30.5004         30.0004
  21549352.5994    4383429.71348   3377088.42547                  21549358.9624
        30.0004         29.2504
  22140186.6224    4538440.97947   3500492.10146                  22140193.1384
        25.5004         24.5004
  25112695.8494     424629.73845    313658.06645                  25112703.6924
         9.0004          7.5004
  22473303.1144   -2319322.20747  -1744548.25446                  22473310.2314
        21.7504         22.0004
  24563787.7394    6041128.52745   4621084.55045                  24563796.4854
        11.2504         10.0004
  24377369.8564   -1123555.87145   -767782.88745                  24377382.5874
         8.2504          9.2504
  24827029.6224    -140868.31745
         8.2504
 98  6 11 20 17  0.0010000  0  9G 5G 6G30G10G13G17G24G26G23
  23312545.0054    7235845.18646   5551783.03046                  23312555.0054
        13.5004         14.0004
  21147328.5364   -1719468.50648  -1288968.00947                  21147334.1144
        30.5004         29.7504
  21558459.4584    4431286.77348   3414379.61947                  21558465.8214
        29.7504         29.2504
  22149426.4664    4586995.68547   3538326.92946                  22149432.5604
        25.2504         24.5004
  25115365.6614     438656.55445    324588.05645                  25115369.9384
         8.0004          7.0004
  22471082.1774   -2330992.25947  -1753641.78946                  22471089.2944
        21.2504         22.2504
  24573873.3724    6094132.47045   4662386.29245                  24573882.2244
         9.2504          9.0004
  24372550.2084   -1148883.50445   -787518.57945                  24372562.0134
         7.7504          9.5004
  24819876.5914    -178454.29145
         7.7504
 98  6 11 20 17 15.0010000  0  9G 5G 6G30G10G13G17G24G26G23
  23325162.2784    7302149.76646   5603448.85646                  23325171.8924
        13.5004         14.0004
  21146031.8414   -1726283.98148  -1294278.76747                  21146037.3374
        30.0004         29.7504
  21567595.2244    4479294.99848   3451788.59347                  21567601.7394
        30.0004         29.2504
  22158692.3024    4635687.60847   3576268.67246                  22158698.6184
        25.7504         24.2504
  25118064.7554     452839.10545    335639.45145                  25118070.2864
         7.7504          6.5004
  22468877.8024   -2342574.92747  -1762667.23446                  22468884.8494
        21.2504         22.2504
  24583963.5364    6147157.36645   4703704.35945                  24583972.4114
         9.0004          8.5004
  24367740.1774   -1174157.54045   -807212.50145                  24367753.3174
         8.0004          8.7504
  24812736.9584    -215977.59545    -19485.40355                  24812750.6144
         7.7504          8.2504
 98  6 11 20 17 30.0010000  0  9G 5G 6G30G10G13G17G24G26G23
  23337794.7554    7368533.67146   5655176.48646                  23337803.9114
        13.5004         14.2504
  21144754.3964   -1732996.43348  -1299509.24547                  21144760.0444
        30.5004         29.7504
  21576762.2004    4527466.12548   3489324.50547                  21576768.6924
        30.2504         29.2504
  22167986.0524    4684526.79247   3614325.17646                  22167992.0404
        26.0004         24.2504
  25120793.9664     467183.65245    346817.01445                  25120799.3564
         8.2504          7.0004
  22466692.3024   -2354059.85747  -1771616.51446                  22466699.3024
        21.5004         22.2504
  24594060.5364    6200213.60845   4745046.86445                  24594067.1574
         9.7504          8.2504
  24362941.7314   -1199369.48145   -826858.03945                  24362952.3644
         8.7504          8.2504
  24805610.3804    -253428.00844    -48667.40745                  24805623.8964
         7.2504          7.2504
 98  6 11 20 17 45.0010000  0  9G 5G 6G30G10G13G17G24G26G23
  23350438.8804    7434981.05346   5706953.57946                  23350448.2824
        13.2504         14.5004
  21143494.6064   -1739615.94248  -1304667.30247                  21143500.0914
        30.0004         29.5004
  21585956.8964    4575784.84648   3526975.42947                  21585963.2594
        29.7504         29.2504
  22177305.6064    4733500.18047   3652486.24646                  22177311.5834
        26.5004         24.2504
  25123552.4274     481679.76645    358112.72545                  25123559.4034
         8.0004          6.7504
  22464524.0604   -2365454.57847  -1780495.50146                  22464531.6224
        21.5004         22.5004
  24604161.5444    6253292.28245   4786406.79345                  24604169.2714
         9.5004          8.7504
  24358154.4114   -1224532.15245   -846465.24645                  24358162.8644
         9.0004          8.5004
  24798495.0754    -290816.38244    -77801.06945                  24798508.6854
         7.0004          7.5004
 98  6 11 20 18  0.0010000  0  9G 5G 6G30G10G13G17G24G26G23
  23363096.4974    7501496.35746   5758783.59946                  23363105.8064
        13.5004         14.7504
  21142253.5444   -1746137.31648  -1309748.89047                  21142259.2634
        29.5004         29.2504
  21595179.3564    4624249.63248   3564740.16547                  21595185.6264
        30.0004         29.0004
  22186651.2554    4782612.47847   3690755.55946                  22186657.3254
        26.0004         24.0004
  25126340.3964     496332.42545    369530.35345                  25126346.2674
         7.7504          6.7504
  22462374.7714   -2376751.45047  -1789298.24046                  22462382.0404
        22.0004         22.7504
  24614266.5364    6306400.99845   4827790.18345                  24614272.3604
         9.0004          8.2504
  24353376.6614   -1249639.50545   -866029.27945                  24353387.1184
        10.0004         10.0004
  24791392.5364    -328138.93844   -106883.47545                  24791403.2864
         6.5004          7.0004
 98  6 11 20 18 15.0010000  0  9G 5G 6G30G10G13G17G24G26G23
  23375767.1924    7568077.90946   5810665.22946                  23375777.0284
        14.0004         14.7504
  21141031.0444   -1752563.54348  -1314756.33747                  21141036.8214
        29.0004         29.2504
  21604428.4274    4672853.45548   3602613.24347                  21604434.5444
        29.7504         29.0004
  22196022.7784    4831859.98447   3729130.22646                  22196028.6734
        26.0004         24.0004
  25129158.1694     511136.43445    381065.97045                  25129164.2744
         7.7504          7.0004
  22460242.5834   -2387954.04347  -1798027.51546                  22460250.0634
        22.2504         23.2504
  24624378.5524    6359536.69245   4869194.58045                  24624385.5174
         8.5004          8.5004
  24348607.9354   -1274699.79145   -885556.64845                  24348618.2744
         9.0004         10.0004
  24784301.6224    -365401.14544   -135918.77445                  24784312.7594
         6.7504          8.0004
 98  6 11 20 18 30.0010000  0  9G 5G 6G30G10G13G17G24G26G23
  23388450.7944    7634729.91246   5862601.75646                  23388460.1144
        13.7504         15.0004
  21139826.0444   -1758893.68248  -1319688.90747                  21139832.0094
        28.7504         29.0004
  21613704.2314    4721597.89248   3640595.89247                  21613710.2314
        30.0004         28.7504
  22205419.8174    4881243.24447   3767610.68146                  22205426.0284
        25.0004         24.0004
  25132003.5674     526091.93145    392719.62045                  25132009.1224
         7.5004          7.2504
  22458128.7244   -2399063.59247  -1806684.29046                  22458135.7354
        22.7504         23.2504
  24634494.8174    6412699.53545   4910620.11045                  24634501.3334
         9.2504          7.5004
  24343847.5054   -1299714.54845   -905048.52845                  24343856.8724
         9.0004          8.7504
  24777222.0364    -402605.52443   -164909.05045                  24777233.7124
         5.7504          6.0004
 98  6 11 20 18 45.0010000  0  9G 5G 6G30G10G13G17G24G26G23
  23401147.5444    7701455.16846   5914595.36846                  23401156.9114
        14.0004         15.0004
  21138639.7554   -1765128.88848  -1324547.50647                  21138645.6614
        29.0004         29.2504
  21623007.0834    4770484.25348   3678689.12747                  21623013.2354
        30.0004         28.7504
  22214843.7784    4930765.96347   3806199.79746                  22214850.0834
        24.7504         23.5004
  25134877.7714     541199.92645    404492.09145                  25134883.5134
         7.5004          7.0004
  22456032.4814   -2410079.41647  -1815268.03946                  22456039.5994
        22.7504         23.2504
  24644617.1534    6465888.84345   4952066.35245                  24644625.7714
         9.7504          8.5004
  24339096.6854   -1324683.99545   -924505.12645                  24339106.4504
         9.7504          9.5004
  24770152.8564    -439750.90844   -193853.34445                  24770162.2824
         6.5004          6.5004
 98  6 11 20 19  0.0010000  0  9G 5G 6G30G10G13G17G24G26G23
  23413860.1854    7768257.21146   5966648.82346                  23413869.3644
        14.5004         14.7504
  21137471.8104   -1771266.39448  -1329329.97747                  21137477.6464
        28.7504         29.0004
  21632338.1534    4819520.31948   3716899.01647                  21632344.3764
        29.7504         29.0004
  22224295.0754    4980431.51347   3844900.21746                  22224301.1924
        25.2504         23.5004
  25137783.0914     556463.15645    416385.49345                  25137789.8994
         7.5004          8.0004
  22453954.7474   -2420999.66647  -1823777.31046                  22453961.8994
        22.5004         23.5004
  24654744.7164    6519109.19345   4993536.67945                  24654752.2314
         9.0004          8.7504
  24334353.3884   -1349607.07645   -943925.61245                  24334363.8924
         9.7504         10.2504
  24763096.4584    -476833.83444   -222748.98345                  24763107.7824
         6.2504          6.7504
 98  6 11 20 19 15.0010000  0  9G 5G 6G30G10G13G17G24G26G23
  23426586.3174    7835133.80446   6018760.38446                  23426596.2124
        13.5004         14.7504
  21136322.8024   -1777304.00848  -1334034.61147                  21136328.6384
        29.0004         29.0004
  21641697.7084    4868704.07848   3755223.99847                  21641703.7784
        30.2504         28.7504
  22233773.2394    5030240.68847   3883712.55846                  22233779.4744
        24.5004         23.5004
  25140716.3884     571879.42745    428398.21645                  25140723.7984
         8.0004          8.2504
  22451893.6144   -2431828.06447  -1832215.00246                  22451900.7674
        23.5004         23.7504
  24664877.0754    6572358.31445   5035029.44945                  24664885.9624
         8.7504          8.7504
  24329619.3494   -1374484.14545   -963310.19645                  24329629.5834
         9.5004          9.7504
  24756050.9194    -513856.36244   -251597.52345                  24756068.0914
         6.5004          6.5004
 98  6 11 20 19 30.0010000  0  9G 5G 6G30G10G13G17G24G26G23
  23439325.5444    7902078.21046   6070924.76946                  23439335.0054
        13.2504         14.7504
  21135192.9034   -1783242.10448  -1338661.69647                  21135198.6694
        29.0004         29.0004
  21651084.4504    4918031.62548   3793661.01647                  21651090.5674
        30.0004         29.0004
  22243278.8024    5080192.20147   3922635.79946                  22243285.0134
        25.2504         23.2504
  25143677.7634     587444.04145    440526.49845                  25143683.2354
         7.5004          7.7504
  22449850.4584   -2442567.94147  -1840583.72246                  22449857.5524
        23.5004         23.7504
  24675014.0674    6625630.80945   5076540.44145                  24675023.0134
         8.0004          7.7504
  24324893.7634   -1399317.24645   -982660.54845                  24324904.1144
         9.5004          9.5004
  24749017.0524    -550820.01944   -280400.27845                  24749032.1614
         6.5004          7.0004
 98  6 11 20 19 45.0010000  0  9G 5G 6G30G10G13G17G24G26G23
  23452078.5524    7969094.80946   6123145.40046                  23452088.3064
        13.2504         14.7504
  21134082.4194   -1789077.92648  -1343209.08747                  21134088.2434
        29.0004         29.0004
  21660499.3644    4967507.27648   3832213.44247                  21660505.5524
        30.0004         28.7504
  22252812.2474    5130290.64747   3961673.54546                  22252818.3414
        25.2504         23.2504
  25146669.0364     603161.37944    452773.76845                  25146676.8454
         7.2504          7.0004
  22447824.5134   -2453213.80247  -1848879.18246                  22447831.5954
        24.0004         24.0004
  24685158.0524    6678930.65645   5118072.76145                  24685167.2084
         8.2504          7.5004
  24320177.0914   -1424099.76245  -1001971.46745                  24320188.3454
         8.7504          9.5004
  24741994.1534    -587720.66544   -309153.83145                  24742004.4464
         6.5004          7.5004
 98  6 11 20 20  0.0010000  0  9G 5G 6G30G10G13G17G24G26G23
  23464844.4194    8036180.67646   6175420.00846                  23464854.3724
        13.5004         14.7504
  21132989.6694   -1794820.43848  -1347683.77447                  21132995.5054
        29.0004         29.0004
  21669941.3334    5017125.13548   3870876.67247                  21669947.4854
        30.0004         28.7504
  22262372.1774    5180528.78547   4000820.13246                  22262378.2354
        25.0004         23.0004
  25149688.4974     619026.63445    465136.38045                  25149693.7474
         7.5004          7.2504
  22445814.5284   -2463775.24847  -1857108.86246                  22445821.5054
        23.5004         24.0004
  24695303.4584    6732249.50845   5159619.83045                  24695311.6424
         8.7504          7.0004
  24315470.5524   -1448833.78745  -1021244.58045                  24315480.8214
         9.5004         10.0004
  24734983.3644    -624566.79844   -337864.92145                  24734995.6964
         7.2504          6.7504
 98  6 11 20 20 15.0010000  0  9G 5G 6G30G10G13G17G24G26G23
  23477626.3414    8103350.04046   6227759.67446                  23477636.3294
        14.2504         15.2504
  21131916.2864   -1800459.59748  -1352077.91647                  21131922.2514
        28.2504         28.7504
  21679413.6144    5066901.91248   3909663.74647                  21679419.9194
        29.7504         29.0004
  22271960.3884    5230916.45847   4040083.24446                  22271966.3294
        24.7504         23.0004
  25152737.3724     635050.19045    477622.23745                  25152743.8994
         8.2504          8.0004
  22443822.2314   -2474244.77347  -1865266.91446                  22443829.1614
        23.7504         23.7504
  24705454.9274    6785594.15145   5201187.07245                  24705462.3964
         8.2504          7.0004
  24310776.3174   -1473505.96345  -1040469.53245                  24310787.1264
        10.0004         10.5004
  24727983.4744    -661349.31344   -366526.49345                  24727993.7084
         7.2504          7.2504
 98  6 11 20 20 30.0010000  0  9G 5G 6G30G10G13G17G24G26G23
  23490423.1144    8170595.67346   6280158.77846                  23490432.6574
        14.7504         15.2504
  21130861.9194   -1806001.11948  -1356395.98047                  21130867.8254
        28.5004         28.7504
  21688915.3804    5116832.97548   3948571.03147                  21688921.5914
        29.7504         29.0004
  22281575.4504    5281443.14347   4079454.67946                  22281581.5324
        24.7504         23.0004
  25155815.1224     651223.30845    490224.68245                  25155820.5244
         8.2504          8.0004
  22441845.9584   -2484631.76847  -1873360.66246                  22441852.6494
        23.7504         23.2504
  24715608.9034    6838956.46744   5242768.09445                  24715617.6264
         7.2504          7.0004
  24306091.3334   -1498120.49945  -1059649.56345                  24306101.6854
        10.5004         10.7504
  24720994.4664    -698076.54344   -395144.90345                  24721007.2674
         7.2504          7.0004
 98  6 11 20 20 45.0010000  0  9G 5G 6G30G10G13G17G24G26G23
  23503233.6464    8237915.97146   6332616.05546                  23503243.2474
        14.2504         14.7504
  21129825.5604   -1811446.90048  -1360639.44747                  21129831.3254
        28.7504         28.7504
  21698445.6224    5166916.02848   3987596.76047                  21698451.8804
        29.7504         28.7504
  22291216.6614    5332106.96547   4118932.96346                  22291222.6734
        25.0004         23.0004
  25158921.3964     667545.82345    502943.58045                  25158928.7354
         8.5004          7.7504
  22439884.6384   -2494937.39847  -1881391.00646                  22439891.5324
        23.7504         23.5004
  24725767.0134    6892333.09045   5284360.15745                  24725776.0634
         8.2504          7.7504
  24301419.2944   -1522675.01945  -1078782.80945                  24301429.9854
        10.0004         10.2504
  24714015.5214    -734749.59644   -423721.17745                  24714026.3644
         7.0004          7.7504
 98  6 11 20 21  0.0010000  0  9G 5G 6G30G10G13G17G24G26G23
  23516057.6224    8305306.61346   6385128.16046                  23516067.2824
        14.0004         15.0004
  21128807.3644   -1816797.29148  -1364808.58347                  21128813.0714
        28.7504         28.5004
  21708004.5524    5217148.00848   4026738.53147                  21708010.8924
        29.7504         29.2504
  22300883.7394    5382907.96747   4158518.16146                  22300889.8924
        24.7504         22.7504
  25162055.5754     684017.03044    515778.21845                  25162064.5794
         7.2504          8.2504
  22437939.5284   -2505160.01247  -1889356.66346                  22437946.4584
        24.2504         23.7504
  24735926.2944    6945723.56645   5325963.18845                  24735934.9114
         9.0004          8.0004
  24296757.6534   -1547169.28045  -1097869.14045                  24296768.9074
         9.7504         10.0004
  24707047.3804    -771370.00144   -452256.34045                  24707060.9784
         7.2504          7.7504
 98  6 11 20 21 15.0010000  0  9G 5G 6G30G10G13G17G24G26G23
  23528896.2244    8372771.82446   6437698.35246                  23528906.1534
        14.2504         15.2504
  21127808.9354   -1822044.12048  -1368897.01947                  21127814.7474
        28.7504         28.7504
  21717592.3414    5267532.56948   4065999.19547                  21717598.5994
        30.0004         29.0004
  22310577.2864    5433848.51247   4198212.08446                  22310583.3684
        24.5004         22.5004
  25165219.2474     700641.87044    528732.72845                  25165225.6574
         7.2504          7.5004
  22436010.5134   -2515295.38147  -1897254.33146                  22436017.4074
        23.5004         23.7504
  24746089.7714    6999133.82445   5367581.53345                  24746099.2434
         8.2504          8.0004
  24292108.8804   -1571596.49845  -1116903.20145                  24292119.3134
        10.0004         10.2504
  24700089.4354    -807931.60444   -480745.76345                  24700101.6734
         7.2504          8.0004
 98  6 11 20 21 30.0010000  0  9G 5G 6G30G10G13G17G24G26G23
  23541748.8104    8440315.60346   6490329.79346                  23541758.3534
        13.5004         14.7504
  21126831.4894   -1827181.84148  -1372900.43647                  21126837.3724
        28.5004         28.5004
  21727209.2714    5318069.27248   4105378.41447                  21727215.3884
        30.0004         28.7504
  22320297.8494    5484930.38747   4238016.13246                  22320303.9544
        25.0004         23.0004
  25168412.3804     717426.71644    541811.80545                  25168421.6184
         6.5004          7.2504
  22434099.9114   -2525335.74447  -1905077.98246                  22434106.8414
        23.7504         23.5004
  24756258.3414    7052567.38145   5409218.05445                  24756267.2514
         8.7504          8.2504
  24287475.1384   -1595950.73345  -1135880.39545                  24287486.7674
        10.2504         10.7504
  24693144.0994    -844429.40044   -509185.43545                  24693159.4784
         6.7504          6.2504
 98  6 11 20 21 45.0010000  0  9G 5G 6G30G10G13G17G24G26G23
  23554614.7084    8507923.13446   6543010.86346                  23554624.4744
        14.0004         14.2504
  21125871.0284   -1832229.25448  -1376833.48947                  21125876.6424
        28.5004         28.7504
  21736851.7394    5368741.98648   4144863.61247                  21736857.9034
        28.7504         28.7504
  22330041.8884    5536135.20247   4277915.98446                  22330047.9934
        25.2504         23.0004
  25171634.7864     734355.97144    555003.44545                  25171644.2594
         6.2504          6.5004
  22432204.3644   -2535296.59147  -1912839.65846                  22432211.3534
        24.0004         23.5004
  24766427.3334    7106010.17845   5450861.74745                  24766437.3334
         8.7504          8.0004
  24282849.8334   -1620247.99145  -1154813.18545                  24282861.0054
         9.5004         10.7504
  24686207.9744    -880880.48344   -537588.70845                  24686218.6774
         7.2504          8.2504
 98  6 11 20 22  0.0010000  0  9G 5G 6G30G10G13G17G24G26G23
  23567493.1694    8575600.53346   6595746.41946                  23567502.6424
        14.0004         15.0004
  21124928.7084   -1837180.09548  -1380691.28147                  21124934.5914
        28.0004         28.2504
  21746520.8494    5419552.95248   4184456.53647                  21746527.1654
        28.5004         28.7504
  22339809.8964    5587466.58247   4317914.45646                  22339815.8254
        25.2504         23.0004
  25174884.5054     751434.60844    568311.50445                  25174894.0134
         6.5004          7.2504
  22430324.6534   -2545174.43947  -1920536.67346                  22430331.4744
        24.2504         23.2504
  24776601.2314    7159468.37445   5492517.39945                  24776607.9934
        10.0004          8.5004
  24278237.9274   -1644484.93245  -1173698.99545                  24278247.3994
        10.7504         10.7504
  24679280.7004    -917279.47644   -565951.39545                  24679291.2394
         6.5004          7.7504
 98  6 11 20 22 15.0010000  0  9G 5G 6G30G10G13G17G24G26G23
  23580385.4504    8643351.32446   6648539.13946                  23580395.3334
        13.7504         14.5004
  21124006.3964   -1842026.31148  -1384467.54547                  21124012.3254
        28.0004         28.2504
  21756217.0214    5470506.09848   4224160.25147                  21756223.3134
        28.7504         28.5004
  22349603.2714    5638930.66447   4358016.33246                  22349609.6464
        24.7504         23.0004
  25178162.9504     768666.68243    581739.09145                  25178172.7164
         6.0004          6.7504
  22428461.6614   -2554965.26147  -1928165.86646                  22428468.5324
        24.5004         23.7504
  24786778.0914    7212946.45245   5534188.61345                  24786785.9704
         9.7504          9.0004
  24273637.8804   -1668658.27645  -1192535.24345                  24273648.3604
        10.5004         11.5004
  24672365.3254    -953619.30544   -594267.97545                  24672377.4464
         6.7504          7.5004
 98  6 11 20 22 30.0010000  0  9G 5G 6G30G10G13G17G24G26G23
  23593291.3884    8711170.43446   6701385.11146                  23593300.2744
        14.5004         14.5004
  21123104.6304   -1846765.68448  -1388160.56047                  21123110.4664
        28.0004         28.5004
  21765938.9504    5521595.91848   4263970.46547                  21765945.1734
        28.2504         28.2504
  22359421.5994    5690526.46547   4398220.84446                  22359427.7864
        26.0004         23.0004
  25181471.6534     786049.03745    595283.81945                  25181479.9314
         7.5004          7.7504
  22426615.2314   -2564668.03947  -1935726.46246                  22426621.9464
        24.5004         23.7504
  24796958.1384    7266443.28545   5575874.38845                  24796967.3994
         9.7504          9.2504
  24269049.0364   -1692774.09645  -1211326.65645                  24269060.0324
        10.7504         11.0004
  24665461.6614    -989896.71244   -622535.94845                  24665473.5954
         6.7504          8.0004
 98  6 11 20 22 45.0010000  0  9G 5G 6G30G10G13G17G24G26G23
  23606208.5364    8779051.00446   6754278.97346                  23606218.3844
        13.5004         14.5004
  21122222.5994   -1851400.21248  -1391771.87847                  21122228.2714
        28.2504         28.2504
  21775686.0754    5572816.55048   4303882.61247                  21775692.2744
        28.5004         28.0004
  22369265.1614    5742254.52947   4438528.42446                  22369271.2904
        25.5004         23.2504
  25184807.8254     803582.79745    608946.45345                  25184814.5754
         8.0004          7.2504
  22424785.3644   -2574282.65047  -1943218.34846                  22424792.4354
        23.7504         24.0004
  24807141.8494    7319957.80945   5617573.96645                  24807150.1494
         9.2504          9.5004
  24264469.8024   -1716836.80945  -1230076.67445                  24264480.3644
        11.5004         10.7504
  24658570.6464   -1026111.69844   -650755.26445                  24658584.2904
         6.7504          7.7504
 98  6 11 20 23  0.0010000  0  9G 5G 6G30G10G13G17G24G26G23
  23619136.5604    8846985.59346   6807214.92046                  23619146.7714
        14.2504         14.7504
  21121359.4664   -1855936.42948  -1395306.58947                  21121365.3254
        28.2504         28.2504
  21785457.4114    5624164.24348   4343893.76547                  21785463.5874
        28.5004         28.2504
  22379133.4194    5794112.40347   4478937.14546                  22379139.4544
        24.5004         22.7504
  25188172.5754     821264.99545    622724.83145                  25188178.3064
         9.0004          8.0004
  22422972.3254   -2583810.78947  -1950642.85046                  22422979.4424
        24.5004         24.0004
  24817327.1614    7373486.00645   5659284.22445                  24817334.9584
         9.5004          9.0004
  24259899.4424   -1740854.27345  -1248791.49045                  24259910.1814
        11.0004         11.5004
  24651689.8414   -1062265.71444   -678927.09045                  24651701.0244
         6.7504          7.7504
 98  6 11 20 23 15.0010000  0  9G 5G 6G30G10G13G17G24G26G23
  23632074.7714    8914975.45346   6860193.93846                  23632084.7004
        14.2504         14.5004
  21120514.9354   -1860373.67848  -1398764.18347                  21120520.7474
        28.0004         28.2504
  21795252.9504    5675640.98248   4384005.47347                  21795259.2434
        28.0004         28.0004
  22389026.2784    5846100.44047   4519447.29746                  22389032.3374
        24.5004         22.5004
  25191565.8104     839096.08745    636619.19145                  25191572.1854
         8.0004          7.0004
  22421175.9424   -2593251.00147  -1957998.85046                  22421183.0244
        24.5004         24.0004
  24827516.6854    7427030.94245   5701007.51845                  24827522.3564
         8.7504          8.0004
  24255337.0444   -1764826.92545  -1267471.34745                  24255347.3254
        11.0004         11.2504
  24644822.8334   -1098353.75744   -707047.48245                  24644832.9274
         7.0004          7.7504
 98  6 11 20 23 30.0010000  0  9G 5G 6G30G10G13G17G24G26G23
  23645024.1924    8983022.48246   6913217.49446                  23645033.9814
        14.0004         14.2504
  21119688.9974   -1864714.91448  -1402146.96047                  21119694.7864
        28.2504         28.5004
  21805073.5754    5727247.53048   4424218.33247                  21805079.8454
        28.5004         27.7504
  22398943.8494    5898218.03747   4560058.40446                  22398950.0954
        23.7504         22.2504
  25194987.7394     857077.66145    650630.84945                  25194995.7474
         7.5004          7.0004
  22419396.3564   -2602602.43447  -1965285.66046                  22419403.3804
        24.0004         24.0004
  24837709.3254    7480593.76545   5742744.75245                  24837716.5954
         9.2504          8.7504
  24250784.2244   -1788754.84845  -1286116.37645                  24250795.9354
        11.0004         11.2504
  24637967.8254   -1134373.44444   -735114.63545                  24637979.7354
         6.5004          7.5004
 98  6 11 20 23 45.0010000  0  9G 5G 6G30G10G13G17G24G26G23
  23657982.6464    9051121.77646   6966281.78146                  23657992.1534
        13.7504         14.2504
  21118879.6924   -1868967.09148  -1405460.34747                  21118885.3064
        28.7504         28.7504
  21814918.1694    5778982.80748   4464531.49747                  21814924.3924
        28.5004         28.2504
  22408886.1854    5950465.56547   4600770.75546                  22408892.7944
        23.5004         22.2504
  25198437.8804     875207.71944    664758.17045                  25198444.1144
         7.2504          7.0004
  22417633.3964   -2611867.25047  -1972504.99146                  22417640.4194
        24.0004         24.0004
  24847904.6304    7534172.56845   5784494.38645                  24847912.9894
         9.2504          9.5004
  24246238.8804   -1812640.35045  -1304728.32345                  24246249.9934
         9.7504         10.5004
  24631127.3494   -1170328.03544   -763131.07645                  24631138.5094
         7.2504          7.7504
 98  6 11 20 24  0.0010000  0  9G 5G 6G30G10G13G17G24G26G23
  23670952.8414    9119281.30246   7019392.98446                  23670962.2784
        14.0004         14.2504
  21118089.0834   -1873121.67748  -1408697.68547                  21118094.7784
        28.5004         28.7504
  21824790.1304    5830859.02448   4504954.49547                  21824796.4814
        28.5004         28.2504
  22418855.5914    6002855.08747   4641593.75546                  22418862.1184
        23.2504         22.5004
  25201917.7714     893493.99645    679007.17945                  25201924.1344
         7.5004          6.5004
  22415888.1774   -2621038.75547  -1979651.60146                  22415894.9854
        24.0004         24.0004
  24858105.8254    7587774.66045   5826262.21145                  24858112.5404
         9.2504          8.7504
  24241702.4744   -1836475.32145  -1323300.90545                  24241712.6144
         9.2504         10.5004
  24624298.3024   -1206207.30344   -791088.82445                  24624310.9034
         6.2504          7.7504
 98  6 11 20 24 15.0010000  0  9G 5G 6G30G10G13G17G24G26G23
  23683935.6534    9187505.30246   7072554.45046                  23683945.3134
        13.7504         13.5004
  21117317.6614   -1877175.56748  -1411856.56347                  21117323.3684
        28.5004         28.7504
  21834689.7554    5882882.78448   4545492.44647                  21834696.1884
        28.7504         28.2504
  22428853.2314    6055392.66947   4682532.11446                  22428860.1384
        23.5004         22.5004
  25205428.0444     911942.85444    693382.91545                  25205435.3844
         6.5004          6.5004
  22414161.3964   -2630111.88847  -1986721.56546                  22414168.2784
        24.0004         24.0004
  24868310.2084    7641404.74845   5868051.85645                  24868319.0244
         9.2504          9.0004
  24237177.5834   -1860253.09345  -1341828.92345                  24237188.3564
         9.7504         10.5004
  24617486.4034   -1242005.56544   -818983.46845                  24617498.6304
         6.7504          7.7504
 98  6 11 20 24 30.0010000  0  9G 5G 6G30G10G13G17G24G26G23
  23696929.3104    9255786.16546   7125760.20846                  23696938.9934
        13.0004         13.2504
  21116563.6774   -1881138.48048  -1414944.53647                  21116569.5134
        28.5004         29.0004
  21844616.5364    5935047.24848   4586140.05347                  21844622.9814
        28.5004         28.0004
  22438877.1534    6108068.43747   4723578.16846                  22438883.7984
        23.7504         22.5004
  25208967.3254     930547.22343    707879.90745                  25208972.3414
         6.0004          6.5004
  22412452.1304   -2639094.71347  -1993721.14846                  22412459.0134
        23.7504         23.7504
  24878519.1924    7695053.30345   5909855.89645                  24878528.9704
        10.0004          8.7504
  24232662.1534   -1883980.68945  -1360317.80045                  24232671.1694
         9.2504         10.0004
  24610687.7554   -1277733.78644   -846823.46845                  24610701.0834
         6.5004          8.2504
 98  6 11 20 24 45.0010000  0  9G 5G 6G30G10G13G17G24G26G23
  23709932.8964    9324121.33446   7179008.29246                  23709942.1344
        14.0004         13.7504
  21115825.9584   -1885015.61548  -1417965.68047                  21115831.6884
        29.2504         29.0004
  21854569.4584    5987350.87148   4626896.09047                  21854576.0794
        28.5004         28.0004
  22448926.0524    6160876.00747   4764726.92146                  22448932.4274
        23.5004         22.7504
  25212536.3024     949303.32444    722495.08745                  25212543.3254
         6.5004          6.7504
  22410759.4974   -2647989.81247  -2000652.38346                  22410766.3684
        23.2504         24.0004
  24888731.2944    7748716.44745   5951671.27045                  24888739.3374
        10.5004          9.5004
  24228156.4894   -1907658.56845  -1378768.02245                  24228166.6304
         9.7504          9.7504
  24603899.9584   -1313399.68144   -874614.94245                  24603911.6464
         7.2504          8.0004
 98  6 11 20 25  0.0010000  0  9G 5G 6G30G10G13G17G24G26G23
  23722948.5214    9392518.58546   7232304.73146                  23722958.0174
        14.2504         14.0004
  21115104.7474   -1888805.37748  -1420918.72947                  21115110.3604
        29.5004         29.2504
  21864550.3414    6039800.44247   4667765.85147                  21864556.9974
        27.7504         28.2504
  22459001.1064    6213818.73547   4805980.97746                  22459007.9154
        24.2504         23.0004
  25216135.5444     968213.45244    737230.29945                  25216142.7434
         6.7504          6.5004
  22409084.1534   -2656793.32347  -2007512.24246                  22409091.2354
        23.5004         23.7504
  24898946.8104    7802399.32645   5993502.09745                  24898956.3994
        11.0004          9.2504
  24223661.6304   -1931277.62645  -1397172.34445                  24223672.2634
         9.0004         10.7504
  24597125.0834   -1349001.58844   -902356.55945                  24597137.2634
         7.2504          8.2504
 98  6 11 20 25 15.0010000  0  9G 5G 6G30G10G13G17G24G26G23
  23735978.2314    9460987.64546   7285657.14646                  23735987.3414
        14.0004         13.7504
  21114402.1064   -1892497.54648  -1423795.74447                  21114407.7314
        29.5004         29.5004
  21874560.5674    6092404.10848   4708755.68747                  21874567.2244
        28.7504         28.2504
  22469102.2314    6266901.98347   4847344.54446                  22469108.7474
        24.5004         23.2504
  25219764.1384     987281.82944    752088.69945                  25219772.5674
         6.5004          5.7504
  22407427.6534   -2665498.36247  -2014295.37946                  22407434.6064
        23.2504         23.7504
  24909167.5444    7856108.34445   6035353.23645                  24909174.9664
        11.5004          9.0004
  24219180.2634   -1954827.59945  -1415522.83445                  24219191.5054
         9.0004         10.2504
  24590364.4274   -1384533.56845   -930043.68345                  24590375.4934
         7.7504          9.0004
 98  6 11 20 25 30.0010000  0  9G 5G 6G30G10G13G17G24G26G23
  23749020.1614    9529524.33846   7339062.26046                  23749029.5524
        13.5004         14.2504
  21113718.1384   -1896092.62848  -1426597.10247                  21113723.7044
        30.0004         29.5004
  21884599.2714    6145157.54048   4749862.22647                  21884605.7744
        28.5004         28.2504
  22479229.8334    6320123.20447   4888815.62046                  22479236.1614
        23.2504         22.5004
  25223423.3884    1006507.00045    767069.37145                  25223429.5754
         8.0004          7.2504
  22405788.8724   -2674110.87847  -2021006.41546                  22405795.9314
        22.5004         23.5004
  24919391.7474    7909838.15045   6077220.56545                  24919399.5674
        11.7504          9.5004
  24214712.1774   -1978306.88145  -1433818.26845                  24214723.7244
         9.2504         10.7504
  24583614.1464   -1420001.55344   -957680.96345                  24583625.6814
         7.2504          9.2504
 98  6 11 20 25 45.0010000  0  9G 5G 6G30G10G13G17G24G26G23
  23762071.8024    9598113.73346   7392508.43446                  23762081.1104
        13.5004         14.0004
  21113050.9424   -1899598.39148  -1429328.86447                  21113056.5914
        29.7504         29.7504
  21894664.1854    6198049.17248   4791076.45647                  21894670.6654
        28.5004         28.0004
  22489382.1304    6373472.27847   4930386.31746                  22489388.2714
        23.0004         22.2504
  25227109.4744    1025879.38945    782164.75545                  25227117.3174
         7.7504          8.0004
  22404165.3414   -2682642.96147  -2027654.77746                  22404172.2594
        22.7504         23.5004
  24929618.3724    7963576.69945   6119094.75845                  24929627.1654
        10.0004          9.0004
  24210257.3724   -2001723.04445  -1452064.49145                  24210267.7824
         9.0004         10.5004
  24576875.2554   -1455417.89745   -985277.95945                  24576887.7634
         8.0004          9.2504
 98  6 11 20 26  0.0010000  0  9G 5G 6G30G10G13G17G24G26G23
  23775136.6854    9666767.17346   7446004.51946                  23775146.5214
        13.0004         14.0004
  21112404.7784   -1902996.12048  -1431976.44247                  21112410.5674
        30.0004         29.7504
  21904757.6144    6251090.39048   4832407.24047                  21904764.1774
        28.5004         28.2504
  22499560.2314    6426959.42547   4972064.61346                  22499566.7594
        23.5004         22.2504
  25230825.5054    1045409.31644    797382.95145                  25230835.2594
         6.5004          7.0004
  22402558.4744   -2691085.46747  -2034233.33746                  22402565.3334
        23.5004         23.5004
  24939847.7474    8017333.77645   6160983.32545                  24939855.9894
        10.0004          9.0004
  24205815.1064   -2025064.52545  -1470252.57845                  24205825.8334
         9.7504         10.7504
  24570146.7314   -1490773.71945  -1012827.81445                  24570159.2634
         8.0004          9.2504
 98  6 11 20 26 15.0010000  0  9G 5G 6G30G10G13G17G24G26G23
  23788212.6064    9735481.88646   7499548.33246                  23788222.3964
        13.2504         14.0004
  21111778.7244   -1906284.11048  -1434538.51047                  21111784.4314
        30.0004         29.7504
  21914878.6534    6304276.85248   4873851.20347                  21914885.2634
        28.5004         28.2504
  22509763.5214    6480578.29847   5013845.54446                  22509769.9894
        23.5004         22.2504
  25234572.0834    1065095.75145    812722.97145                  25234579.0834
         7.5004          7.5004
  22400968.4664   -2699440.74947  -2040743.93846                  22400975.4194
        23.0004         23.5004
  24950080.6924    8071107.65145   6202885.00745                  24950089.5674
        10.5004          9.7504
  24201386.9114   -2048333.75445  -1488384.29545                  24201397.7784
         9.5004         10.5004
  24563430.1224   -1526070.03145  -1040331.33445                  24563441.8924
         8.0004          8.5004
 98  6 11 20 26 30.0010000  0  9G 5G 6G30G10G13G17G24G26G23
  23801301.3104    9804261.42546   7553142.67746                  23801310.4424
        13.2504         14.2504
  21111175.2864   -1909455.74848  -1437009.91247                  21111181.2744
        30.2504         29.7504
  21925027.8644    6357610.17048   4915409.60147                  21925034.4154
        28.5004         28.0004
  22519991.8804    6534330.20247   5055730.13646                  22519998.4894
        24.2504         23.0004
  25238349.1064    1084943.65045    828188.89945                  25238356.6344
         8.5004          8.5004
  22399396.5284   -2707702.53247  -2047181.67146                  22399403.5994
        23.0004         23.5004
  24960317.8334    8124905.63445   6244805.41446                  24960326.7554
        10.0004         13.7504
  24196973.0444   -2071525.05545  -1506455.30045                  24196984.6034
         9.0004         10.5004
  24556725.2714   -1561303.41745  -1067785.78745                  24556738.3534
         8.2504          9.0004
 98  6 11 20 26 45.0010000  0  9G 5G 6G30G10G13G17G24G26G23
  23814400.8724    9873100.15346   7606783.14946                  23814410.2394
        14.0004         14.0004
  21110593.2474   -1912514.18748  -1439393.11147                  21110598.9424
        30.0004         29.7504
  21935203.2944    6411082.87448   4957076.61447                  21935209.9034
        28.5004         28.2504
  22530245.6694    6588209.78947   5097714.21246                  22530252.1494
        24.2504         22.5004
  25242156.4114    1104948.19745    843776.87345                  25242162.1774
         8.2504          7.5004
  22397841.4354   -2715875.13147  -2053549.91846                  22397848.4814
        22.7504         23.5004
  24970559.5364    8178723.86345   6286741.73745                  24970571.1534
         9.7504          9.0004
  24192574.9974   -2094642.76945  -1524468.98745                  24192585.4664
        10.5004         11.5004
  24550031.6854   -1596476.98645  -1095193.64245                  24550044.3684
         8.2504          8.7504
 98  6 11 20 27  0.0010000  0  8G 5G 6G30G10G13G17G26G23
  23827511.2784    9941996.51146   7660468.49946                  23827520.8104
        14.5004         14.5004
  21110032.7474   -1915460.08048  -1441688.61047                  21110038.4894
        30.5004         30.0004
  21945405.1854    6464694.05948   4998851.52747                  21945411.8414
        28.5004         28.2504
  22540522.8024    6642218.46947   5139798.88646                  22540529.4114
        23.7504         22.5004
  25245991.9424    1125108.69145    859486.35645                  25245998.8604
         8.0004          7.5004
  22396302.4424   -2723960.06347  -2059849.85746                  22396309.2634
        23.7504         23.5004
  24188189.0444   -2117686.72745  -1542425.20745                  24188198.9624
        10.5004         11.2504
  24543350.5054   -1631587.99145  -1122552.76645                  24543361.5604
         7.5004          8.7504
 98  6 11 20 27 15.0010000  0  8G 5G 6G30G10G13G17G26G23
  23840632.4664   10010947.09946   7714196.13446                  23840642.4664
        13.7504         14.2504
  21109493.8024   -1918292.28948  -1443895.52447                  21109499.4974
        30.5004         30.0004
  21955632.1854    6518437.51148   5040729.51147                  21955639.1034
        28.2504         28.2504
  22550824.8254    6696356.70547   5181984.51346                  22550831.2244
        23.7504         23.0004
  25249858.5284    1145426.34945    875318.29445                  25249863.5674
         7.5004          6.5004
  22394779.9584   -2731961.60347  -2066084.81746                  22394786.6264
        23.5004         24.0004
  24183817.2864   -2140662.41445  -1560328.22145                  24183828.6694
         9.7504         11.2504
  24536680.3024   -1666635.81544  -1149862.62045                  24536693.2434
         7.2504          8.2504
 98  6 11 20 27 30.0010000  0  8G 5G 6G30G10G13G17G26G23
  23853763.6854   10079953.63846   7767967.34646                  23853773.0754
        14.7504         14.7504
  21108977.1464   -1921007.01748  -1446010.89247                  21108982.7004
        30.7504         29.7504
  21965884.9034    6572315.20948   5082712.10047                  21965891.7244
        28.5004         28.2504
  22561152.4814    6750628.06147   5224273.87846                  22561159.1964
        23.5004         22.7504
  25253756.4504    1165907.66545    891277.80545                  25253761.9354
         8.0004          7.7504
  22393273.2164   -2739879.69647  -2072254.74246                  22393279.9314
        23.7504         24.0004
  24179458.2714   -2163568.40745  -1578176.91845                  24179468.1184
        11.0004         11.0004
  24530024.7634   -1701615.33445  -1177119.29245                  24530037.8684
         7.5004          7.7504
 98  6 11 20 27 45.0010000  0  8G 5G 6G30G10G13G17G26G23
  23866904.1924   10149004.60246   7821773.19046                  23866914.3454
        13.2504         14.7504
  21108479.8964   -1923619.58448  -1448046.65847                  21108485.2984
        30.5004         29.7504
  21976160.3024    6626313.00548   5124788.26747                  21976166.8644
        28.7504         28.0004
  22571502.3334    6805017.37347   5266655.14346                  22571508.8604
        24.2504         22.7504
  25257681.8414    1186539.23644    907354.40745                  25257687.2314
         6.7504          7.2504
  22391779.6774   -2747727.95547  -2078370.26746                  22391786.5714
        23.0004         24.0004
  24175110.0834   -2186418.83845  -1595982.35645                  24175119.3804
        11.0004         11.0004
  24523379.1144   -1736537.26044  -1204331.06745                  24523392.2554
         7.0004          8.7504
 98  6 11 20 28  0.0010000  0  8G 5G 6G30G10G13G17G26G23
  23880055.2634   10218114.64646   7875625.06046                  23880065.3454
        13.7504         14.5004
  21108003.8494   -1926120.80448  -1449995.65947                  21108009.4154
        30.5004         29.7504
  21986460.5914    6680440.46048   5166965.47547                  21986467.1774
        28.2504         28.0004
  22581875.5524    6859529.34547   5309131.98946                  22581882.4934
        24.2504         22.7504
  25261637.2244    1207326.69944    923552.39745                  25261641.3494
         6.2504          5.7504
  22390301.2944   -2755495.61247  -2084422.97146                  22390308.1654
        22.7504         24.0004
  24170772.9034   -2209208.50945  -1613740.42245                  24170781.6494
        10.5004         10.7504
  24516745.9274   -1771391.69644  -1231490.22845                  24516758.2944
         6.7504          8.5004
 98  6 11 20 28 15.0010000  0  8G 5G 6G30G10G13G17G26G23
  23893219.2864   10287290.96746   7929528.57146                  23893229.9544
        13.5004         14.7504
  21107549.8254   -1928507.26848  -1451855.23447                  21107555.4384
        30.5004         29.7504
  21996786.0134    6734701.67948   5209246.90447                  21996792.7394
        28.5004         28.0004
  22592272.8024    6914166.98247   5351706.76846                  22592279.4354
        23.5004         22.7504
  25265623.9504    1228273.52444    939874.64745                  25265628.4744
         7.0004          6.7504
  22388839.9974   -2763176.33647  -2090407.94446                  22388846.7354
        23.5004         24.0004
  24166449.0834   -2231932.11245  -1631446.99645                  24166457.8994
        11.2504         10.2504
  24510127.3964   -1806171.38444  -1258591.19745                  24510140.0324
         6.5004          8.5004
 98  6 11 20 28 30.0010000  0  8G 5G 6G30G10G13G17G26G23
  23906393.4974   10356520.92246   7983473.87546                  23906404.1884
        13.7504         14.7504
  21107113.9584   -1930796.76948  -1453639.25847                  21107119.5014
        30.5004         29.5004
  22007134.1774    6789081.80448   5251620.98747                  22007140.7984
        28.7504         28.2504
  22602691.0524    6968916.49547   5394368.72146                  22602697.7674
        23.0004         22.5004
  25269637.8024    1249364.87744    956309.49845                  25269641.3064
         7.2504          6.7504
  22387392.9974   -2770780.32547  -2096333.12246                  22387399.8924
        22.7504         24.0004
  24162134.9664   -2254602.16045  -1649111.88645                  24162144.4624
        10.7504         10.5004
  24503521.7714   -1840887.15844  -1285642.31645                  24503534.9814
         7.0004          8.5004
 98  6 11 20 28 45.0010000  0  8G 5G 6G30G10G13G17G26G23
  23919580.1614   10425816.82946   8037470.58046                  23919590.3604
        13.5004         14.7504
  21106698.4814   -1932980.96348  -1455341.22347                  21106704.1534
        30.5004         29.7504
  22017506.7004    6843589.36448   5294094.37147                  22017513.1924
        28.7504         28.2504
  22613132.9354    7023788.70047   5437126.26246                  22613139.4154
        23.0004         22.2504
  25273680.1774    1270607.62645    972862.22845                  25273686.8104
         8.0004          7.2504
  22385961.9894   -2778300.54447  -2102193.02346                  22385969.1654
        22.7504         24.2504
  24157832.9194   -2277209.98945  -1666728.24845                  24157842.4504
        10.5004         10.5004
  24496927.9894   -1875530.92544  -1312637.32545                  24496941.9854
         7.2504          8.2504
 98  6 11 20 29  0.0010000  0  8G 5G 6G30G10G13G17G26G23
  23932777.5054   10495169.63746   8091511.61646                  23932787.6694
        13.7504         14.5004
  21106301.5364   -1935067.65048  -1456967.21547                  21106307.0564
        30.7504         29.7504
  22027902.3174    6898217.35248   5336661.59747                  22027908.8454
        29.0004         28.2504
  22623596.6614    7078774.73847   5479972.52146                  22623603.2714
        23.7504         22.5004
  25277749.2314    1291991.52244    989525.04845                  25277755.3024
         6.7504          6.7504
  22384544.6144   -2785747.18747  -2107995.58946                  22384552.0714
        22.2504         24.2504
  24153540.5674   -2299764.34445  -1684302.97945                  24153549.6304
        10.5004          9.7504
  24490348.6304   -1910111.66844  -1339583.26145                  24490361.0214
         7.2504          9.0004
 98  6 11 20 29 15.0010000  0  8G 5G 6G30G10G13G17G26G23
  23945986.1924   10564581.71246   8145598.81246                  23945996.9194
        13.0004         14.2504
  21105924.0054   -1937050.96848  -1458512.65647                  21105929.4784
        30.7504         29.5004
  22038321.2004    6952970.01048   5379325.95947                  22038327.9034
        28.7504         28.2504
  22634082.2714    7133877.16147   5522909.45146                  22634088.4814
        23.5004         22.5004
  25281845.4504    1313518.66245   1006299.45545                  25281850.5714
         7.7504          6.7504
  22383142.3254   -2793115.95447  -2113737.47246                  22383149.7824
        22.5004         24.0004
  24149259.2864   -2322262.41745  -1701833.82445                  24149267.4584
        10.2504         10.0004
  24483780.1924   -1944625.61045  -1366477.10945                  24483792.3024
         7.5004          8.7504
 98  6 11 20 29 30.0010000  0  8G 5G 6G30G10G13G17G26G23
  23959206.4114   10634052.61646   8199731.88246                  23959217.1144
        13.2504         13.7504
  21105566.1224   -1938932.97048  -1459979.14747                  21105571.4664
        30.7504         30.0004
  22048764.4194    7007848.69148   5422088.53147                  22048771.1344
        28.5004         28.0004
  22644589.2864    7189092.67247   5565934.51346                  22644595.8604
        23.5004         22.5004
  25285969.2474    1335187.55444   1023184.31145                  25285976.6694
         6.7504          5.7504
  22381755.3644   -2800404.39247  -2119416.75946                  22381762.6464
        22.0004         24.0004
  24144989.7394   -2344700.10945  -1719317.65045                  24144999.2004
         9.7504         10.0004
  24477224.7634   -1979072.26744  -1393318.52445                  24477238.7124
         7.2504          8.2504
 98  6 11 20 29 45.0010000  0  8G 5G 6G30G10G13G17G26G23
  23972437.7714   10703585.53846   8253913.26546                  23972448.3684
        13.0004         14.5004
  21105227.4034   -1940711.99348  -1461365.39947                  21105232.7824
        31.2504         30.0004
  22059232.7944    7062860.71048   5464954.99747                  22059239.4274
        29.0004         28.2504
  22655118.6144    7244424.39647   5609050.12046                  22655124.9784
        23.2504         22.0004
  25290119.4034    1357002.99944   1040183.39845                  25290127.5404
         6.2504          6.5004
  22380385.1144   -2807606.01847  -2125028.40846                  22380392.3374
        22.2504         24.0004
  24140732.2944   -2367070.25545  -1736748.80745                  24140741.7314
        10.5004         11.0004
  24470683.5604   -2013447.76645  -1420104.53845                  24470697.4154
         7.5004          8.5004
 98  6 11 20 30  0.0010000  0  8G 5G 6G30G10G13G17G26G23
  23985680.8964   10773177.18746   8308140.39046                  23985692.3134
        13.5004         14.2504
  21104908.0754   -1942389.08748  -1462672.22247                  21104913.3844
        31.2504         30.0004
  22069726.2244    7118003.84948   5507923.63747                  22069732.7984
        28.2504         28.0004
  22665669.8104    7299870.76547   5652255.06646                  22665676.5834
        22.2504         22.0004
  25294299.4974    1378963.10045   1057295.22445                  25294307.6104
         7.7504          6.7504
  22379031.4504   -2814718.84847  -2130570.86346                  22379038.3564
        22.7504         23.7504
  24136487.4354   -2389376.38845  -1754130.11145                  24136496.9784
        10.5004         10.7504
  24464155.9194   -2047754.92045  -1446837.25845                  24464168.1344
         8.5004         10.0004
 98  6 11 20 30 15.0010000  0  8G 5G 6G30G10G13G17G26G23
  23998934.3024   10842824.09746   8362410.60246                  23998945.3214
        12.5004         13.2504
  21104608.8804   -1943961.37348  -1463897.38247                  21104614.2244
        31.0004         30.0004
  22080244.7634    7173278.72648   5550994.93247                  22080251.5484
        28.7504         28.0004
  22676243.9194    7355437.44547   5695553.76446                  22676250.9074
        22.0004         22.5004
  25298506.4894    1401070.92245   1074522.02945                  25298515.3994
         7.5004          5.7504
  22377695.2084   -2821741.81347  -2136043.29246                  22377702.3494
        22.7504         24.0004
  24132255.3494   -2411616.11245  -1771459.66445                  24132264.5174
        10.2504          9.7504
  24457639.3804   -2081994.04745  -1473516.98745                  24457650.7864
         7.5004          9.5004
 98  6 11 20 30 30.0010000  0  8G 5G 6G30G10G13G17G26G23
  24012196.8174   10912519.63646   8416718.69946                  24012207.2164
        13.0004         13.2504
  21104329.0604   -1945432.51648  -1465043.72347                  21104334.4504
        30.7504         30.0004
  22090787.3644    7228680.56248   5594165.15747                  22090794.0444
        28.7504         28.0004
  22686840.4194    7411123.27647   5738945.30346                  22686847.4074
        22.5004         22.5004
  25302740.8334    1423325.61644   1091863.36545                  25302750.8334
         7.2504          7.0004
  22376374.8494   -2828678.48447  -2141448.48446                  22376382.0014
        22.7504         24.0004
  24128035.7084   -2433790.13445  -1788738.03145                  24128045.5324
         9.7504          9.7504
  24451135.7634   -2116168.78145  -1500146.54345                  24451147.6144
         8.0004          9.2504
 98  6 11 20 30 45.0010000  0  8G 5G 6G30G10G13G17G26G23
  24025469.1144   10982265.04446   8471065.65246                  24025479.5364
        12.2504         13.2504
  21104068.8104   -1946800.84248  -1466109.94847                  21104074.3174
        30.7504         29.7504
  22101355.0134    7284213.54248   5637437.57147                  22101361.7744
        28.2504         27.7504
  22697460.5214    7466932.28447   5782432.83746                  22697467.8254
        22.7504         22.2504
  25307005.0674    1445730.48245   1109321.69645                  25307012.2784
         8.5004          7.0004
  22375071.7164   -2835527.93147  -2146785.70346                  22375078.7984
        23.0004         24.0004
  24123828.7314   -2455897.51045  -1805964.47345                  24123838.6614
        10.0004         10.7504
  24444645.8964   -2150279.34145  -1526726.07745                  24444659.0954
         7.7504          8.7504
 98  6 11 20 31  0.0010000  0  8G 5G 6G30G10G13G17G26G23
  24038750.5524   11052058.05746   8525449.67846                  24038761.4894
        12.2504         12.7504
  21103828.1224   -1948065.88348  -1467095.69547                  21103833.7244
        30.7504         29.7504
  22111947.7944    7339878.33348   5680812.69447                  22111954.5214
        28.5004         28.0004
  22708104.3644    7522866.37447   5826017.82946                  22708111.2244
        22.5004         22.2504
  25311297.3494    1468288.76145   1126899.56145                  25311303.0094
         7.7504          5.5004
  22373785.1304   -2842288.98547  -2152054.05146                  22373792.1654
        23.2504         24.2504
  24119635.2864   -2477935.11445  -1823136.53145                  24119645.3684
         9.7504         10.2504
  24438166.1924   -2184324.96145  -1553255.04545                  24438177.8334
         7.5004          9.2504
 98  6 11 20 31 15.0010000  0  8G 5G 6G30G10G13G17G26G23
  24052039.9974   11121896.65846   8579869.25446                  24052050.8064
        12.2504         13.0004
  21103606.7244   -1949229.55348  -1468002.44947                  21103612.1494
        31.2504         30.0004
  22122565.6384    7395675.67648   5724291.09847                  22122572.4704
        28.2504         27.7504
  22718771.7784    7578923.90047   5869699.00046                  22718778.5754
        23.7504         22.0004
  25315618.4034    1491003.22744   1144599.17645                  25315625.7904
         6.2504          6.5004
  22372515.6614   -2848958.65447  -2157251.18646                  22372522.5794
        23.2504         24.2504
  24115455.3724   -2499900.47445  -1840252.27845                  24115465.4664
        10.0004         10.2504
  24431700.6064   -2218303.22045  -1579731.45145                  24431713.2784
         8.2504          9.0004
 98  6 11 20 31 30.0010000  0  8G 5G 6G30G10G13G17G26G23
  24065339.5674   11191784.86746   8634327.48146                  24065350.8334
        12.2504         13.0004
  21103404.5834   -1950291.32448  -1468829.80347                  21103410.1384
        30.5004         29.5004
  22133208.6854    7451604.53348   5767871.98747                  22133215.3064
        28.5004         27.7504
  22729463.4814    7635107.93147   5913478.75546                  22729470.0324
        23.5004         22.0004
  25319972.7554    1513878.04345   1162423.66445                  25319980.3064
         7.5004          6.2504
  22371264.5134   -2855534.87547  -2162375.50346                  22371271.4784
        23.7504         24.2504
  24111289.4504   -2521791.83145  -1857310.38645                  24111298.1034
        10.5004         10.7504
  24425248.1144   -2252210.89045  -1606152.93445                  24425261.7004
         8.0004          9.2504
 98  6 11 20 31 45.0010000  0  8G 5G 6G30G10G13G17G26G23
  24078647.5214   11261718.70345   8688821.24546                  24078658.9854
        11.7504         12.5004
  21103221.3024   -1951253.90748  -1469579.86047                  21103226.8684
        30.2504         29.5004
  22143875.4664    7507658.06148   5811550.02047                  22143881.9584
        28.5004         27.7504
  22740177.9894    7691414.29047   5957353.83246                  22740184.2004
        23.5004         22.0004
  25324355.8804    1536910.62845   1180371.15145                  25324360.2394
         7.7504          6.7504
  22370029.4194   -2862025.39747  -2167433.04746                  22370036.3604
        23.7504         24.5004
  24107136.0134   -2543616.34345  -1874316.43645                  24107146.3294
         9.7504         10.7504
  24418807.4814   -2286055.09045  -1632524.90845                  24418818.6064
         8.0004          9.2504
 98  6 11 20 32  0.0010000  0  8G 5G 6G30G10G13G17G26G23
  24091966.4744   11331707.66445   8743357.99746                  24091977.5874
        11.7504         12.7504
  21103059.4584   -1952104.65848  -1470242.78547                  21103065.0954
        30.2504         29.7504
  22154566.4354    7563841.32848   5855329.14747                  22154573.2434
        28.0004         27.7504
  22750917.7084    7747851.25447   6001330.66246                  22750924.0134
        23.2504         21.7504
  25328770.2714    1560108.88844   1198447.71745                  25328777.2004
         7.2504          6.7504
  22368812.0444   -2868423.45947  -2172418.54146                  22368819.1034
        24.5004         24.7504
  24102996.0284   -2565369.62945  -1891266.94245                  24103006.5914
         9.5004         10.5004
  24412380.8254   -2319828.13845  -1658841.44145                  24412392.3254
         8.7504          9.2504
 98  6 11 20 32 15.0010000  0  8G 5G 6G30G10G13G17G26G23
  24105294.1854   11401744.40645   8797931.93346                  24105305.2634
        11.2504         12.2504
  21102917.1384   -1952850.49448  -1470823.95247                  21102922.7984
        30.0004         29.5004
  22165280.6384    7620143.85147   5899201.20147                  22165287.7084
        27.7504         27.7504
  22761680.1464    7804408.60547   6045401.30846                  22761686.1694
        23.0004         21.7504
  25333213.1924    1583461.12744   1216644.28345                  25333219.7314
         6.5004          6.5004
  22367609.9274   -2874738.14447  -2177339.06346                  22367616.8454
        23.7504         24.7504
  24098869.1224   -2587057.43445  -1908166.45245                  24098879.0994
        10.2504         10.5004
  24405966.6534   -2353537.76545  -1685108.60245                  24405978.5524
         8.5004          9.5004
 98  6 11 20 32 30.0010000  0  8G 5G 6G30G10G13G17G26G23
  24118630.1774   11471830.69745   8852544.50746                  24118640.5284
        11.2504         12.7504
  21102795.0914   -1953493.60148  -1471325.07647                  21102800.8454
        30.0004         29.2504
  22176017.0214    7676564.80347   5943165.53247                  22176023.8924
        27.7504         27.5004
  22772465.1614    7861082.40547   6089562.70046                  22772471.0794
        23.2504         21.5004
  25337686.5054    1606965.12444   1234959.06445                  25337692.9034
         7.2504          6.7504
  22366424.1614   -2880971.66447  -2182196.34746                  22366431.0674
        24.5004         24.7504
  24094754.7084   -2608675.57345  -1925011.65645                  24094763.5954
        10.5004         10.7504
  24399564.0054   -2387183.42345  -1711325.89045                  24399575.4464
         8.2504          9.2504
 98  6 11 20 32 45.0010000  0  8G 5G 6G30G10G13G17G26G23
  24131978.5914   11541971.32645   8907199.39346                  24131990.3134
        11.7504         12.5004
  21102692.6774   -1954032.43548  -1471744.94647                  21102698.2784
        30.0004         29.2504
  22186777.7474    7733111.46347   5987227.82247                  22186784.5564
        27.7504         27.2504
  22783271.9584    7917874.02947   6133815.90346                  22783278.1344
        23.0004         21.2504
  25342189.0214    1630626.69644   1253396.59145                  25342194.3064
         6.7504          6.2504
  22365254.2554   -2887118.90347  -2186986.38646                  22365261.0874
        24.5004         24.7504
  24090656.0134   -2630219.25945  -1941798.86545                  24090664.9464
        10.5004         11.2504
  24393174.3884   -2420757.64645  -1737487.50845                  24393185.5244
         8.2504          9.2504
 98  6 11 20 33  0.0010000  0  8G 5G 6G30G10G13G17G26G23
  24145334.4354   11612157.09045   8961889.48146                  24145344.8564
        11.7504         13.0004
  21102607.9194   -1954475.91148  -1472090.51947                  21102613.6384
        29.5004         29.2504
  22197560.5834    7789774.84147   6031381.06647                  22197567.4154
        27.2504         27.2504
  22794100.1464    7974776.04047   6178155.11246                  22794106.4854
        23.2504         21.7504
  25346719.5284    1654436.98744   1271950.15245                  25346726.0564
         7.0004          6.2504
  22364099.4194   -2893188.17947  -2191715.69446                  22364106.3134
        24.0004         25.0004
  24086568.4424   -2651696.91645  -1958534.63345                  24086577.6814
        11.2504         11.5004
  24386797.8804   -2454266.33345  -1763598.05845                  24386809.0404
         8.0004          9.5004
 98  6 11 20 33 15.0010000  0  8G 5G 6G30G10G13G17G26G23
  24158700.2554   11682395.31945   9016620.44546                  24158712.4114
        11.2504         12.5004
  21102543.8174   -1954813.14348  -1472353.29047                  21102549.4544
        30.0004         29.2504
  22208366.2864    7846559.44847   6075628.77547                  22208373.2514
        26.7504         26.7504
  22804950.3804    8031793.48247   6222584.28746                  22804956.9424
        23.0004         21.7504
  25351280.1534    1678402.82144   1290624.78345                  25351285.9784
         6.5004          6.5004
  22362960.2634   -2899174.33447  -2196380.21446                  22362967.1464
        24.7504         24.7504
  24082495.3414   -2673101.49445  -1975213.41845                  24082504.9894
        10.5004         11.5004
  24380436.0444   -2487699.63845  -1789649.91045                  24380448.9504
         8.0004          8.7504
 98  6 11 20 33 30.0010000  0  8G 5G 6G30G10G13G17G26G23
  24172076.4424   11752686.75345   9071392.85946                  24172088.2354
        11.5004         12.5004
  21102500.9424   -1955038.67648  -1472529.02747                  21102506.5214
        29.2504         28.7504
  22219195.3414    7903467.34447   6119972.55047                  22219202.2244
        26.2504         26.7504
  22815822.4894    8088926.38247   6267103.42146                  22815828.9354
        23.0004         21.5004
  25355869.8174    1702523.90043   1309420.36845                  25355873.8374
         5.7504          5.7504
  22361836.0914   -2905080.10447  -2200982.09546                  22361843.2784
        24.2504         24.7504
  24078436.2784   -2694435.03245  -1991836.88445                  24078446.2554
        10.5004         11.5004
  24374087.7634   -2521057.11645  -1815642.61245                  24374098.3724
         8.2504          9.2504
 98  6 11 20 33 45.0010000  0  8G 5G 6G30G10G13G17G26G23
  24185461.6384   11823028.51045   9126204.49545                  24185472.6924
        11.0004         11.7504
  21102479.7164   -1955152.02248  -1472617.35247                  21102485.2004
        29.5004         29.0004
  22230048.0054    7960499.19547   6164412.90947                  22230055.0174
        26.0004         26.2504
  22826716.3494    8146175.18247   6311712.85846                  22826723.0874
        23.2504         21.5004
  25360490.5604    1726798.14044   1328335.39045                  25360498.0754
         7.2504          6.2504
  22360727.6384   -2910906.36247  -2205522.03346                  22360734.6144
        24.5004         25.2504
  24074389.5914   -2715698.59145  -2008405.81645                  24074399.0994
        10.7504         11.0004
  24367753.6694   -2554340.35845  -1841577.51845                  24367766.0604
         8.7504          9.2504
 98  6 11 20 34  0.0010000  0  8G 5G 6G30G10G13G17G26G23
  24198854.5914   11893404.89345   9181043.11446                  24198865.9384
        10.5004         12.2504
  21102476.3724   -1955167.55648  -1472629.45347                  21102481.8454
        30.0004         29.0004
  22240922.3334    8017643.04147   6208940.53847                  22240929.3334
        26.5004         26.2504
  22837630.0054    8203525.91747   6356401.73346                  22837636.5214
        24.0004         21.5004
  25365135.0054    1751212.29944   1347359.44545                  25365140.4194
         7.0004          6.7504
  22359631.3564   -2916667.12647  -2210010.92146                  22359638.4154
        24.5004         25.2504
  24070353.9814   -2736903.74745  -2024929.25146                  24070363.5834
        10.5004         12.0004
  24361432.2634   -2587562.58445  -1867464.87145                  24361443.0014
         8.2504          9.5004
 98  6 11 20 34 15.0010000  0  8G 5G 6G30G10G13G17G26G23
  24212254.0054   11963819.99445   9235911.87946                  24212265.4704
        11.0004         12.2504
  21102492.7784   -1955082.91448  -1472563.50347                  21102498.4034
        29.7504         28.5004
  22251819.3564    8074906.97747   6253561.73947                  22251826.2284
        26.5004         26.2504
  22848564.3494    8260986.27147   6401176.03146                  22848571.1574
        23.5004         21.2504
  25369808.9354    1775771.37144   1366496.35445                  25369816.6734
         6.7504          6.2504
  22358549.5834   -2922353.59447  -2214441.92846                  22358556.5834
        25.0004         25.2504
  24066331.5364   -2758041.42745  -2041400.08145                  24066341.6884
        10.5004         11.0004
  24355122.7474   -2620716.71145  -1893299.16645                  24355133.4974
         8.7504          9.2504
 98  6 11 20 34 30.0010000  0  8G 5G 6G30G10G13G17G26G23
  24225662.4894   12034279.40945   9290815.19046                  24225674.4234
        10.7504         12.2504
  21102528.7244   -1954893.05848  -1472415.56447                  21102534.4894
        29.0004         28.7504
  22262740.6854    8132298.59447   6298282.43947                  22262747.3414
        26.2504         25.7504
  22859521.6774    8318566.65647   6446043.84346                  22859528.3804
        22.7504         21.0004
  25374511.9354    1800483.35545   1385752.50045                  25374518.0054
         7.5004          6.7504
  22357482.7864   -2927958.47447  -2218809.35746                  22357489.8334
        24.7504         25.2504
  24062323.7084   -2779104.79845  -2057813.05545                  24062332.7944
        10.5004         11.0004
  24348828.3644   -2653794.94145  -1919074.32945                  24348839.5364
         9.0004          9.2504
 98  6 11 20 34 45.0010000  0  8G 5G 6G30G10G13G17G26G23
  24239077.1464   12104777.38545   9345748.55146                  24239089.4784
        10.7504         12.2504
  21102584.1304   -1954600.32148  -1472187.46547                  21102589.8604
        29.2504         28.5004
  22273685.9584    8189816.24047   6343101.34546                  22273692.5094
        26.5004         25.5004
  22870501.3414    8376266.01047   6491004.36446                  22870507.9274
        22.5004         21.0004
  25379243.6144    1825347.46144   1405127.09545                  25379251.5404
         7.2504          6.7504
  22356431.1614   -2933485.01947  -2223115.74347                  22356438.3024
        25.2504         25.7504
  24058328.0604   -2800100.94045  -2074173.59245                  24058338.5754
        10.0004         11.5004
  24342547.2944   -2686800.30545  -1944792.72145                  24342557.8684
         9.2504          9.2504
 98  6 11 20 35  0.0010000  0  8G 5G 6G30G10G13G17G26G23
  24252501.0364   12175319.01545   9400715.92346                  24252512.3024
        10.7504         12.2504
  21102661.6854   -1954194.98348  -1471871.61647                  21102667.6034
        28.7504         28.5004
  22284656.3644    8247467.11047   6388024.04946                  22284663.1854
        25.7504         25.5004
  22881505.5524    8434093.69647   6536064.88646                  22881512.1854
        22.0004         20.7504
  25384003.5444    1850369.29143   1424624.63545                  25384013.0054
         5.5004          7.2504
  22355395.5754   -2938927.81347  -2227356.87047                  22355402.4354
        25.2504         25.7504
  24054346.1304   -2821026.36545  -2090479.05545                  24054355.1694
        11.0004         10.7504
  24336282.0214   -2719727.00645  -1970449.78545                  24336292.9114
         9.7504         10.0004
 98  6 11 20 35 15.0010000  0  8G 5G 6G30G10G13G17G26G23
  24265931.1614   12245892.14145   9455707.84845                  24265942.7204
        10.0004         11.7504
  21102758.4664   -1953685.48348  -1471474.60447                  21102764.3254
        29.0004         28.5004
  22295649.4194    8305235.29647   6433038.17946                  22295656.1104
        25.7504         25.5004
  22892531.2634    8492035.37247   6581214.23246                  22892537.6384
        21.5004         20.7504
  25388792.2554    1875532.98342   1444232.70245                  25388794.7864
         4.7504          5.7504
  22354372.3254   -2944303.74047  -2231545.89747                  22354379.2784
        25.2504         26.0004
  24050375.1854   -2841894.98645  -2106740.25745                  24050384.9854
        10.7504         11.7504
  24330028.1614   -2752590.15445  -1996057.35345                  24330039.2514
        10.0004         10.2504
 98  6 11 20 35 30.0010000  0  8G 5G 6G30G10G13G17G26G23
  24279368.5214   12316509.14145   9510733.95846                  24279380.4424
        10.2504         12.2504
  21102877.7864   -1953058.94048  -1470986.38747                  21102883.5634
        29.2504         28.5004
  22306667.7394    8363135.20047   6478154.94346                  22306674.4074
        26.2504         25.2504
  22903581.2714    8550101.94947   6626460.90346                  22903587.8564
        21.7504         20.2504
  25393611.4504    1900851.79643   1463961.60445                  25393616.5364
         5.7504          5.7504
  22353364.4274   -2949599.32947  -2235672.31746                  22353371.3454
        25.0004         25.5004
  24046417.2784   -2862691.07445  -2122944.92845                  24046425.8964
        10.7504         11.0004
  24323788.5834   -2785379.10945  -2021607.10645                  24323798.9934
        10.0004         10.5004
 98  6 11 20 35 45.0020000  0  8G 5G 6G30G10G13G17G26G23
  24292814.8774   12387168.74045   9565793.24345                  24292826.5764
        10.2504         11.5004
  21103017.0184   -1952326.79148  -1470415.89047                  21103022.6784
        29.2504         28.7504
  22317710.4474    8421164.41347   6523372.46746                  22317717.1974
        25.5004         25.2504
  22914654.3384    8608292.24747   6671803.97446                  22914660.7954
        22.0004         20.5004
  25398456.7364    1926320.90743   1483807.66245                  25398464.3694
         6.0004          7.0004
  22352371.5964   -2954818.41047  -2239739.12147                  22352378.2644
        25.0004         25.7504
  24042472.2444   -2883419.85545  -2139097.17445                  24042480.8854
        11.0004         11.5004
  24317561.4004   -2818102.83845  -2047106.01145                  24317572.2684
        10.0004         10.2504
 98  6 11 20 36  0.0020000  0  8G 5G 6G30G10G13G17G26G23
  24306268.5334   12457864.88845   9620881.02346                  24306280.2564
        10.7504         12.0004
  21103176.1664   -1951490.29348  -1469764.06547                  21103181.8034
        29.5004         28.7504
  22328775.5184    8479311.98647   6568682.22546                  22328782.1624
        26.7504         25.5004
  22925749.6434    8666598.73547   6717237.58846                  22925756.0414
        21.7504         20.2504
  25403331.2834    1951937.72143   1503768.76245                  25403341.9514
         6.0004          6.5004
  22351393.3074   -2959958.87647  -2243744.66947                  22351400.3424
        25.5004         25.7504
  24038542.0334   -2904076.25845  -2155192.99945                  24038550.0764
        11.5004         11.0004
  24311346.9324   -2850756.83745  -2072550.61745                  24311357.6234
        10.0004         10.7504
 98  6 11 20 36 15.0020000  0  8G 5G 6G30G10G13G17G26G23
  24319724.1274   12528575.72045   9675980.24245                  24319736.0964
         9.7504         11.5004
  21103349.8934   -1950577.97448  -1469053.17347                  21103355.4124
        30.0004         28.5004
  22339857.9714    8537550.56547   6614062.89746                  22339864.6974
        25.5004         25.0004
  22936862.2444    8724993.93347   6762740.34046                  22936868.7604
        22.5004         20.0004
  25408229.9244    1977672.28944   1523821.74145                  25408235.1624
         7.2504          6.7504
  22350424.5184   -2965050.03947  -2247711.79747                  22350431.3264
        25.7504         26.0004
  24034619.7914   -2924689.11746  -2171254.90246                  24034627.4004
        12.0004         12.2504
  24305140.6664   -2883372.98845  -2097965.70545                  24305152.8694
        10.0004         10.7504
 98  6 11 20 36 30.0020000  0  8G 5G 6G30G10G13G17G26G23
  24333188.0964   12599326.75245   9731110.79046                  24333199.5024
        10.7504         12.2504
  21103542.9004   -1949563.39048  -1468262.59247                  21103548.5024
        29.7504         28.7504
  22350962.5804    8595905.85847   6659534.50546                  22350969.2834
        25.2504         24.7504
  22947995.7054    8783502.05947   6808331.06946                  22948002.1864
        22.0004         19.7504
  25413152.8544    2003549.21144   1543985.55145                  25413158.7834
         6.2504          6.5004
  22349469.8774   -2970066.02347  -2251620.34647                  22349476.6504
        25.5004         26.0004
  24030710.6194   -2945231.88545  -2187262.21446                  24030718.9324
        11.5004         12.2504
  24298946.9244   -2915922.60645  -2123328.93545                  24298958.0844
        10.2504         10.2504
 98  6 11 20 36 45.0020000  0  7G 5G 6G30G10G17G26G23
  24346662.5644   12670137.15445   9786287.59245                  24346674.2294
        10.7504         11.5004
  21103759.2994   -1948426.96548  -1467377.07247                  21103765.0064
        29.5004         28.5004
  22362092.5964    8654394.40147   6705109.94746                  22362099.2874
        25.2504         24.7504
  22959153.4084    8842136.18147   6854019.97446                  22959159.6314
        22.0004         20.0004
  22348532.7444   -2974990.50247  -2255457.59147                  22348539.4244
        25.5004         25.7504
  24026818.2524   -2965685.18446  -2203199.79246                  24026826.8574
        13.0004         12.0004
  24292769.0254   -2948386.92445  -2148625.73645                  24292779.4244
        10.7504         11.5004
 98  6 11 20 37  0.0020000  0  7G 5G 6G30G10G17G26G23
  24360148.2994   12741001.76845   9841506.62845                  24360160.3614
        10.7504         11.7504
  21103998.1664   -1947171.63348  -1466398.89347                  21104003.8614
        29.2504         28.5004
  22373247.4324    8713012.55347   6750786.38546                  22373254.2054
        26.2504         25.0004
  22970333.4474    8900888.14147   6899800.71746                  22970340.1154
        21.7504         20.2504
  22347612.2214   -2979828.48247  -2259227.43447                  22347618.9124
        25.7504         25.7504
  24022943.3304   -2986049.62146  -2219068.13345                  24022953.0374
        12.5004         11.7504
  24286606.8074   -2980770.14645  -2173859.32445                  24286617.5684
        10.5004         11.0004
 98  6 11 20 37 15.0020000  0  7G 5G 6G30G10G17G26G23
  24373643.3384   12811918.88745   9896766.56945                  24373654.9434
        11.2504         11.2504
  21104259.0414   -1945800.40048  -1465330.40547                  21104264.5614
        29.5004         28.5004
  22384425.2364    8771753.40447   6796558.43146                  22384431.9984
        25.5004         25.0004
  22981535.2214    8959754.28447   6945670.42246                  22981541.8184
        21.5004         20.0004
  22346707.6974   -2984581.81647  -2262931.32346                  22346714.6504
        25.7504         25.5004
  24019085.2214   -3006323.00546  -2234865.52046                  24019094.5294
        12.2504         12.2504
  24280459.3854   -3013073.69345  -2199030.81745                  24280469.9824
        10.7504         11.0004
 98  6 11 20 37 30.0020000  0  7G 5G 6G30G10G17G26G23
  24387144.6504   12882873.37345   9952055.65145                  24387156.3734
        10.7504         11.5004
  21104538.9554   -1944329.67948  -1464184.39247                  21104544.4514
        29.0004         28.5004
  22395623.5414    8830600.56147   6842413.31346                  22395630.1864
        25.0004         24.5004
  22992755.6354    9018718.30847   6991616.39546                  22992762.6234
        20.7504         19.5004
  22345816.9634   -2989262.07347  -2266578.26547                  22345823.8814
        25.2504         25.7504
  24015242.1974   -3026517.49446  -2250601.42446                  24015249.6544
        13.0004         12.5004
  24274324.2364   -3045313.46345  -2224152.65445                  24274334.3304
        10.5004         11.2504
 98  6 11 20 37 45.0020000  0  7G 5G 6G30G10G17G26G23
  24400657.4474   12953876.10345  10007382.30345                  24400668.8774
        10.7504         11.5004
  21104839.5184   -1942749.21248  -1462952.86247                  21104845.0964
        29.5004         28.2504
  22406843.9944    8889564.92047   6888359.52046                  22406850.6974
        25.0004         24.5004
  23003997.3544    9077792.57647   7037648.28046                  23004004.2484
        21.2504         19.2504
  22344943.2214   -2993853.96447  -2270156.34447                  22344950.3614
        24.7504         25.7504
  24011415.7994   -3046623.34146  -2266268.25446                  24011424.4984
        12.7504         12.5004
  24268203.6504   -3077476.20845  -2249214.43545                  24268214.5294
        10.5004         10.7504
 98  6 11 20 38  0.0020000  0  7G 5G 6G30G10G17G26G23
  24414175.5884   13024914.72445  10062736.92345                  24414187.7564
        10.7504         11.0004
  21105159.2294   -1941070.05248  -1461644.42647                  21105164.6664
        29.5004         28.5004
  22418084.4554    8948632.47647   6934386.14246                  22418091.2294
        25.0004         24.7504
  23015256.9714    9136962.50547   7083754.71546                  23015263.5574
        20.5004         19.5004
  22344083.7684   -2998369.87347  -2273675.22547                  22344091.0254
        25.0004         25.7504
  24007604.1044   -3066655.63046  -2281877.78546                  24007613.0494
        13.0004         12.5004
  24262095.4634   -3109575.05645  -2274226.40745                  24262106.0024
        10.2504         11.0004
 98  6 11 20 38 15.0020000  0  7G 5G 6G30G10G17G26G23
  24427700.6584   13095992.08345  10118121.76045                  24427713.2364
        10.0004         10.7504
  21105499.5104   -1939280.89248  -1460250.27947                  21105505.2994
        28.7504         28.5004
  22429345.5184    9007811.02747   6980499.25246                  22429352.4364
        24.5004         24.5004
  23026535.5494    9196231.73647   7129938.51046                  23026541.9944
        21.0004         19.5004
  22343239.9004   -3002804.77847  -2277130.97947                  22343246.8184
        25.2504         25.7504
  24003807.5574   -3086605.26846  -2297422.91146                  24003816.4324
        12.2504         12.5004
  24256000.2914   -3141603.63745  -2299183.67845                  24256010.2684
         9.7504         11.2504
 98  6 11 20 38 30.0020000  0  7G 5G 6G30G10G17G26G23
  24441233.0414   13167103.19345  10173532.83945                  24441243.6044
        10.7504         10.7504
  21105860.9714   -1937381.89948  -1458770.54747                  21105866.7014
        29.0004         28.5004
  22440628.4394    9067101.83847   7026699.83846                  22440635.4284
        24.7504         24.5004
  23037832.6274    9255600.50047   7176199.87346                  23037838.9434
        20.5004         19.2504
  22342411.1354   -3007159.05747  -2280523.91947                  22342418.1354
        25.2504         25.7504
  24000026.7754   -3106473.61746  -2312904.70346                  24000035.7914
        12.7504         12.7504
  24249920.0254   -3173559.53645  -2324084.26645                  24249929.4514
        10.0004         11.2504
 98  6 11 20 38 45.0020000  0  7G 5G 6G30G10G17G26G23
  24454770.6894   13238245.02145  10228967.90045                  24454781.3694
         9.7504         10.2504
  21106242.9244   -1935374.00048  -1457205.94947                  21106248.7484
        29.0004         28.5004
  22451932.2914    9126502.48547   7072986.01046                  22451939.2794
        25.2504         24.7504
  23049149.5644    9315068.73647   7222538.73746                  23049155.7644
        20.5004         19.5004
  22341597.3224   -3011435.30447  -2283856.04447                  22341604.3814
        25.0004         26.0004
  23996260.2994   -3126263.70846  -2328325.46446                  23996269.3854
        12.2504         12.5004
  24243851.2684   -3205444.27445  -2348929.43845                  24243860.5764
        10.0004         11.0004
 98  6 11 20 39  0.0020000  0  7G 5G 6G30G10G17G26G23
  24468314.3144   13309412.90945  10284423.26345                  24468325.9084
        10.0004         10.5004
  21106644.8854   -1933262.05648  -1455560.27847                  21106650.5924
        29.5004         28.7504
  22463255.3544    9186007.27847   7119353.33946                  22463262.2834
        25.5004         24.2504
  23060484.2524    9374632.80247   7268952.26946                  23060490.6624
        21.5004         19.0004
  22340797.8544   -3015637.85047  -2287130.74647                  22340804.7484
        25.5004         26.0004
  23992507.6584   -3145982.26646  -2343690.53946                  23992515.5844
        12.2504         12.5004
  24237796.2134   -3237266.26545  -2373725.66945                  24237805.9324
        10.0004         10.5004
 98  6 11 20 39 15.0020000  0  7G 5G 6G30G10G17G26G23
  24481864.5804   13380622.66045  10339911.24745                  24481875.5294
         9.0004         10.0004
  21107069.1504   -1931031.74348  -1453822.37147                  21107074.9864
        29.2504         28.5004
  22474601.1664    9245630.21247   7165812.72046                  22474608.1784
        24.5004         24.2504
  23071840.4944    9434310.46647   7315454.33046                  23071847.1974
        20.7504         19.2504
  22340015.1044   -3019751.58747  -2290336.24547                  22340021.8894
        26.2504         26.2504
  23988771.7604   -3165615.21946  -2358988.89546                  23988780.7174
        12.5004         12.7504
  24231755.5184   -3269007.72545  -2398459.18945                  24231765.3184
        10.5004         11.2504
 98  6 11 20 39 30.0020000  0  7G 5G 6G30G10G17G26G23
  24495422.0724   13451863.92145  10395423.77745                  24495433.1624
         9.0004         10.0004
  21107513.4164   -1928697.46048  -1452003.44947                  21107519.1234
        29.5004         28.7504
  22485967.0574    9305358.01647   7212353.81646                  22485973.9984
        24.7504         24.2504
  23083215.8224    9494088.61747   7362034.68946                  23083222.4794
        21.2504         18.7504
  22339246.6044   -3023789.10547  -2293482.34947                  22339253.6624
        26.0004         26.2504
  23985049.7134   -3185175.90146  -2374230.91246                  23985059.1744
        12.2504         12.7504
  24225728.7834   -3300680.54245  -2423139.21445                  24225738.1274
        10.2504         10.5004
 98  6 11 20 39 45.0020000  0  7G 5G 6G30G10G17G26G23
  24508985.2364   13523140.13345  10450963.55245                  24508997.8734
         9.0004         10.2504
  21107979.0024   -1926252.89248  -1450098.59847                  21107984.6504
        29.7504         29.0004
  22497354.2134    9365197.44147   7258981.89546                  22497361.4824
        25.0004         24.5004
  23094611.1354    9553971.77247   7408696.86146                  23094617.8854
        21.2504         20.0004
  22338493.6044   -3027745.73847  -2296565.43047                  22338500.4754
        25.2504         26.0004
  23981341.4714   -3204662.56845  -2389415.27846                  23981350.8264
        11.5004         12.0004
  24219715.9944   -3332277.22045  -2447759.90445                  24219725.3504
        10.0004         10.7504
 98  6 11 20 40  0.0020000  0  7G 5G 6G30G10G17G26G23
  24522554.6664   13594447.59445  10506527.64245                  24522567.8424
         8.2504         10.0004
  21108464.1114   -1923701.72648  -1448110.67347                  21108469.7364
        29.5004         29.0004
  22508762.2834    9425146.50047   7305695.39046                  22508769.6004
        25.2504         24.7504
  23106025.7834    9613955.61847   7455437.53846                  23106032.8774
        20.2504         19.5004
  22337755.1664   -3031625.90247  -2299588.92647                  22337762.0494
        25.5004         26.0004
  23977647.1354   -3224077.25945  -2404543.55945                  23977656.2444
        11.5004         11.7504
  24213717.4244   -3363799.20245  -2472322.39545                  24213726.7684
        10.0004         10.7504
 98  6 11 20 40 15.0020000  0  7G 5G 6G30G10G17G26G23
  24536129.6354   13665784.77745  10562114.90145                  24536140.8654
         9.2504         10.2504
  21108969.6274   -1921045.32348  -1446040.74847                  21108975.2524
        30.0004         29.0004
  22520190.9864    9485205.37947   7352494.47546                  22520198.0804
        25.0004         23.7504
  23117459.7364    9674040.74847   7502257.07046                  23117466.6784
        20.0004         17.7504
  22337030.9794   -3035432.01847  -2302554.71947                  22337038.0024
        25.5004         26.0004
  23973966.7294   -3243416.05445  -2419612.69745                  23973975.2754
        11.7504         11.7504
  24207732.8144   -3395249.19645  -2496828.78945                  24207742.3224
        10.0004         11.0004
 98  6 11 20 40 30.0020000  0  7G 5G 6G30G10G17G26G23
  24549710.6584   13737155.57945  10617728.39045                  24549722.5334
         9.0004         11.0004
  21109495.5804   -1918282.00448  -1443887.51247                  21109501.2524
        30.0004         29.0004
  22531641.4864    9545376.87647   7399381.31746                  22531648.6394
        24.7504         25.0004
  23128913.7754    9734232.27447   7549159.53046                  23128920.9284
        20.0004         20.0004
  22336321.2684   -3039161.62147  -2305460.88547                  22336328.4204
        25.5004         26.0004
  23970301.0104   -3262676.91545  -2434621.10845                  23970309.8734
        11.0004         11.7504
  24201761.9864   -3426621.32345  -2521274.50545                  24201771.5294
         9.7504         10.5004
 98  6 11 20 40 45.0020000  0  7G 5G 6G30G10G17G26G23
  24563300.7834   13808566.73245  10673373.28945                  24563313.9364
         9.0004         10.0004
  21110041.6824   -1915411.99248  -1441651.14247                  21110047.3894
        29.7504         29.0004
  22543113.1114    9605661.50547   7446356.29146                  22543120.1934
        25.2504         24.2504
  23140388.9794    9794534.28447   7596148.10646                  23140395.6354
        20.5004         19.2504
  22335626.5184   -3042811.47447  -2308304.91647                  22335633.6824
        25.5004         25.7504
  23966650.7914   -3281859.29645  -2449568.37245                  23966658.9864
        11.5004         11.2504
  24195807.7914   -3457914.08745  -2545658.37845                  24195817.7214
        10.2504         10.7504
 98  6 11 20 41  0.0020000  0  7G 5G 6G30G10G17G26G23
  24576896.9244   13880014.58145  10729046.80045                  24576909.1864
         9.2504         10.2504
  21110607.3304   -1912438.69748  -1439334.29347                  21110613.1194
        29.7504         29.0004
  22554605.3074    9666052.89647   7493414.47946                  22554612.2484
        24.5004         25.0004
  23151883.9394    9854940.83347   7643218.09546                  23151890.2094
        20.5004         20.0004
  22334946.2054   -3046386.52847  -2311090.66146                  22334953.2054
        25.2504         25.5004
  23963015.6744   -3300965.40946  -2464456.18845                  23963022.8034
        12.0004         11.2504
  24189866.7834   -3489134.09345  -2569985.56845                  24189877.3114
        10.5004         10.5004
 98  6 11 20 41 15.0020000  0  7G 5G 6G30G10G17G26G23
  24590500.5574   13951501.87945  10784751.03945                  24590511.9164
         9.7504          9.5004
  21111193.8074   -1909357.22148  -1436933.14047                  21111199.4554
        30.0004         29.0004
  22566118.9474    9726555.55647   7540559.34846                  22566126.1234
        25.2504         24.2504
  23163399.1114    9915453.21147   7690370.61446                  23163405.1934
        20.7504         18.5004
  22334281.7914   -3049879.93447  -2313812.78947                  22334288.7444
        25.7504         25.7504
  23959395.2604   -3319989.07345  -2479279.77845                  23959402.0214
        11.7504         11.2504
  24183940.6894   -3520276.28145  -2594252.11745                  24183950.1274
        10.0004         10.5004
 98  6 11 20 41 30.0020000  0  7G 5G 6G30G10G17G26G23
  24604110.7524   14023024.07245  10840482.48945                  24604123.5184
         9.5004         10.0004
  21111800.5964   -1906169.38148  -1434449.10747                  21111806.2794
        30.0004         29.0004
  22577652.5414    9787164.97047   7587787.37946                  22577659.7524
        24.7504         24.2504
  23174933.6974    9976067.19647   7737602.37946                  23174940.0024
        20.5004         19.7504
  22333631.8774   -3053294.96747  -2316473.84947                  22333638.6504
        26.0004         25.7504
  23955790.5494   -3338932.69645  -2494041.00145                  23955797.8894
        11.5004         11.2504
  24178028.7444   -3551343.98645  -2618460.62745                  24178038.6394
        10.7504         10.7504
 98  6 11 20 41 45.0020000  0  7G 5G 6G30G10G17G26G23
  24617727.0414   14094577.61245  10896238.32445                  24617738.5534
         9.7504          9.5004
  21112428.1894   -1902870.96748  -1431878.92347                  21112433.8504
        30.0004         29.0004
  22589206.2754    9847881.12247   7635098.60046                  22589213.6624
        25.0004         25.0004
  23186487.3074   10036781.97947
        20.2504
  22332997.2994   -3056628.66947  -2319071.54047                  22333004.0724
        25.5004         25.7504
  23952200.5574   -3357796.85945  -2508740.27245                  23952209.3144
        11.7504         11.2504
  24172130.1744   -3582341.92345  -2642614.77645                  24172140.8074
        11.0004         10.5004
 98  6 11 20 42  0.0020000  0  7G 5G 6G30G10G17G26G23
  24631347.0334   14166151.79345  10952010.28845                  24631359.0494
         9.0004          9.2504
  21113075.5804   -1899469.44148  -1429228.37947                  21113081.3114
        30.0004         29.0004
  22600778.8304    9908694.87847   7682485.96846                  22600786.0414
        25.2504         22.7504
  23198058.1434   10097587.60447
        21.2504
  22332376.6354   -3059891.47547  -2321613.97546                  22332383.3854
        25.7504         25.5004
  23948624.0184   -3376590.92145  -2523384.95546                  23948632.1194
        11.5004         12.0004
  24166242.0804   -3613282.28845  -2666724.06445                  24166251.9394
        11.0004         11.2504
 98  6 11 20 42 15.0020000  0  7G 5G 6G30G10G17G26G23
  24644973.7834   14237757.08345  11007806.46045                  24644985.0844
         9.7504          9.0004
  21113744.3074   -1895955.72948  -1426490.42247                  21113749.9554
        30.2504         29.2504
  22612371.5184    9969614.33347   7729955.60546                  22612378.4594
        25.0004         23.7504
  23209647.9244   10158493.11547     15824.27156                  23209653.3034
        21.0004         17.7504
  22331770.4634   -3063075.17747  -2324094.77046                  22331777.2954
        25.0004         25.2504
  23945063.2134   -3395303.79445  -2537966.37445                  23945071.9824
        11.7504         11.7504
  24160366.7604   -3644157.73045  -2690782.74245                  24160377.5924
        11.0004         11.0004
 98  6 11 20 42 30.0020000  0  7G 5G 6G30G10G17G26G23
  24658604.6434   14309390.64545  11063624.64845                  24658616.0614
         8.7504          8.7504
  21114433.8774   -1892331.04548  -1423665.99447                  21114439.4904
        30.5004         29.5004
  22623983.0574   10030632.98047   7777502.54846                  22623989.7834
        24.7504         24.0004
  23221256.1974   10219493.73947     63357.20346                  23221262.0334
        21.2504         17.7504
  22331178.9634   -3066184.13347  -2326517.33546                  22331185.5254
        26.0004         25.2504
  23941516.4714   -3413940.62045  -2552488.51946                  23941524.4084
        11.7504         12.0004
  24154503.2364   -3674969.24745  -2714791.63945                  24154512.3934
        11.2504         11.2504
 98  6 11 20 42 45.0020000  0  7G 5G 6G30G10G17G26G23
  24672241.9714   14381049.55045  11119462.58945                  24672252.6154
         9.2504          9.0004
  21115144.2134   -1888597.32048  -1420756.59947                  21115149.7324
        30.5004         29.2504
  22635612.3694   10091744.88547   7825122.16346                  22635619.2994
        25.0004         23.7504
  23232881.1354   10280584.76747    110960.56646                  23232887.8264
        20.2504         18.2504
  22330600.9864   -3069220.96147  -2328883.68446                  22330607.9754
        24.7504         25.2504
  23937983.1824   -3432507.73245  -2566956.33246                  23937991.6004
        11.5004         12.2504
  24148651.9634   -3705717.58845  -2738751.28445                  24148662.0574
        11.2504         11.0004
 98  6 11 20 43  0.0020000  0  7G 5G 6G30G10G17G26G23
  24685881.0104   14452726.84045  11175314.89745                  24685890.4124
         9.0004          9.0004
  21115874.8224   -1884758.22148  -1417765.09547                  21115880.5414
        30.5004         29.2504
  22647258.7364   10152947.03247   7872812.09246                  22647265.6314
        25.2504         24.2504
  23244523.1194   10341761.59247    158630.82846                  23244529.7404
        20.0004         19.5004
  22330035.8774   -3072190.53747  -2331197.62247                  22330042.9364
        25.0004         25.7504
  23934463.2684   -3451007.22646  -2581371.46146                  23934472.0844
        12.0004         12.2504
  24142812.5024   -3736405.62645  -2762663.96546                  24142822.7714
        11.5004         12.0004
 98  6 11 20 43 15.0020000  0  7G 5G 6G30G10G17G26G23
  24699525.0804   14524423.85545  11231182.54145                  24699537.2834
         9.2504          8.5004
  21116626.1894   -1880809.99948  -1414688.56247                  21116631.8034
        30.2504         29.2504
  22658923.1114   10214243.63147   7920575.62146                  22658930.0534
        24.7504         24.0004
  23256181.2054   10403026.97247    206370.03146                  23256187.5924
        20.0004         19.0004
  22329484.1894   -3075090.17247  -2333457.06347                  22329491.2714
        25.5004         25.7504
  23930955.5104   -3469436.98346  -2595732.26546                  23930963.8344
        12.2504         12.2504
  24136984.6504   -3767028.18945  -2786525.60745                  24136994.7684
        11.7504         11.7504
 98  6 11 20 43 30.0020000  0  7G 5G 6G30G10G17G26G23
  24713171.7444   14596140.41545  11287065.45245                  24713181.5334
         8.2504          8.2504
  21117398.2214   -1876753.98948  -1411528.03647                  21117403.9634
        30.0004         29.0004
  22670606.1664   10275638.15347   7968415.45446                  22670613.0254
        24.2504         24.0004
  23267856.5724   10464380.97046    254178.34646                  23267863.4044
        19.7504         19.0004
  22328945.0184   -3077921.97047  -2335663.65247                  22328952.0644
        26.0004         25.7504
  23927462.5804   -3487796.82246  -2610038.58745                  23927470.2604
        12.5004         11.5004
  24131169.8774   -3797584.78746  -2810335.85445                  24131179.3264
        12.2504         11.5004
 98  6 11 20 43 45.0020000  0  7G 5G 6G30G10G17G26G23
  24726823.5414   14667875.23545  11342962.53345                  24726836.5764
         8.7504          8.5004
  21118189.8774   -1872592.77448  -1408285.53847                  21118195.6664
        30.2504         29.2504
  22682307.5804   10337129.22247   8016330.52146                  22682314.3894
        25.5004         24.0004
  23279548.4634   10525822.06346    302054.49646                  23279555.4164
        19.2504         19.0004
  22328418.1434   -3080692.15947  -2337822.23847                  22328424.9164
        25.7504         25.7504
  23923981.4864   -3506088.67946  -2624291.91546                  23923990.3384
        12.2504         12.7504
  24125367.4394   -3828077.54546  -2834096.37646                  24125377.2524
        12.2504         12.0004
 98  6 11 20 44  0.0020000  0  7G 5G 6G30G10G17G26G23
  24740478.0024   14739634.47945  11398878.67045                  24740488.0964
         8.2504          7.7504
  21119002.7684   -1868321.46448  -1404957.24147                  21119008.6864
        29.7504         29.2504
  22694028.6274   10398723.19547   8064325.76946                  22694035.3184
        24.0004         23.5004
  23291258.0104   10587355.52946    350002.63146                  23291265.1864
        19.2504         18.5004
  22327903.4244   -3083396.05447  -2339929.15747                  22327910.3184
        25.7504         26.0004
  23920514.7604   -3524305.51045  -2638486.77446                  23920523.5764
        11.2504         12.2504
  24119579.1744   -3858497.19646  -2857799.89746                  24119588.9284
        12.5004         12.2504
 98  6 11 20 44 15.0020000  0  7G 5G 6G30G10G17G26G23
  24754139.0644   14811422.17345  11454816.98945                  24754148.5024
         9.0004          8.7504
  21119836.2294   -1863941.84348  -1401544.55547                  21119842.0764
        30.0004         29.2504
  22705769.1894   10460421.87747   8112402.60046                  22705776.4364
        23.5004         23.7504
  23302985.4794   10648984.38346    398025.11046                  23302992.3384
        19.5004         18.7504
  22327401.4634   -3086034.29047  -2341984.91947                  22327408.2834
        26.0004         26.2504
  23917063.6894   -3542443.67546  -2652620.35446                  23917072.8694
        13.0004         12.7504
  24113805.0024   -3888837.63146  -2881441.73446                  24113814.7564
        12.5004         12.2504
 98  6 11 20 44 30.0020000  0  7G 5G 6G30G10G17G26G23
  24767805.5884   14883236.68145  11510776.18345                  24767816.3144
         8.7504          8.5004
  21120689.5334   -1859457.18948  -1398050.01847                  21120695.2524
        29.7504         29.2504
  22717529.6824   10522223.49547   8160559.65746                  22717537.1624
        23.7504         23.5004
  23314731.4244   10710708.55447    446121.84546                  23314738.2564
        20.0004         18.7504
  22326912.4944   -3088605.39247  -2343988.36747                  22326919.2324
        26.0004         26.5004
  23913626.2364   -3560503.20446  -2666692.63946                  23913634.7364
        12.0004         12.5004
  24108046.5724   -3919098.45846  -2905021.49646                  24108055.9984
        12.2504         12.7504
 98  6 11 20 44 45.0020000  0  7G 5G 6G30G10G17G26G23
  24781474.9714   14955074.49945  11566753.50945                  24781485.1004
         9.2504          9.0004
  21121562.4634   -1854869.70348  -1394475.35447                  21121568.3574
        30.0004         29.2504
  22729310.0414   10584128.71447   8208797.43746                  22729317.2404
        23.7504         23.2504
  23326495.2364   10772527.65547    494292.55246                  23326502.4824
        20.2504         18.7504
  22326435.7684   -3091109.54147  -2345939.64247                  22326442.5064
        26.2504         26.2504
  23910204.4244   -3578484.82145  -2680704.25746                  23910212.3144
        11.7504         12.7504
  24102302.5254   -3949281.46846  -2928540.65946                  24102312.1504
        12.2504         12.5004
 98  6 11 20 45  0.0020000  0  7G 5G 6G30G10G17G26G23
  24795150.7214   15026935.21145  11622748.70145                  24795160.3694
         9.2504          8.7504
  21122454.8614   -1850180.59148  -1390821.49747                  21122460.7444
        30.0004         29.2504
  22741110.4474   10646140.35747   8257118.14946                  22741117.7644
        23.2504         23.0004
  23338277.2444   10834442.52246    542537.89146                  23338284.1624
        19.7504         18.2504
  22325971.6194   -3093547.96647  -2347839.69847                  22325978.4904
        26.0004         26.2504
  23906797.9944   -3596386.79345  -2694653.75546                  23906806.9634
        11.7504         12.5004
  24096573.3774   -3979387.49346  -2951999.81846                  24096582.8734
        12.2504         12.2504
 98  6 11 20 45 15.0020000  0  7G 5G 6G30G10G17G26G23
  24808829.6274   15098816.56245  11678760.02245                  24808840.3424
         9.7504          9.0004
  21123365.7604   -1845392.57448  -1387090.57847                  21123371.4674
        29.7504         29.5004
  22752931.0024   10708256.76147   8305520.48346                  22752938.3774
        23.5004         23.0004
  23350077.1504   10896450.90946    590856.09446                  23350083.6544
        19.5004         18.2504
  22325520.2754   -3095920.08647  -2349688.09347                  22325527.2174
        26.0004         26.5004
  23903407.4164   -3614206.77746  -2708539.42346                  23903415.5534
        13.5004         12.5004
  24090858.6664   -4009419.77646  -2975401.51646                  24090868.8184
        12.5004         12.7504
 98  6 11 20 45 30.0020000  0  7G 5G 6G30G10G17G26G23
  24822513.4164   15170723.77045  11734791.44445                  24822524.6704
        10.0004         10.0004
  21124296.9164   -1840501.02548  -1383278.98047                  21124302.8224
        30.0004         29.5004
  22764771.7294   10770480.13647   8354006.18346                  22764779.1394
        23.5004         23.0004
  23361895.1824   10958555.30846    639249.10646                  23361901.5454
        19.7504         18.2504
  22325082.6894   -3098219.81647  -2351480.07647                  22325089.5964
        26.0004         26.7504
  23900033.0254   -3631938.05545  -2722355.95846                  23900041.1154
        11.7504         12.2504
  24085158.4324   -4039375.72046  -2998743.72246                  24085168.5844
        12.0004         12.7504
 98  6 11 20 45 45.0020000  0  7G 5G 6G30G10G17G26G23
  24836201.8934   15242659.21445  11790844.88745                  24836212.9004
        10.2504          9.5004
  21125247.7754   -1835503.03748  -1379384.44247                  21125253.4244
        30.2504         29.5004
  22776632.2214   10832807.32847   8402572.77146                  22776639.4554
        22.7504         22.7504
  23373731.1274   11020754.93546    687716.32446                  23373737.8304
        19.2504         17.7504
  22324659.8774   -3100442.29547  -2353211.86847                  22324666.9004
        26.2504         26.7504
  23896676.5254   -3649577.54346  -2736100.95346                  23896685.5644
        12.2504         12.7504
  24079472.2754   -4069252.50245  -3022024.24846                  24079482.3574
        11.5004         12.7504
 98  6 11 20 46  0.0020000  0  7G 5G 6G30G10G17G26G23
  24849897.4864   15314626.18945  11846922.87545                  24849909.7954
        10.0004          9.5004
  21126220.0574   -1830394.06548  -1375403.42647                  21126225.8114
        30.2504         29.7504
  22788512.2054   10895237.48047   8451219.59046                  22788519.4864
        23.0004         23.0004
  23385586.2914   11083053.20246    736260.41246                  23385592.7134
        19.0004         18.0004
  22324252.7914   -3102580.33747  -2354877.85947                  22324259.7324
        26.2504         26.7504
  23893338.0184   -3667120.99046  -2749771.11446                  23893346.4124
        13.0004         13.0004
  24073803.3304   -4099042.91245  -3045237.47446                  24073813.2134
        11.2504         13.2504
 98  6 11 20 46 15.0020000  0  7G 5G 6G30G10G17G26G23
  24863595.6894   15386614.22045  11903017.27645                  24863608.0574
        10.0004          9.7504
  21127211.2754   -1825186.04348  -1371345.22647                  21127217.0184
        30.0004         29.5004
  22800409.3614   10957758.13447   8499936.93146                  22800416.8894
        22.5004         23.0004
  23397458.3614   11145441.88046    784874.94246                  23397464.9364
        18.7504         17.7504
  22323860.1824   -3104643.49047  -2356485.49947                  22323866.8854
        26.5004         26.7504
  23890015.4324   -3684578.09846  -2763373.98846                  23890023.5334
        12.7504         13.0004
  24068149.0964   -4128757.55445  -3068391.65146                  24068159.3774
        11.2504         12.7504
 98  6 11 20 46 30.0020000  0  7G 5G 6G30G10G17G26G23
  24877298.3774   15458620.77845  11959126.10745                  24877311.2954
         9.7504          9.7504
  21128221.4084   -1819878.15548  -1367209.21247                  21128227.1504
        30.5004         29.5004
  22812323.4864   11020365.81447   8548722.08746                  22812331.0964
        22.7504         22.7504
  23409347.5104   11207919.29046    833558.62746                  23409354.1544
        18.2504         17.7504
  22323481.9794   -3106632.04047  -2358035.01647                  22323488.7874
        26.7504         27.2504
  23886710.1504   -3701949.88846  -2776910.38846                  23886718.8384
        13.5004         13.5004
  24062508.3854   -4158398.48845  -3091488.41546                  24062518.0804
        11.5004         12.7504
 98  6 11 20 46 45.0020000  0  7G 5G 6G30G10G17G26G23
  24891004.3144   15530645.06045  12015248.79145                  24891015.3574
         9.5004          9.2504
  21129251.1044   -1814467.33748  -1362992.99247                  21129256.9394
        30.5004         29.5004
  22824253.7444   11083059.79247   8597574.47946                  22824261.1434
        22.7504         22.7504
  23421252.9864   11270483.90346    882310.25346                  23421259.8074
        18.0004         17.5004
  22323117.8074   -3108546.48647  -2359526.78147                  22323124.6894
        27.0004         27.0004
  23883420.6274   -3719234.17346  -2790378.60446                  23883429.5254
        13.0004         13.2504
  24056882.2444   -4187964.14245  -3114526.50746                  24056891.4004
        11.7504         12.5004
 98  6 11 20 47  0.0020000  0  7G 5G 6G30G10G17G26G23
  24904714.0254   15602689.59545  12071387.22845                  24904727.9044
         9.0004          9.2504
  21130301.3934   -1808948.25548  -1358692.40747                  21130307.2404
        30.0004         29.5004
  22836200.6974   11145841.86547   8646495.52746                  22836207.9204
        22.2504         22.5004
  23433175.5494   11333137.23646    931131.01146                  23433182.5144
        18.7504         18.0004
  22322767.4244   -3110386.44247  -2360960.50347                  22322774.2564
        27.0004         26.7504
  23880148.7994   -3736428.12946  -2803776.41546                  23880156.8424
        13.7504         13.5004
  24051271.5104   -4217450.11745  -3137502.49746                  24051281.0184
        11.2504         12.5004
 98  6 11 20 47 15.0020000  0  7G 5G 6G30G10G17G26G23
  24918426.9324   15674751.35245  12127539.05745                  24918437.8934
         9.5004          9.0004
  21131371.6274   -1803322.63848  -1354308.81647                  21131377.4284
        30.2504         29.5004
  22848163.5804   11208705.42247   8695480.06446                  22848170.6974
        23.2504         22.5004
  23445114.6664   11395876.70146    980018.88546                  23445121.6894
        19.2504         17.7504
  22322430.6194   -3112156.06547  -2362339.41847                  22322437.4514
        27.0004         27.0004
  23876893.6584   -3753535.04746  -2817106.44546                  23876901.9944
        14.0004         14.2504
  24045674.4944   -4246860.48145  -3160419.60146                  24045684.4594
        11.5004         12.7504
 98  6 11 20 47 30.0020000  0  7G 5G 6G30G10G17G26G23
  24932144.0254   15746836.45245  12183709.11445                  24932156.6154
         8.7504          9.2504
  21132464.2834   -1797581.41448  -1349835.13847                  21132470.0614
        30.2504         29.2504
  22860142.5574   11271655.24047   8744531.82146                  22860149.6744
        23.5004         22.5004
  23457071.0724   11458708.74946   1028978.90246                  23457078.0144
        18.7504         18.0004
  22322109.1194   -3113846.88747  -2363656.93847                  22322115.8934
        26.5004         27.0004
  23873656.5104   -3770547.09946  -2830362.51246                  23873666.5334
        13.5004         14.2504
  24040093.2444   -4276190.32345  -3183273.94646                  24040103.1154
        11.2504         13.0004
 98  6 11 20 47 45.0020000  0  7G 5G 6G30G10G17G26G23
  24945865.6354   15818942.73045  12239895.65645                  24945878.9864
         9.7504          9.0004
  21133579.2294   -1791721.60548  -1345269.05547                  21133584.9244
        30.0004         29.5004
  22872137.9324   11334690.98347   8793650.53246                  22872145.3184
        22.5004         22.5004
  23469045.5254   11521633.19346   1078010.92146                  23469052.5254
        19.2504         17.7504
  22321801.4324   -3115462.20147  -2364915.61447                  22321808.3264
        26.5004         27.0004
  23870436.1114   -3787468.35046  -2843547.85146                  23870445.4434
        13.5004         14.2504
  24034527.4084   -4305441.18545  -3206066.73746                  24034537.5374
        11.7504         13.0004
 98  6 11 20 48  0.0020000  0  7G 5G 6G30G10G17G26G23
  24959588.8074   15891058.46945  12296089.56345                  24959601.6544
         9.2504          9.2504
  21134715.0414   -1785754.00548  -1340618.97747                  21134720.7484
        30.2504         29.2504
  22884147.8774   11397804.11847   8842829.54146                  22884155.4284
        22.7504         22.5004
  23481035.4394   11584640.87646   1127107.79646                  23481042.3114
        18.7504         17.5004
  22321505.4554   -3117017.36647  -2366127.41947                  22321512.2524
        26.5004         27.0004
  23867230.7294   -3804311.25946  -2856672.14246                  23867239.2994
        13.2504         14.0004
  24028973.1824   -4334623.58346  -3228806.19446                  24028983.4284
        12.2504         13.2504
 98  6 11 20 48 15.0020000  0  7G 5G 6G30G10G17G26G23
  24973313.4634   15963179.24145  12352287.38145                  24973326.4634
         9.2504          9.5004
  21135870.1824   -1779682.40448  -1335887.86247                  21135875.8894
        30.2504         29.2504
  22896173.1044   11460996.49647   8892070.29346                  22896180.5724
        23.2504         22.2504
  23493041.0184   11647730.57646   1176268.57446                  23493047.8774
        18.0004         17.5004
  22321220.1744   -3118517.91047  -2367296.66547                  22321227.1504
        26.2504         27.2504
  23864039.6504   -3821077.89546  -2869736.96846                  23864048.6194
        13.5004         14.0004
  24023432.0414   -4363743.87646  -3251497.25946                  24023441.5024
        12.0004         13.5004
 98  6 11 20 48 30.0020000  0  7G 5G 6G30G10G17G26G23
  24987040.9244   16035316.75345  12408498.23345                  24987052.6824
         9.7504          9.0004
  21137047.8464   -1773495.09548  -1331066.57547                  21137053.6234
        30.2504         29.2504
  22908215.8464   11524280.95447   8941382.80546                  22908223.1624
        23.2504         22.2504
  23505064.2754   11710913.04146   1225501.64746                  23505070.9904
        18.0004         17.2504
  22320947.4474   -3119951.65547  -2368413.86347                  22320954.1274
        26.5004         27.2504
  23860865.9004   -3837757.48846  -2882734.00646                  23860873.8854
        13.5004         14.0004
  24017904.1664   -4392793.00646  -3274132.87246                  24017913.5574
        12.2504         13.2504
 98  6 11 20 48 45.0020000  0  7G 5G 6G30G10G17G26G23
  25000770.8614   16107468.25445  12464720.06345                  25000783.0294
         9.5004          9.7504
  21138246.6744   -1767193.80248  -1326156.48047                  21138252.3224
        30.0004         29.2504
  22920275.8304   11587657.18847   8990766.83646                  22920282.9944
        22.7504         22.2504
  23517103.7914   11774181.24446   1274801.52346                  23517110.4714
        18.2504         17.2504
  22320686.7994   -3121319.60847  -2369479.78747                  22320693.5964
        26.2504         27.0004
  23857708.6504   -3854352.58046  -2895665.18046                  23857717.4434
        13.5004         14.0004
  24012389.3854   -4421772.90046  -3296714.52746                  24012398.9514
        12.7504         13.2504
 98  6 11 20 49  0.0020000  0  7G 5G 6G30G10G17G26G23
  25014504.3464   16179638.18445  12520956.16445                  25014518.5294
         9.5004          9.7504
  21139467.6664   -1760777.89348  -1321157.07147                  21139473.4204
        30.0004         29.2504
  22932354.6354   11651131.82647   9040227.53946                  22932362.1274
        22.2504         22.0004
  23529160.2364   11837538.48246   1324170.78746                  23529167.5064
        18.0004         17.0004
  22320440.1974   -3122617.02147  -2370490.74647                  22320447.1504
        26.2504         27.0004
  23854566.5494   -3870859.98846  -2908528.03446                  23854575.2834
        13.5004         13.5004
  24006888.3854   -4450681.87446  -3319240.93546                  24006897.2954
        12.7504         13.5004
 98  6 11 20 49 15.0020000  0  7G 5G 6G30G10G17G26G23
  25028240.5414   16251821.62245  12577202.81845                  25028254.2214
         9.2504          9.7504
  21140708.8384   -1754255.11648  -1316074.38647                  21140714.6974
        30.0004         29.0004
  22944451.4164   11714700.19147   9089761.27046                  22944459.0494
        22.0004         21.5004
  23541232.3144   11900978.69446   1373604.69046                  23541239.1584
        18.2504         17.0004
  22320205.7994   -3123847.68247  -2371449.69547                  22320212.7874
        26.7504         27.2504
  23851440.1744   -3887288.63446  -2921329.49746                  23851448.8504
        13.5004         13.7504
  24001399.4554   -4479527.65146  -3341718.08746                  24001409.1044
        13.0004         13.5004
 98  6 11 20 49 30.0020000  0  7G 5G 6G30G10G17G26G23
  25041980.6974   16324023.36645  12633463.75345                  25041994.1894
         9.2504          9.7504
  21141971.2054   -1747622.36648  -1310906.01647                  21141977.0414
        29.7504         29.0004
  22956566.9634   11778367.60747   9139372.18646                  22956574.5144
        22.2504         21.5004
  23553321.0644   11964504.77246   1423105.52146                  23553327.8504
        17.7504         17.0004
  22319985.4004   -3125006.27347  -2372352.49047                  22319992.3304
        26.7504         27.2504
  23848329.7994   -3903632.85246  -2934065.19446                  23848338.7094
        14.0004         14.2504
  23995923.1894   -4508303.89146  -3364141.06746                  23995932.7094
        13.2504         13.5004
 98  6 11 20 49 45.0020000  0  7G 5G 6G30G10G17G26G23
  25055722.6194   16396240.05845  12689736.33945                  25055735.5374
         9.2504          9.2504
  21143253.5644   -1740882.58248  -1305654.23847                  21143259.3184
        30.0004         29.2504
  22968701.3544   11842134.85447   9189060.89546                  22968708.6934
        22.2504         21.5004
  23565424.4944   12028109.82346   1472667.85846                  23565431.1624
        17.7504         17.0004
  22319778.3384   -3126094.44347  -2373200.40447                  22319785.3264
        26.5004         27.0004
  23845235.6354   -3919895.84946  -2946737.58646                  23845244.1934
        13.7504         14.5004
  23990460.7054   -4537009.49146  -3386508.99346                  23990469.8384
        13.5004         13.7504
 98  6 11 20 50  0.0020000  0  7G 5G 6G30G10G17G26G23
  25069466.5964   16468467.13745  12746017.00145                  25069479.7604
         8.0004          9.2504
  21144555.2754   -1734043.16948  -1300324.82447                  21144561.0064
        30.0004         29.2504
  22980854.3074   11905999.13747   9238825.22846                  22980861.7404
        22.0004         21.5004
  23577542.0964   12091787.43046   1522286.74746                  23577548.5294
        18.7504         16.7504
  22319583.3304   -3127117.97747  -2373997.94947                  22319590.3074
        26.5004         27.2504
  23842154.6504   -3936084.55446  -2959352.09646                  23842162.3074
        14.5004         13.7504
  23985011.7524   -4565644.56746  -3408821.97446                  23985020.6504
        13.5004         13.7504
 98  6 11 20 50 15.0020000  0  7G 5G 6G30G10G17G26G23
  25083213.4394   16540703.57745  12802304.94245                  25083226.5574
         9.0004          9.5004
  21145874.5184   -1727109.39848  -1294921.89347                  21145880.1664
        30.0004         29.2504
  22993025.2134   11969957.05747   9288662.49946                  22993032.7174
        22.0004         21.5004
  23589672.8464   12155533.65346   1571959.12446                  23589679.5494
        18.0004         16.7504
  22319400.8774   -3128077.74947  -2374745.81247                  22319407.8654
        27.0004         27.2504
  23839088.5804   -3952198.58646  -2971908.42646                  23839096.7404
        14.7504         14.2504
  23979575.5804   -4594209.77346  -3431080.52446                  23979584.4674
        13.0004         13.7504
 98  6 11 20 50 30.0020000  0  7G 5G 6G30G10G17G26G23
  25096962.7754   16612958.92645  12858607.65045                  25096976.2794
         8.0004          9.2504
  21147213.7834   -1720072.38448  -1289438.50447                  21147219.3854
        30.2504         29.2504
  23005215.3074   12034014.95347   9338577.68846                  23005222.5064
        22.2504         21.7504
  23601817.7684   12219356.24446   1621690.98146                  23601824.6004
        18.0004         17.2504
  22319232.7054   -3128961.83847  -2375434.70447                  22319239.6704
        27.0004         27.5004
  23836037.7214   -3968227.90746  -2984398.74146                  23836046.3264
        13.2504         14.7504
  23974155.2364   -4622693.46146  -3453275.54546                  23974164.6154
        13.2504         13.5004
 98  6 11 20 50 45.0020000  0  7G 5G 6G30G10G17G26G23
  25110717.7604   16685238.07745  12914928.87545                  25110733.4434
         8.5004          9.2504
  21148574.1194   -1712923.47748  -1283867.93247                  21148579.8964
        30.0004         29.2504
  23017424.6584   12098175.52147   9388572.88346                  23017432.3034
        21.7504         21.0004
  23613978.6044   12283260.39246   1671486.39746                  23613985.4754
        18.2504         17.2504
  22319079.3464   -3129766.30547  -2376061.54847                  22319086.4394
        26.7504         27.7504
  23833004.5104   -3984167.80346  -2996819.35146                  23833013.4554
        14.7504         14.2504
  23968751.7524   -4651088.26346  -3475401.29546                  23968760.5214
        13.0004         13.7504
 98  6 11 20 51  0.0020000  0  7G 5G 6G30G10G17G26G23
  25124473.8464   16757530.62145  12971260.57645                  25124488.7914
         8.5004          9.2504
  21149954.4394   -1705670.73948  -1278216.45147                  21149960.2054
        30.2504         29.2504
  23029651.7134   12162430.70247   9438641.79746                  23029658.9944
        21.7504         21.2504
  23626152.8384   12347238.21446   1721339.22846                  23626159.8144
        18.0004         17.0004
  22318939.6974   -3130501.20947  -2376634.19447                  22318946.4824
        26.7504         28.0004
  23829986.9244   -4000026.10246  -3009176.40246                  23829995.8114
        14.5004         14.0004
  23963364.2834   -4679400.41546  -3497462.66346                  23963373.2524
        14.2504         14.2504
 98  6 11 20 51 15.0020000  0  7G 5G 6G30G10G17G26G23
  25138233.3304   16829836.03745  13027602.26345                  25138249.4244
         8.0004          9.2504
  21151354.5024   -1698311.51748  -1272481.99547                  21151360.1624
        30.0004         29.0004
  23041896.7444   12226777.03047   9488781.73546                  23041903.7564
        22.0004         20.7504
  23638342.4084   12411294.18446   1771252.94546                  23638349.6314
        17.7504         17.0004
  22318812.5494   -3131168.63647  -2377154.25847                  22318819.3114
        27.5004         27.5004
  23826984.1114   -4015804.78946  -3021471.40346                  23826992.7404
        13.2504         14.0004
  23957992.4944   -4707628.80946  -3519458.75446                  23958001.8964
        14.0004         13.7504
 98  6 11 20 51 30.0020000  0  7G 5G 6G30G10G17G26G23
  25151994.7214   16902149.14845  13083949.95845                  25152009.6434
         8.0004          9.2504
  21152775.6894   -1690844.96548  -1266663.90247                  21152781.2794
        30.0004         29.2504
  23054157.5254   12291207.22047   9538987.02846                  23054164.8074
        21.7504         21.0004
  23650546.4394   12475425.46246   1821225.34746                  23650554.1784
        17.7504         17.0004
  22318697.4554   -3131773.59547  -2377625.64247                  22318704.3854
        27.2504         27.7504
  23823996.4554   -4031505.64546  -3033705.74646                  23824004.6154
        14.5004         14.5004
  23952636.4394   -4735775.35446  -3541391.06946                  23952645.5724
        14.5004         13.7504
 98  6 11 20 51 45.0020000  0  7G 5G 6G30G10G17G26G23
  25165756.5644   16974467.56745  13140301.77445                  25165770.1044
         8.2504          8.2504
  21154217.2444   -1683268.81848  -1260760.43147                  21154222.9634
        29.7504         28.7504
  23066433.6894   12355720.46947   9589257.02546                  23066441.3224
        21.7504         21.2504
  23662764.6974   12539634.72046   1871258.51546                  23662772.0614
        17.5004         16.5004
  22318594.3224   -3132315.52547  -2378047.93047                  22318601.2644
        26.5004         27.2504
  23821024.1584   -4047125.60646  -3045877.09646                  23821032.1664
        14.0004         14.2504
  23947295.4324   -4763840.88546  -3563260.27046                  23947303.7794
        14.5004         13.5004
 98  6 11 20 52  0.0020000  0  7G 5G 6G30G10G17G26G23
  25179519.6974   17046789.89645  13196656.65245                  25179534.7364
         8.7504          8.7504
  21155679.6504   -1675584.76148  -1254772.85247                  21155685.5924
        30.0004         29.0004
  23078725.0334   12420312.26847   9639588.24546                  23078732.4904
        21.5004         21.2504
  23674997.9164   12603920.94046   1921351.65146                  23675005.3854
        17.7504         16.5004
  22318502.9324   -3132796.78047  -2378422.91747                  22318509.7524
        27.2504         27.5004
  23818066.7604   -4062667.37446  -3057987.48646                  23818074.1464
        14.7504         13.7504
  23941969.5104   -4791830.29946  -3585070.14346                  23941978.3964
        14.2504         14.2504
 98  6 11 20 52 15.0020000  0  7G 5G 6G30G10G17G26G23
  25193283.5104   17119122.85545  13253019.82845                  25193298.0924
         7.7504          8.7504
  21157163.0334   -1667787.11748  -1248696.76847                  21157168.7404
        29.7504         29.0004
  23091032.4474   12484985.76747   9689983.12346                  23091040.1974
        22.5004         21.2504
  23687247.7134   12668293.23346   1971511.85346                  23687255.0184
        17.2504         16.2504
  22318423.9164   -3133211.83047  -2378746.31447                  22318430.6194
        26.7504         27.5004
  23815124.9474   -4078122.98646  -3070030.74046                  23815132.6974
        14.5004         14.2504
  23936657.8934   -4819741.64746  -3606819.19146                  23936667.0254
        14.2504         13.7504
 98  6 11 20 52 30.0020000  0  7G 5G 6G30G10G17G26G23
  25207050.7834   17191465.15145  13309390.24545                  25207065.7294
         8.0004          8.2504
  21158668.6504   -1659874.56448  -1242531.14947                  21158674.3114
        29.7504         29.0004
  23103354.2524   12549736.87347   9740438.47446                  23103361.8614
        22.7504         21.0004
  23699513.6584   12732750.68046   2021738.41546                  23699520.0454
        17.2504         16.0004
  22318357.3614   -3133561.94347  -2379019.12447                  22318364.1234
        27.0004         27.5004
  23812201.2134   -4093490.07046  -3082005.02046                  23812208.2254
        14.2504         13.7504
  23931360.8854   -4847578.27646  -3628510.02246                  23931369.5724
        14.0004         13.7504
 98  6 11 20 52 45.0020000  0  7G 5G 6G30G10G17G26G23
  25220819.2134   17263821.79545  13365771.83745                  25220834.6274
         8.0004          8.2504
  21160198.1504   -1651837.79048  -1236268.73247                  21160203.8934
        30.0004         28.7504
  23115692.0334   12614572.39547   9790959.60446                  23115699.7364
        22.5004         21.2504
  23711797.4164   12797301.68846   2072037.89446                  23711804.1074
        17.5004         16.2504
  22318304.0254   -3133841.71447  -2379237.11647                  22318310.7174
        27.2504         27.5004
  23809294.5414   -4108762.76546  -3093905.75746                  23809301.0214
        15.0004         14.0004
  23926079.1974   -4875333.05446  -3650137.07246                  23926088.3774
        14.2504         14.0004
 98  6 11 20 53  0.0020000  0  7G 5G 6G30G10G17G26G23
  25234590.6974   17336187.31845  13422160.38145                  25234604.6584
         8.5004          8.0004
  21161751.0184   -1643678.37148  -1229910.74647                  21161756.6894
        29.7504         28.7504
  23128045.5334   12679492.09447   9841546.32846                  23128052.9674
        22.2504         21.2504
  23724097.5724   12861941.54346   2122406.58646                  23724104.1004
        17.5004         16.0004
  22318263.3384   -3134053.18047  -2379401.88347                  22318270.1464
        27.0004         27.5004
  23806405.5574   -4123943.71546  -3105735.00146                  23806413.2714
        14.0004         14.0004
  23920812.5184   -4903008.72146  -3671702.48246                  23920821.5454
        14.7504         13.5004
 98  6 11 20 53 15.0020000  0  7G 5G 6G30G10G17G26G23
  25248362.6274   17408562.55245  13478556.51445                  25248377.3144
         8.0004          8.2504
  21163326.0724   -1635401.42048  -1223461.17747                  21163331.7324
        30.0004         28.7504
  23140415.1194   12744492.61847   9892196.03346                  23140422.4124
        22.0004         21.2504
  23736414.6824   12926667.16946   2172842.11846                  23736421.2794
        17.7504         16.2504
  22318235.9394   -3134197.65647  -2379514.44547                  22318242.8464
        27.2504         27.7504
  23803534.1824   -4139032.71946  -3117492.57346                  23803541.2874
        15.0004         14.0004
  23915560.8934   -4930606.95346  -3693207.54846                  23915570.1314
        14.2504         13.5004
 98  6 11 20 53 30.0020000  0  7G 5G 6G30G10G17G26G23
  25262138.5104   17480952.76445  13534964.27345                  25262151.6624
         7.5004          8.0004
  21164924.1044   -1627003.88048  -1216917.64347                  21164929.6004
        30.0004         28.7504
  23152800.1664   12809576.11647   9942910.39146                  23152807.6584
        21.5004         21.0004
  23748748.4324   12991480.51646   2223346.00046                  23748754.5374
        18.0004         16.2504
  22318222.2054   -3134271.13047  -2379571.68947                  22318229.0254
        27.0004         28.0004
  23800681.5574   -4154023.20046  -3129173.41946                  23800688.6974
        14.2504         14.0004
  23910323.8544   -4958126.51646  -3714651.31046                  23910332.6704
        14.0004         13.7504
 98  6 11 20 53 45.0020000  0  7G 5G 6G30G10G17G26G23
  25275914.8854   17553348.33645  13591376.22445                  25275929.0924
         7.7504          8.0004
  21166542.9084   -1618496.79948  -1210288.75147                  21166548.3114
        30.0004         28.7504
  23165199.0644   12874733.89247   9993682.63546                  23165206.4514
        22.2504         21.2504
  23761095.9394   13056366.74346   2273906.67346                  23761101.8814
        18.2504         16.0004
  22318219.4944   -3134283.95247  -2379581.66747                  22318226.3774
        27.5004         28.0004
  23797846.6354   -4168921.43346  -3140782.35046                  23797855.0184
        14.0004         14.5004
  23905100.1584   -4985577.03746  -3736041.29346                  23905109.8894
        14.0004         14.0004
 98  6 11 20 54  0.0020000  0  7G 5G 6G30G10G17G26G23
  25289693.6824   17625754.09245  13647796.09845                  25289707.0454
         8.0004          8.2504
  21168183.3694   -1609876.90448  -1203571.95547                  21168189.0414
        30.2504         28.7504
  23177613.4324   12939971.91947  10044517.40546                  23177620.7134
        21.7504         21.0004
  23773457.8934   13121329.01146   2324526.60946                  23773464.4204
        17.5004         16.0004
  22318229.5184   -3134232.46047  -2379541.53147                  22318236.3384
        27.7504         28.2504
  23795029.7444   -4183723.01446  -3152315.97146                  23795037.6354
        15.0004         14.7504
  23899890.5804   -5012953.26946  -3757373.37646                  23899898.8694
        13.5004         13.7504
 98  6 11 20 54 15.0020000  0  7G 5G 6G30G10G17G26G23
  25303474.7054   17698172.87245  13704226.12745                  25303489.4394
         8.0004          8.2504
  21169845.6114   -1601141.54648  -1196765.18347                  21169851.2954
        30.0004         28.5004
  23190043.6584   13005292.48947  10095416.49246                  23190051.2684
        21.7504         20.7504
  23785834.1044   13186365.98546   2375204.74946                  23785840.9634
        17.5004         16.2504
  22318251.5884   -3134115.95647  -2379450.73947                  22318258.7644
        27.7504         28.2504
  23792231.8774   -4198425.72646  -3163772.55346                  23792239.8504
        14.7504         14.7504
  23894696.0414   -5040250.53546  -3778643.91846                  23894704.8114
        13.5004         14.0004
 98  6 11 20 54 30.0020000  0  7G 5G 6G30G10G17G26G23
  25317256.7444   17770599.19245  13760662.06545                  25317270.8694
         7.7504          7.7504
  21171529.7294   -1592292.41648  -1189869.75847                  21171535.3654
        30.2504         28.7504
  23202488.9634   13070693.84547  10146378.52546                  23202496.9004
        21.7504         21.0004
  23798223.6354   13251473.54246   2425937.88046                  23798230.1154
        17.5004         15.7504
  22318285.8384   -3133937.25647  -2379311.47947                  22318293.0494
        26.7504         28.0004
  23789452.3854   -4213030.84246  -3175153.09046                  23789459.7254
        14.2504         14.7504
  23889516.4714   -5067468.95346  -3799853.02646                  23889525.6154
        13.2504         14.0004
 98  6 11 20 54 45.0020000  0  7G 5G 6G30G10G17G26G23
  25331040.6354   17843031.08845  13817102.31245                  25331055.4514
         8.2504          8.2504
  21173235.2214   -1583328.82048  -1182885.13947                  21173240.8934
        29.7504         28.5004
  23214949.7524   13136173.51447  10197401.58846                  23214957.5024
        22.2504         21.0004
  23810625.2834   13316648.77046   2476723.76546                  23810632.4004
        16.7504         16.2504
  22318331.1974   -3133697.63747  -2379124.75047                  22318338.1044
        27.0004         28.0004
  23786691.4394   -4227539.31646  -3186458.33646                  23786699.2604
        14.2504         15.0004
  23884352.3934   -5094607.01846  -3820999.51646                  23884361.0454
        14.0004         14.0004
 98  6 11 20 55  0.0020000  0  7G 5G 6G30G10G17G26G23
  25344824.7684   17915466.35045  13873545.20045                  25344837.5574
         9.5004          9.7504
  21174962.3304   -1574252.63548  -1175812.78847                  21174968.0614
        29.5004         28.5004
  23227424.7604   13201731.53347  10248485.69746                  23227432.5214
        21.7504         21.2504
  23823041.3074   13381891.16246   2527561.95246                  23823048.5294
        17.2504         15.7504
  22318388.2914   -3133397.22347  -2378890.65547                  22318395.1974
        26.7504         28.0004
  23783948.8934   -4241953.81146  -3197690.34046                  23783957.2054
        14.2504         15.0004
  23879203.0104   -5121667.29146  -3842085.39846                  23879212.2604
        13.2504         14.2504
 98  6 11 20 55 15.0020000  0  7G 5G 6G30G10G17G26G23
  25358610.3694   17987909.85845  13929994.51245                  25358624.8694
         9.5004          9.7504
  21176710.3144   -1565065.70948  -1168654.15147                  21176716.0104
        29.7504         28.2504
  23239914.9474   13267366.53147  10299629.79346                  23239922.4394
        21.5004         20.5004
  23835469.1894   13447201.26846   2578452.93846                  23835476.5184
        17.0004         16.0004
  22318457.7054   -3133033.66647  -2378607.35247                  22318464.6824
        27.0004         27.7504
  23781223.6274   -4256273.48546  -3208848.45946                  23781231.8694
        14.5004         15.7504
  23874068.1354   -5148650.28846  -3863111.06346                  23874077.5024
        13.0004         14.0004
 98  6 11 20 55 30.0020000  0  7G 5G 6G30G10G17G26G23
  25372399.0254   18060366.23545  13986453.85845                  25372413.7484
         9.0004         10.0004
  21178480.8544   -1555762.37548  -1161404.80347                  21178486.6784
        29.7504         28.2504
  23252419.8934   13333078.10547  10350833.56346                  23252427.5374
        22.5004         20.7504
  23847911.6504   13512586.68646   2629402.59846                  23847919.0614
        16.7504         15.7504
  22318539.5964   -3132601.91947  -2378270.91747                  22318546.6544
        27.0004         27.7504
  23778517.7754   -4270493.65646  -3219929.04046                  23778526.5454
        14.2504         15.5004
  23868948.4164   -5175553.80146  -3884074.79246                  23868958.2874
        12.7504         14.0004
 98  6 11 20 55 45.0020000  0  7G 5G 6G30G10G17G26G23
  25386189.3384   18132835.24745  14042923.02645                  25386203.2524
         8.7504          9.0004
  21180274.6114   -1546335.73948  -1154059.38147                  21180280.3184
        29.2504         27.7504
  23264939.8544   13398871.88847  10402101.38146                  23264947.7684
        23.0004         21.2504
  23860369.1824   13578051.73646   2680414.29346                  23860376.5574
        16.7504         15.7504
  22318635.7524   -3132097.41647  -2377877.79247                  22318642.8344
        26.7504         27.5004
  23775830.9944   -4284612.17546  -3230930.40746                  23775839.7874
        15.0004         15.2504
  23863844.7054   -5202374.09846  -3904973.66646                  23863853.9674
        13.2504         13.7504
 98  6 11 20 56  0.0020000  0  7G 5G 6G30G10G17G26G23
  25399981.6744   18205312.73945  14099398.80345                  25399996.0334
         9.5004          9.0004
  21182091.4474   -1536788.18248  -1146619.72647                  21182097.0964
        29.2504         28.0004
  23277475.4394   13464746.82147  10453432.44346                  23277483.4474
        22.2504         21.7504
  23872841.5494   13643594.70346   2731486.71546                  23872848.6074
        16.7504         15.7504
  22318745.3854   -3131520.71347  -2377428.39847                  22318752.2294
        26.5004         27.5004
  23773162.6974   -4298633.13546  -3241855.77246                  23773170.8114
        15.0004         15.2504
  23858756.4554   -5229111.98346  -3925808.33346                  23858765.6824
        13.5004         14.2504
 98  6 11 20 56 15.0020000  0  7G 5G 6G30G10G17G26G23
  25413774.2834   18277793.08145  14155876.82745                  25413789.5684
         9.7504          9.5004
  21183929.7994   -1527128.16948  -1139092.44947                  21183935.5644
        29.2504         28.0004
  23290025.2684   13530696.93047  10504822.07446                  23290032.9714
        22.5004         21.7504
  23885328.4794   13709211.71246   2782616.84246                  23885335.5964
        17.0004         15.7504
  22318868.5024   -3130874.39947  -2376924.77247                  22318875.4324
        27.7504         28.2504
  23770512.3144   -4312563.46346  -3252710.49546                  23770521.2134
        14.5004         15.2504
  23853683.1744   -5255773.86646  -3946583.77246                  23853692.1314
        13.5004         14.7504
 98  6 11 20 56 30.0020000  0  7G 5G 6G30G10G17G26G23
  25427568.5644   18350281.85345  14212361.39145                  25427583.0884
         9.0004          9.2504
  21185789.9394   -1517352.84848  -1131475.32147                  21185795.7404
        29.0004         28.2504
  23302589.7914   13596723.78747  10556271.51546                  23302597.6824
        22.7504         21.7504
  23897829.7914   13774908.04146   2833808.76246                  23897836.6974
        16.2504         15.7504
  22319005.7134   -3130152.29347  -2376362.08047                  22319012.4754
        27.2504         27.7504
  23767879.1114   -4326398.48246  -3263490.95846                  23767886.9794
        15.0004         15.2504
  23848624.5884   -5282355.05546  -3967296.33846                  23848634.1894
        13.0004         14.5004
 98  6 11 20 56 45.0020000  0  7G 5G 6G30G10G17G26G23
  25441364.4004   18422780.13945  14268853.36445                  25441381.3614
         8.2504          9.5004
  21187672.2754   -1507462.04148  -1123768.19647                  21187678.0644
        29.5004         28.0004
  23315168.7214   13662824.90347  10607778.81546                  23315176.5644
        23.0004         21.5004
  23910346.8074   13840686.77346   2885064.88846                  23910354.2174
        16.5004         15.5004
  22319158.1584   -3129352.66647  -2375738.99047                  22319164.8614
        27.2504         27.5004
  23765264.2994   -4340138.42346  -3274197.32546                  23765272.0144
        15.0004         15.2504
  23843581.7604   -5308857.57246  -3987947.61046                  23843591.0574
        13.7504         14.5004
 98  6 11 20 57  0.0020000  0  7G 5G 6G30G10G17G26G23
  25455162.4004   18495289.89745  14325354.29045                  25455177.4164
         8.2504          9.0004
  21189576.2214   -1497455.18248  -1115970.64847                  21189581.8814
        30.0004         28.2504
  23327761.4004   13729000.85047  10659344.43246                  23327769.4324
        22.5004         21.7504
  23922881.3224   13906552.84146   2936389.07246                  23922888.1544
        16.7504         15.7504
  22319325.4004   -3128473.57247  -2375053.97447                  22319332.2094
        27.2504         27.7504
  23762667.8304   -4353783.14346  -3284829.51946                  23762675.8144
        15.2504         15.5004
  23838553.4714   -5335281.09146  -4008537.31646                  23838562.1584
        13.5004         15.2504
 98  6 11 20 57 15.0030000  0  7G 5G 6G30G10G17G26G23
  25468963.5154   18567814.00945  14381866.39945                  25468977.7804
         8.2504          8.7504
  21191502.4374   -1487333.09748  -1108083.31247                  21191507.8744
        30.0004         28.5004
  23340369.1014   13795254.58047  10710970.65246                  23340377.0264
        22.5004         21.7504
  23935431.9134   13972509.16946   2987783.58046                  23935438.8544
        16.5004         15.5004
  22319507.3584   -3127516.89247  -2374308.49947                  22319514.1674
        26.7504         27.5004
  23760089.3974   -4367335.10046  -3295389.42046                  23760096.8084
        16.0004         15.0004
  23833539.3744   -5361628.35146  -4029067.58546                  23833548.4484
        14.2504         15.2504
 98  6 11 20 57 30.0030000  0  7G 5G 6G30G10G17G26G23
  25482764.6554   18640338.94145  14438379.13845                  25482780.4444
         7.7504          8.5004
  21193450.4294   -1477098.07848  -1100107.98147                  21193455.8664
        30.2504         28.5004
  23352989.4994   13861574.19347  10762648.20946                  23352997.7654
        22.5004         21.5004
  23947998.2804   14038544.39146   3039239.57346                  23948005.0894
        16.5004         15.2504
  22319703.0544   -3126487.43947  -2373506.31047                  22319709.7804
        27.2504         27.7504
  23757527.4684   -4380795.35146  -3305877.85346                  23757535.0894
        15.2504         14.7504
  23828541.0774   -5387895.06346  -4049535.09946                  23828550.4564
        14.5004         15.2504
 98  6 11 20 57 45.0030000  0  7G 5G 6G30G10G17G26G23
  25496567.1014   18712871.78445  14494898.04945                  25496582.4334
         7.5004          9.0004
  21195421.0384   -1466741.16148  -1092037.65947                  21195426.5694
        29.7504         28.5004
  23365624.9834   13927975.46047  10814389.39346                  23365633.0264
        22.5004         21.5004
  23960580.7654   14104665.48246   3090762.47546                  23960587.9294
        15.5004         15.0004
  22319913.4834   -3125381.75147  -2372644.73147                  22319920.3154
        27.2504         27.7504
  23754984.9994   -4394156.04946  -3316288.71646                  23754992.5034
        15.7504         14.5004
  23823559.3354   -5414074.68746  -4069934.75946                  23823568.5974
        14.7504         15.5004
 98  6 11 20 58  0.0030000  0  7G 5G 6G30G10G17G26G23
  25510370.9764   18785407.66445  14551419.34445                  25510385.8154
         7.7504          9.0004
  21197413.6084   -1456269.99448  -1083878.31247                  21197419.2574
        29.7504         28.0004
  23378276.0624   13994456.19847  10866192.50146                  23378283.7884
        22.0004         21.2504
  23973177.1324   14170862.00546   3142344.14746                  23973184.1554
        15.2504         15.5004
  22320137.0304   -3124208.04547  -2371730.14747                  22320143.8514
        27.5004         27.7504
  23752460.9994   -4407420.51346  -3326624.58646                  23752467.8314
        15.5004         14.2504
  23818594.0544   -5440168.36846  -4090267.45346                  23818602.9994
        15.5004         15.2504
 98  6 11 20 58 15.0030000  0  7G 5G 6G30G10G17G26G23
  25524174.1634   18857942.48844  14607939.81345                  25524190.5734
         7.2504          8.7504
  21199426.4294   -1445692.90448  -1075636.42847                  21199432.2884
        29.2504         28.0004
  23390940.4684   14061008.58647  10918051.44646                  23390948.5934
        22.0004         21.2504
  23985787.6014   14237127.54046   3193979.60946                  23985795.3514
        14.7504         15.2504
  22320371.6634   -3122974.54347  -2370768.96147                  22320378.4954
        27.0004         27.7504
  23749953.9684   -4420593.32346  -3336889.05246                  23749961.2964
        16.0004         15.0004
  23813643.7104   -5466181.17246  -4110537.11846                  23813652.5974
        15.2504         15.5004
 98  6 11 20 58 30.0030000  0  7G 5G 6G30G10G17G26G23
  25537976.7264   18930479.50544  14664461.94145                  25537993.9914
         6.2504          8.5004
  21201460.2494   -1435003.91048  -1067307.34747                  21201465.9214
        29.5004         28.0004
  23403618.7024   14127632.47647  10969966.10146                  23403626.4764
        21.5004         21.0004
  23998410.8124   14303463.83146   3245670.19346                  23998418.3154
        14.5004         15.0004
  22320617.4684   -3121682.29447  -2369762.00547                  22320624.3514
        27.2504         27.7504
  23747465.5464   -4433669.93346  -3347078.55446                  23747472.7334
        15.5004         14.7504
  23808709.6554   -5492110.18046  -4130741.48846                  23808718.8004
        15.0004         15.5004
 98  6 11 20 58 45.0030000  0  7G 5G 6G30G10G17G26G23
  25551781.2184   19003018.12444  14720985.34345                  25551796.8904
         6.5004          8.2504
  21203516.8824   -1424196.58548  -1058886.06047                  21203522.5654
        29.5004         28.2504
  23416310.8274   14194329.48447  11021937.73246                  23416318.8474
        22.0004         21.0004
  24011046.8044   14369868.71246   3297414.22746                  24011053.8514
        15.0004         15.0004
  22320874.7654   -3120331.03047  -2368709.06547                  22320881.5974
        27.2504         27.7504
  23744996.2264   -4446646.65746  -3357190.21646                  23745003.0854
        16.2504         14.7504
  23803791.9374   -5517952.55646  -4150878.35846                  23803800.8704
        15.0004         16.0004
 98  6 11 20 59  0.0030000  0  7G 5G 6G30G10G17G26G23
  25565583.7574   19075550.46044  14777503.83845                  25565598.3274
         7.0004          9.0004
  21205595.5384   -1413273.74948  -1050374.75547                  21205601.2454
        29.2504         28.0004
  23429016.9834   14261100.73047  11073967.21746                  23429024.8974
        23.2504         21.5004
  24023695.6084   14436335.46246   3349206.47946                  24023702.9254
        15.2504         15.5004
  22321141.6554   -3118926.99547  -2367615.00447                  22321148.4404
        27.0004         27.7504
  23742544.9524   -4459527.24646  -3367226.98846                  23742551.9054
        16.2504         15.7504
  23798889.8434   -5543711.34646  -4170950.08946                  23798899.3154
        15.0004         16.0004
 98  6 11 20 59 15.0030000  0  7G 5G 6G30G10G17G26G23
  25579386.2334   19148082.19844  14834021.92245                  25579401.6124
         6.5004          8.5004
  21207697.0074   -1402230.14048  -1041769.35647                  21207702.7024
        29.0004         27.7504
  23441738.9134   14327954.45947  11126060.96546                  23441746.7694
        22.7504         21.2504
  24036355.5224   14502866.51446   3401048.82146                  24036363.1324
        15.7504         15.7504
  22321419.7184   -3117466.48547  -2366476.93247                  22321426.3974
        27.2504         27.7504
  23740113.6244   -4472303.10046  -3377182.11846                  23740121.2574
        16.0004         15.7504
  23794005.7024   -5569378.54646  -4190950.45746                  23794014.3904
        15.2504         16.0004
 98  6 11 20 59 30.0030000  0  7G 5G 6G30G10G17G26G23
  25593188.6874   19220612.42744  14890538.80945                  25593203.7024
         6.2504          8.2504
  21209821.2574   -1391067.39248  -1033071.11047                  21209827.0224
        28.7504         27.7504
  23454476.0934   14394889.79447  11178218.31046                  23454484.1014
        21.7504         21.2504
  24049027.4134   14569455.28746   3452936.15446                  24049034.3784
        15.5004         15.2504
  22321708.2414   -3115949.78247  -2365295.07247                  22321714.8514
        27.2504         27.7504
  23737702.8584   -4484972.58046  -3387054.37946                  23737710.0464
        16.7504         16.0004
  23789138.5464   -5594954.67246  -4210879.85246                  23789147.5034
        15.0004         16.5004
 98  6 11 20 59 45.0030000  0  7G 5G 6G30G10G17G26G23
  25606989.6714   19293144.63243  14947057.18645                  25607007.8624
         5.2504          7.2504
  21211967.9684   -1379786.58548  -1024280.87647                  21211973.7334
        28.7504         27.5004
  23467229.6404   14461909.60347  11230441.48146                  23467237.5894
        21.0004         20.7504
  24061710.0224   14636103.02346   3504869.43046                  24061717.5734
        16.0004         15.7504
  22322008.5774   -3114372.20147  -2364065.78047                  22322015.4374
        27.5004         27.5004
  23735313.1714   -4497530.35546  -3396839.61446                  23735320.5344
        16.5004         16.2504
  23784289.6014   -5620437.02046  -4230736.18746                  23784298.3584
        15.2504         16.0004
 98  6 11 21  0  0.0030000  0  6G 6G30G10G17G26G23
  21214134.9914   -1368397.79548  -1015406.49647                  21214140.6874
        28.7504         27.7504
  23479997.4444   14529003.05447  11282722.01646                  23480005.3704
        22.0004         21.2504
  24074402.4834   14702800.45746   3556841.42746                  24074409.1984
        16.2504         15.7504
  22322319.3744   -3112739.59847  -2362793.60847                  22322326.3274
        27.0004         27.5004
  23732943.2104   -4509984.39046  -3406544.00046                  23732950.9834
        16.2504         16.2504
  23779456.1874   -5645836.61646  -4250528.01746                  23779465.2724
        16.2504         16.7504
 98  6 11 21  0 15.0030000  0  6G 6G30G10G17G26G23
  21216323.4214   -1356899.00448  -1006446.40947                  21216329.1984
        29.2504         27.5004
  23492778.4444   14596168.59647  11335058.74746                  23492786.1244
        22.2504         21.0004
  24087104.7414   14769553.58346   3608856.82546                  24087112.2924
        16.5004         15.7504
  22322641.6164   -3111045.44847  -2361473.47747                  22322648.3664
        27.0004         27.5004
  23730593.3124   -4522334.02846  -3416167.04146                  23730600.9914
        16.2504         16.2504
  23774638.5304   -5671153.17846  -4270255.16846                  23774647.4764
        16.2504         16.5004
 98  6 11 21  0 30.0030000  0  6G 6G30G10G17G26G23
  21218533.9684   -1345282.48048   -997394.56847                  21218539.6284
        29.2504         27.7504
  23505574.0074   14663408.22147  11387453.19146                  23505581.6284
        22.0004         21.2504
  24099819.2494   14836368.42246   3660920.30246                  24099826.7414
        16.2504         15.7504
  22322977.1794   -3109282.23548  -2360099.53247                  22322983.9054
        28.0004         27.5004
  23728263.2964   -4534574.20046  -3425704.77446                  23728271.4794
        15.5004         16.2504
  23769836.6874   -5696386.93646  -4289917.78946                  23769845.8904
        15.7504         16.5004
 98  6 11 21  0 45.0030000  0  6G 6G30G10G17G26G23
  21220767.0224   -1333547.26148   -988250.24647                  21220772.5774
        29.5004         27.7504
  23518383.2024   14730721.62447  11439905.13346                  23518391.1284
        21.2504         20.7504
  24112545.5854   14903244.26646   3713031.31546                  24112552.5974
        16.7504         15.5004
  22323326.4214   -3107447.62647  -2358669.95347                  22323332.9954
        27.2504         27.5004
  23725954.4764   -4546706.54546  -3435158.49246                  23725962.6714
        14.7504         16.0004
  23765051.0224   -5721534.98246  -4309513.61246                  23765059.6984
        16.0004         16.5004
 98  6 11 21  1  0.0030000  0  6G 6G30G10G17G26G23
  21223021.7184   -1321698.97448   -979017.82147                  21223027.4134
        29.7504         27.7504
  23531206.4294   14798108.35947  11492414.20546                  23531214.3434
        21.5004         20.7504
  24125283.0694   14970180.88946   3765189.70646                  24125290.1284
        15.7504         15.2504
  22323688.1874   -3105544.30247  -2357186.83247                  22323694.7844
        27.2504         27.5004
  23723665.7414   -4558735.23346  -3444531.46146                  23723674.6984
        14.5004         16.2504
  23760281.1164   -5746600.94846  -4329045.48046                  23760289.8624
        15.7504         16.5004
 98  6 11 21  1 15.0030000  0  6G 6G30G10G17G26G23
  21225298.1164   -1309736.74748   -969696.60947                  21225303.5654
        29.2504         27.5004
  23544044.1404   14865570.28147  11544981.87046                  23544051.9834
        21.5004         20.5004
  24138033.1014   15037185.67846   3817401.19146                  24138040.2064
        16.7504         15.5004
  22324064.3514   -3103568.76847  -2355647.44347                  22324070.8084
        27.2504         27.2504
  23721396.7574   -4570657.79146  -3453821.70746                  23721405.7144
        14.5004         16.0004
  23755527.4444   -5771583.04246  -4348512.01446                  23755536.3084
        15.7504         16.5004
 98  6 11 21  1 30.0030000  0  6G 6G30G10G17G26G23
  21227594.8974   -1297666.27848   -960291.05847                  21227600.4764
        29.5004         27.5004
  23556894.2414   14933097.75247  11597600.62146                  23556902.1204
        21.2504         20.7504
  24150796.4294   15104253.35746   3869661.69946                  24150803.9684
        16.0004         15.0004
  22324453.0544   -3101526.12847  -2354055.76547                  22324459.5224
        27.5004         27.0004
  23719146.7884   -4582480.22546  -3463033.93346                  23719155.3354
        14.5004         16.2504
  23750788.1014   -5796487.80246  -4367918.25646                  23750796.8474
        16.0004         16.7504
 98  6 11 21  1 45.0030000  0  6G 6G30G10G17G26G23
  21229913.2334   -1285484.08348   -950798.44647                  21229918.8234
        30.0004         27.5004
  23569757.0544   15000692.32847  11650271.65646                  23569764.8974
        20.5004         20.7504
  24163570.8664   15171386.53046   3921973.23346                  24163578.0894
        15.2504         15.0004
  22324854.8514   -3099413.22947  -2352409.33147                  22324861.3194
        26.7504         27.2504
  23716916.0224   -4594204.06246  -3472169.33746                  23716924.5344
        15.0004         16.0004
  23746064.0464   -5821312.56646  -4387262.18746                  23746073.4484
        16.0004         17.0004
 98  6 11 21  2  0.0030000  0  6G 6G30G10G17G26G23
  21232253.5224   -1273185.25448   -941214.94947                  21232259.0654
        29.5004         27.7504
  23582633.1244   15068357.16547  11702997.43046                  23582641.1794
        20.2504         20.2504
  24176359.6164   15238589.30146   3974339.00046                  24176366.8154
        15.5004         14.7504
  22325270.5384   -3097229.48647  -2350707.70447                  22325277.2294
        27.2504         27.5004
  23714704.4524   -4605827.60046  -3481226.58946                  23714712.9874
        15.0004         16.2504
  23741354.6014   -5846058.03346  -4406544.31746                  23741364.1794
        15.5004         16.7504
 98  6 11 21  2 15.0030000  0  6G 6G30G10G17G26G23
  21234617.8044   -1260762.09048   -931534.56947                  21234623.2414
        30.0004         28.0004
  23595522.9374   15136092.74147  11755778.33046                  23595531.0734
        20.0004         20.0004
  24189161.5304   15305865.51946   4026761.99846                  24189168.5544
        15.2504         14.7504
  22325699.3044   -3094976.43147  -2348952.06447                  22325706.0194
        27.5004         27.2504
  23712511.4524   -4617350.96046  -3490205.78846                  23712519.6244
        14.7504         16.5004
  23736661.3824   -5870722.80446  -4425763.57046                  23736670.8084
        16.0004         17.2504
 98  6 11 21  2 30.0030000  0  6G 6G30G10G17G26G23
  21237005.0154   -1248215.74648   -921758.20147                  21237010.4404
        29.7504         27.7504
  23608425.7104   15203895.73647  11808611.77546                  23608433.7294
        20.0004         19.7504
  24201977.3044   15373212.61546   4079240.23146                  24201984.0544
        15.0004         14.5004
  22326140.0854   -3092660.80947  -2347147.66647                  22326146.8354
        27.0004         27.2504
  23710337.8824   -4628774.65246  -3499107.30846                  23710345.8194
        16.0004         16.7504
  23731983.0624   -5895307.40746  -4444920.34946                  23731992.0194
        16.2504         17.5004
 98  6 11 21  2 45.0030000  0  6G 6G30G10G17G26G23
  21239415.5224   -1235548.87948   -911887.91947                  21239420.9604
        29.7504         27.5004
  23621340.4994   15271763.68847  11861495.82346                  23621348.3434
        20.0004         20.2504
  24214806.3194   15440627.26346   4131771.08646                  24214813.4254
        15.2504         14.2504
  22326591.4994   -3090287.84347  -2345298.58447                  22326598.2264
        27.2504         27.5004
  23708182.5624   -4640100.67746  -3507932.74446                  23708190.2534
        16.0004         16.5004
  23727320.2104   -5919810.41846  -4464013.55846                  23727329.0384
        16.5004         17.5004
 98  6 11 21  3  0.0030000  0  6G 6G30G10G17G26G23
  21241848.7264   -1222761.79848   -901923.96047                  21241854.3274
        29.2504         27.2504
  23634267.9834   15339699.09447  11914432.43346                  23634275.7694
        20.0004         19.7504
  24227648.1634   15508112.48546   4184356.93346                  24227655.3974
        15.2504         14.2504
  22327054.6014   -3087855.48248  -2343403.22947                  22327061.2104
        28.5004         27.5004
  23706046.3664   -4651326.75646  -3516680.29546                  23706054.0114
        16.7504         16.7504
  23722673.6794   -5944229.27346  -4483041.18946                  23722682.5544
        17.0004         17.5004
 98  6 11 21  3 15.0030000  0  6G 6G30G10G17G26G23
  21244305.4914   -1209851.77748   -891864.20547                  21244311.2224
        29.5004         27.2504
  23647209.0544   15407702.99246  11967422.41046                  23647217.3314
        19.0004         19.5004
  24240504.1634   15575670.86746   4236999.80546                  24240511.1164
        16.2504         14.2504
  22327529.3044   -3085360.77947  -2341459.29947                  22327535.8664
        27.7504         27.7504
  23703929.9684   -4662446.98346  -3525345.35946                  23703937.1084
        17.2504         16.7504
  23718042.4374   -5968565.75146  -4502004.63046                  23718051.2534
        17.0004         17.5004
 98  6 11 21  3 30.0030000  0  6G 6G30G10G17G26G23
  21246786.3194   -1196815.27648   -881705.89347                  21246792.0384
        29.5004         27.5004
  23660162.3044   15475773.17746  12020464.03646                  23660170.2414
        18.5004         19.2504
  24253374.0694   15643302.23246   4289699.54446                  24253381.2694
        15.2504         14.2504
  22328016.2654   -3082800.92848  -2339464.59447                  22328023.0624
        28.0004         27.7504
  23701834.8744   -4673458.74846  -3533925.90546                  23701842.1794
        17.0004         16.5004
  23713427.4524   -5992816.58146  -4520901.32946                  23713435.9994
        16.7504         17.5004
 98  6 11 21  3 45.0030000  0  6G 6G30G10G17G26G23
  21249290.6014   -1183654.87648   -871451.04147                  21249296.0624
        29.5004         27.2504
  23673127.3124   15543904.99946  12073553.70146                  23673135.3434
        18.0004         19.0004
  24266256.9834   15711003.05446   4342453.39946                  24266263.9724
        15.0004         14.0004
  22328515.1164   -3080178.95948  -2337421.48447                  22328521.8084
        28.0004         28.0004
  23699759.8744   -4684362.79646  -3542422.51546                  23699767.1794
        17.7504         16.7504
  23708828.6474   -6016984.24946  -4539733.23146                  23708837.2764
        17.2504         17.5004
 98  6 11 21  4  0.0030000  0  6G 6G30G10G17G26G23
  21251819.8904   -1170364.05148   -861094.55547                  21251825.2804
        29.5004         27.2504
  23686104.5934   15612101.54046  12126693.78946                  23686112.6364
        18.0004         19.2504
  24279154.7024   15778780.11046   4395266.66046                  24279163.0504
        15.2504         14.2504
  22329027.2184   -3077488.44848  -2335324.97847                  22329033.8154
        28.2504         28.2504
  23697707.1014   -4695151.51646  -3550829.25946                  23697714.1944
        17.5004         16.5004
  23704246.0304   -6041064.98146  -4558497.38946                  23704254.5654
        17.7504         18.0004
 98  6 11 21  4 15.0030000  0  6G 6G30G10G17G26G23
  21254372.0774   -1156951.94448   -850643.57347                  21254377.7264
        30.0004         27.5004
  23699092.2024   15680350.33446  12179874.58946                  23699100.4794
        17.7504         18.7504
  24292064.9834   15846624.57546   4448132.44346                  24292073.1204
        14.2504         14.2504
  22329549.9294   -3074740.56548  -2333183.76447                  22329556.7024
        28.2504         28.0004
  23695674.1014   -4705833.62246  -3559152.93446                  23695680.8744
        17.7504         16.7504
  23699678.3824   -6065067.08846  -4577200.29746                  23699686.7654
        17.7504         18.5004
 98  6 11 21  4 30.0030000  0  6G 6G30G10G17G26G23
  21256947.3514   -1143418.53048   -840098.05047                  21256952.8004
        30.0004         27.7504
  23712089.8194   15748654.44646  12233098.51046                  23712098.1444
        17.5004         18.5004
  24304989.0074   15914539.13546   4501052.85346                  24304997.4954
        14.7504         13.7504
  22330084.8514   -3071929.74748  -2330993.49247                  22330091.6944
        28.5004         28.0004
  23693662.5074   -4716402.96246  -3567388.72546                  23693669.3394
        17.2504         16.5004
  23695127.8124   -6088981.26046  -4595834.66446                  23695136.0774
        17.5004         18.0004
 98  6 11 21  4 45.0030000  0  6G 6G30G10G17G26G23
  21259545.1404   -1129768.45748   -829461.63747                  21259550.8234
        30.0004         27.7504
  23725098.0304   15817012.81446  12286364.69546                  23725106.5894
        18.0004         18.5004
  24317925.3194   15982520.11146   4554024.99646                  24317932.6714
        14.5004         14.2504
  22330632.5304   -3069052.44747  -2328751.43147                  22330639.0694
        27.7504         28.0004
  23691672.7964   -4726859.23746  -3575536.42346                  23691679.7264
        18.0004         15.7504
  23690594.0934   -6112807.15046  -4614400.25046                  23690602.3584
        18.0004         18.5004
 98  6 11 21  5  0.0030000  0  6G 6G30G10G17G26G23
  21262164.6474   -1116001.82448   -818734.39647                  21262170.0624
        30.2504         28.0004
  23738117.1874   15885427.88746  12339675.07346                  23738125.7694
        17.7504         18.5004
  24330874.0694   16050566.91246   4607048.46146                  24330881.2804
        14.5004         13.7504
  22331193.1634   -3066105.79247  -2326455.32547                  22331199.8664
        27.7504         27.7504
  23689704.3584   -4737204.31446  -3583597.47246                  23689711.0034
        18.2504         16.5004
  23686076.7654   -6136544.22646  -4632896.62846                  23686085.3234
        18.5004         18.7504
 98  6 11 21  5 15.0030000  0  6G 6G30G10G17G26G23
  21264807.1474   -1102116.89848   -807914.99547                  21264812.5504
        31.0004         28.2504
  23751147.3354   15953900.47846  12393030.27246                  23751155.8234
        18.0004         18.5004
  24343835.1944   16118678.00246   4660121.99046                  24343843.0624
        14.7504         13.7504
  22331766.7574   -3063090.59447  -2324105.80747                  22331773.4954
        27.7504         27.7504
  23687757.0624   -4747436.79946  -3591570.78446                  23687763.8824
        17.5004         15.7504
  23681577.0854   -6160192.51246  -4651323.82146                  23681585.6674
        18.2504         18.7504
 98  6 11 21  5 30.0030000  0  6G 6G30G10G17G26G23
  21267471.8124   -1088113.22748   -797003.04547                  21267477.1904
        30.7504         28.0004
  23764188.3124   16022432.38646  12446431.68946                  23764196.5304
        18.0004         18.0004
  24356808.7414   16186853.24146   4713245.52446                  24356815.8124
        14.2504         13.7504
  22332353.8584   -3060007.07548  -2321703.05747                  22332360.5734
        28.5004         28.2504
  23685830.5384   -4757558.57246  -3599457.81146                  23685837.1714
        17.7504         16.0004
  23677093.9914   -6183749.03246  -4669679.50346                  23677102.4444
        18.0004         18.5004
 98  6 11 21  5 45.0030000  0  6G 6G30G10G17G26G23
  21270157.8664   -1073997.32248   -786003.63947                  21270163.3864
        30.0004         27.7504
  23777240.6944   16091022.30646  12499878.30846                  23777248.8904
        17.7504         18.2504
  24369792.4054   16255085.77946   4766413.70746                  24369799.3234
        14.2504         14.0004
  22332952.7104   -3056860.56348  -2319251.21747                  22332959.3314
        28.7504         28.0004
  23683924.1634   -4767575.56246  -3607263.21046                  23683930.4794
        16.5004         15.2504
  23672628.6634   -6207213.43846  -4687963.41346                  23672637.2334
        18.5004         18.7504
 98  6 11 21  6  0.0030000  0  6G 6G30G10G17G26G23
  21272866.3354   -1059764.67348   -774913.26747                  21272871.9254
        30.0004         27.7504
  23790305.9214   16159678.20146  12553376.33746                  23790314.5154
        17.7504         17.7504
  24382787.9214   16323377.19146   4819627.76746                  24382795.2264
        13.5004         13.5004
  22333564.1554   -3053646.98048  -2316747.11647                  22333570.5774
        28.7504         27.7504
  23682038.5304   -4777484.23946  -3614984.20246                  23682045.6014
        16.5004         15.7504
  23668182.1244   -6230579.83846  -4706170.95746                  23668190.6014
        18.7504         18.7504
 98  6 11 21  6 15.0030000  0  6G 6G30G10G17G26G23
  21275595.5694   -1045423.22548   -763738.12647                  21275601.1594
        30.0004         27.5004
  23803382.5224   16228395.01446  12606921.83246                  23803390.8474
        17.7504         18.0004
  24395792.8974   16391717.07846   4872879.58446                  24395799.5194
        14.0004         13.2504
  22334186.7104   -3050375.43048  -2314197.85147                  22334192.9444
        28.7504         28.0004
  23680171.3514   -4787295.58346  -3622629.36646                  23680178.1944
        16.2504         15.2504
  23663753.6794   -6253852.77746  -4724305.67646                  23663762.2724
        18.7504         19.0004
 98  6 11 21  6 30.0030000  0  6G 6G30G10G17G26G23
  21278344.3904   -1030976.61648   -752481.02947                  21278350.0154
        30.5004         28.0004
  23816470.1714   16297172.34246  12660514.48646                  23816478.6474
        18.0004         18.2504
  24408805.2654   16460098.77846   4926164.00146                  24408811.8974
        14.5004         13.0004
  22334819.6164   -3047048.60748  -2311605.51247                  22334826.1674
        29.5004         28.2504
  23678322.6874   -4797009.61646  -3630198.67946                  23678330.1794
        15.5004         15.5004
  23659342.6244   -6277032.33546  -4742367.62846                  23659351.0654
        18.7504         19.2504
 98  6 11 21  6 45.0030000  0  6G 6G30G10G17G26G23
  21281114.1084   -1016421.43148   -741139.33447                  21281119.6404
        30.5004         27.5004
  23829570.0544   16366014.30646  12714157.50446                  23829578.5774
        18.0004         18.0004
  24421826.7884   16528526.28746   4979484.09746                  24421833.5154
        14.0004         12.7504
  22335464.0304   -3043662.44648  -2308966.93447                  22335470.6284
        29.2504         28.2504
  23676493.1874   -4806622.81846  -3637689.43446                  23676501.0774
        15.2504         15.2504
  23654949.5624   -6300118.52146  -4760356.81746                  23654958.1444
        19.2504         19.2504
 98  6 11 21  7  0.0030000  0  6G 6G30G10G17G26G23
  21283905.3904   -1001754.25948   -729710.37247                  21283910.9214
        30.2504         27.7504
  23842682.7334   16434920.60146  12767850.64446                  23842690.8704
        18.5004         17.5004
  24434857.1714   16596999.29446   5032839.64446                  24434864.2184
        14.5004         13.5004
  22336119.1714   -3040219.08548  -2306283.78747                  22336125.7804
        28.2504         28.2504
  23674682.3274   -4816139.21646  -3645104.76546                  23674689.7264
        15.5004         15.5004
  23650573.4524   -6323113.55646  -4778274.99146                  23650581.8584
        18.7504         19.2504
 98  6 11 21  7 15.0030000  0  6G 6G30G10G17G26G23
  21286718.8434    -986969.18248   -718189.53847                  21286724.3274
        30.7504         27.5004
  23855808.0854   16503893.76446  12821595.89646                  23855816.4684
        18.5004         17.2504
  24447896.2964   16665521.78746   5086233.76546                  24447902.7534
        15.2504         13.7504
  22336785.2494   -3036718.71948  -2303556.21847                  22336791.7534
        29.0004         28.2504
  23672890.5384   -4825554.09046  -3652440.97446                  23672897.8784
        15.2504         15.7504
  23646215.8274   -6346014.95846  -4796120.19446                  23646224.2334
        19.0004         19.2504
 98  6 11 21  7 30.0030000  0  6G 6G30G10G17G26G23
  21289554.7574    -972065.73648   -706576.46747                  21289559.9954
        30.7504         27.5004
  23868945.3904   16572932.84446  12875392.50546                  23868953.8314
        18.5004         17.5004
  24460945.1874   16734094.38146   5139666.92846                  24460951.6204
        14.5004         13.2504
  22337462.3904   -3033160.78448  -2300783.79347                  22337468.9764
        29.0004         28.2504
  23671119.2264   -4834864.49646  -3659695.78746                  23671127.5154
        15.7504         16.2504
  23641875.3584   -6368824.03846  -4813893.45946                  23641884.0224
        19.2504         19.5004
 98  6 11 21  7 45.0030000  0  6G 6G30G10G17G26G23
  21292414.3274    -957039.58448   -694867.77947                  21292419.4954
        30.7504         27.5004
  23882096.0544   16642038.06446  12929240.65846                  23882104.9294
        18.7504         17.7504
  24474004.4294   16802720.23146   5193141.58446                  24474011.3704
        14.7504         13.5004
  22338150.9834   -3029542.19948  -2297964.10347                  22338157.5934
        29.0004         28.2504
  23669368.2024   -4844066.76446  -3666866.33346                  23669376.2224
        15.7504         16.2504
  23637552.9994   -6391537.68346  -4831592.36246                  23637561.3704
        19.5004         19.7504
 98  6 11 21  8  0.0030000  0  6G 6G30G10G17G26G23
  21295295.7414    -941896.69648   -683068.13347                  21295300.9334
        30.5004         27.7504
  23895256.7574   16711197.49646  12983131.04446                  23895265.6084
        19.2504         18.2504
  24487072.1324   16871390.05246   5246650.49346                  24487079.1554
        15.0004         13.2504
  22338848.5544   -3025876.59048  -2295107.77447                  22338855.0814
        29.5004         28.5004
  23667636.1634   -4853168.39246  -3673958.45646                  23667644.0654
        16.2504         16.2504
  23633246.4834   -6414167.68146  -4849226.09146                  23633254.8434
        19.5004         20.0004
 98  6 11 21  8 15.0030000  0  6G 6G30G10G17G26G23
  21298201.5934    -926627.04948   -671169.71447                  21298206.9254
        30.7504         27.5004
  23908428.1714   16780412.32346  13037064.60146                  23908436.9524
        19.5004         18.0004
  24500149.5854   16940112.40046   5300200.33146                  24500157.1714
        13.5004         13.2504
  22339556.0934   -3022157.98848  -2292210.15847                  22339562.4684
        28.5004         28.5004
  23665924.9294   -4862161.10246  -3680965.71946                  23665933.0194
        16.2504         16.5004
  23628956.4444   -6436711.96046  -4866793.01746                  23628965.1554
        19.5004         19.7504
 98  6 11 21  8 30.0030000  0  6G 6G30G10G17G26G23
  21301132.6714    -911225.10848   -659168.21547                  21301137.9564
        30.5004         27.5004
  23921609.9214   16849683.36746  13091041.96246                  23921618.6084
        19.5004         18.2504
  24513237.8904   17008893.80146   5353796.19446                  24513245.4994
        14.2504         13.5004
  22340275.0694   -3018379.28748  -2289265.70447                  22340281.6674
        28.7504         28.5004
  23664236.2724   -4871036.84846  -3687881.83746                  23664243.7764
        17.0004         16.7504
  23624682.8434   -6459169.33246  -4884292.22746                  23624691.1324
        19.2504         19.7504
 98  6 11 21  8 45.0030000  0  6G 6G30G10G17G26G23
  21304088.8194    -895689.51948   -647062.57147                  21304094.1284
        30.5004         27.5004
  23934802.3744   16919009.44746  13145062.21046                  23934811.3194
        19.7504         18.2504
  24526338.3744   17077736.19146   5407439.59546                  24526345.8314
        14.2504         13.5004
  22341006.3124   -3014536.52148  -2286271.32147                  22341013.0734
        29.0004         28.7504
  23662569.1794   -4879794.99246  -3694706.31546                  23662576.6474
        17.0004         16.7504
  23620425.8434   -6481541.55746  -4901725.08646                  23620434.3904
        19.5004         20.0004
 98  6 11 21  9  0.0030000  0  6G 6G30G10G17G26G23
  21307071.0154    -880018.80548   -634851.63447                  21307076.3474
        30.7504         27.7504
  23948005.4604   16988391.77846  13199126.29346                  23948014.3004
        19.5004         18.2504
  24539450.9914   17146643.73446   5461133.73846                  24539458.8474
        13.5004         13.2504
  22341749.6944   -3010630.67148  -2283227.79547                  22341756.3394
        29.2504         28.7504
  23660924.1944   -4888438.12446  -3701441.17846                  23660931.7224
        17.5004         16.5004
  23616184.7414   -6503827.48346  -4919090.70346                  23616193.3124
        19.7504         20.2504
 98  6 11 21  9 15.0030000  0  6G 6G30G10G17G26G23
  21310075.7964    -864227.92848   -622547.06747                  21310081.1754
        30.0004         27.7504
  23961216.2654   17057815.29046  13253222.45646                  23961225.5854
        19.2504         18.5004
  24552572.7724   17215599.23146   5514865.25846                  24552580.8394
        14.0004         13.2504
  22342502.3354   -3006675.93648  -2280146.17347                  22342508.9794
        29.2504         29.0004
  23659299.0544   -4896978.99646  -3708096.35446                  23659306.2064
        17.7504         17.0004
  23611957.8124   -6526040.08946  -4936399.18246                  23611966.4994
        19.5004         20.0004
 98  6 11 21  9 30.0030000  0  6G 6G30G10G17G26G23
  21313103.9374    -848315.10248   -610147.46747                  21313109.4684
        30.0004         27.5004
  23974436.0544   17127285.18046  13307354.76446                  23974445.3744
        19.7504         18.7504
  24565704.6794   17284608.59146   5568638.76046                  24565711.8314
        14.2504         13.2504
  22343265.1874   -3002666.22648  -2277021.71147                  22343271.9834
        29.0004         29.2504
  23657694.8354   -4905408.98446  -3714665.14546                  23657702.0224
        16.7504         16.5004
  23607745.3044   -6548174.56246  -4953646.77846                  23607753.9334
        19.7504         20.0004
 98  6 11 21  9 45.0030000  0  6G 6G30G10G17G26G23
  21316156.2574    -832274.46648   -597648.27547                  21316161.9174
        30.2504         27.5004
  23987665.6554   17196808.33447  13361528.57346                  23987675.1874
        20.0004         19.0004
  24578848.6164   17353679.22346   5622459.98446                  24578856.6474
        14.0004         13.2504
  22344040.1084   -2998593.82148  -2273848.39947                  22344046.8004
        29.5004         29.2504
  23656112.3744   -4913724.75246  -3721144.92046                  23656119.9604
        16.7504         16.7504
  23603549.2964   -6570225.98447  -4970829.66446                  23603558.0304
        20.0004         20.0004
 98  6 11 21 10  0.0030000  0  6G 6G30G10G17G26G23
  21319233.1874    -816104.77248   -585048.52147                  21319238.7534
        30.0004         27.5004
  24000906.1084   17266387.73847  13415746.20946                  24000915.3354
        20.5004         19.0004
  24592004.4134   17422811.60246   5676329.34446                  24592012.2104
        13.7504         13.2504
  22344827.7264   -2994455.12448  -2270623.42647                  22344834.4294
        29.2504         29.2504
  23654552.0224   -4921924.05246  -3727533.92946                  23654559.3274
        18.0004         16.5004
  23599369.5154   -6592190.82646  -4987945.08346                  23599378.2614
        19.7504         20.2504
 98  6 11 21 10 15.0030000  0  6G 6G30G10G17G26G23
  21322332.0694    -799821.14548   -572359.98847                  21322337.5544
        30.5004         27.2504
  24014155.9054   17336012.57447  13469999.25146                  24014164.8274
        21.0004         18.7504
  24605168.8904   17491992.68246   5730236.63446                  24605176.7574
        13.5004         13.2504
  22345626.5154   -2990257.36048  -2267352.42947                  22345633.1944
        29.7504         29.2504
  23653011.4054   -4930017.81946  -3733840.71946                  23653018.4994
        17.0004         16.7504
  23595203.7884   -6614081.56746  -5005002.76946                  23595212.4174
        19.5004         20.0004
 98  6 11 21 10 30.0030000  0  6G 6G30G10G17G26G23
  21325453.0304    -783420.46348   -559580.24347                  21325458.4334
        30.7504         27.5004
  24027414.8194   17405690.22547  13524293.45446                  24027423.8124
        20.0004         19.0004
  24618344.1714   17561227.43646   5784185.76946                  24618352.4484
        13.0004         12.7504
  22346438.9054   -2985988.36348  -2264025.93147                  22346445.5974
        30.0004         29.5004
  23651492.3974   -4938000.05246  -3740060.60146                  23651499.9374
        16.0004         16.7504
  23591054.1634   -6635887.78446  -5021994.58546                  23591062.9564
        19.7504         20.2504
 98  6 11 21 10 45.0030000  0  6G 6G30G10G17G26G23
  21328594.9214    -766908.72148   -546713.95747                  21328600.3354
        30.7504         27.5004
  24040685.0384   17475424.51046  13578631.78846                  24040694.0774
        19.5004         18.7504
  24631528.5304   17630513.20546   5838174.63446                  24631536.3274
        13.5004         13.2504
  22347264.3824   -2981650.36348  -2260645.65747                  22347271.0154
        29.7504         29.2504
  23649994.4054   -4945873.72046  -3746195.87846                  23650001.3234
        17.0004         16.5004
  23586920.7264   -6657609.67546  -5038920.69246                  23586929.6124
        19.5004         20.5004
 98  6 11 21 11  0.0030000  0  6G 6G30G10G17G26G23
  21331758.2804    -750285.05048   -533760.45947                  21331763.5424
        30.7504         27.7504
  24053965.9294   17545217.09647  13633015.53746                  24053974.6404
        20.0004         18.5004
  24644722.8194   17699851.07446   5892204.12346                  24644731.1444
        13.7504         13.0004
  22348102.0154   -2977248.54748  -2257215.66147                  22348108.8004
        29.2504         29.2504
  23648516.3274   -4953639.88946  -3752247.38846                  23648523.5624
        16.7504         17.0004
  23582803.3584   -6679245.84046  -5055780.00146                  23582812.2924
        19.2504         20.5004
 98  6 11 21 11 15.0030000  0  6G 6G30G10G17G26G23
  21334942.5224    -733551.75348   -520721.53047                  21334947.9014
        30.7504         27.5004
  24067257.3274   17615062.92646  13687440.78146                  24067266.3904
        19.7504         18.7504
  24657927.1874   17769236.43246   5946270.62346                  24657934.0194
        14.0004         13.0004
  22348950.8904   -2972788.15648  -2253740.01947                  22348957.6514
        29.7504         29.2504
  23647058.9374   -4961296.96946  -3758213.89246                  23647065.9014
        16.5004         17.0004
  23578702.1014   -6700798.32846  -5072574.10246                  23578711.0464
        19.7504         20.7504
 98  6 11 21 11 30.0030000  0  6G 6G30G10G17G26G23
  21338149.6404    -716699.37848   -507589.81747                  21338155.1474
        30.7504         27.7504
  24080560.2494   17684969.40846  13741913.28846                  24080569.2294
        19.7504         18.5004
  24671140.7804   17838676.76746   6000379.92446                  24671148.9764
        13.2504         12.2504
  22349812.8904   -2968258.00148  -2250210.02047                  22349819.5344
        29.5004         29.2504
  23645624.7494   -4968833.81646  -3764086.71346                  23645632.0074
        16.7504         17.0004
  23574617.8824   -6722259.08046  -5089296.72446                  23574626.8274
        19.7504         21.0004
 98  6 11 21 11 45.0030000  0  6G 6G30G10G17G26G23
  21341377.7334    -699735.24148   -494371.02147                  21341383.2654
        31.0004         27.5004
  24093873.1324   17754928.44346  13796426.74846                  24093882.0894
        19.2504         18.7504
  24684363.6634   17908163.61346   6054525.47446                  24684371.5194
        13.5004         12.7504
  22350686.2414   -2963667.60748  -2246633.07947                  22350692.9214
        29.5004         29.2504
  23644211.6634   -4976261.61246  -3769874.55646                  23644219.0384
        17.0004         17.0004
  23570549.9214   -6743636.74946  -5105954.60846                  23570558.5974
        19.7504         20.7504
 98  6 11 21 12  0.0030000  0  6G 6G30G10G17G26G23
  21344627.5224    -682658.11248   -481064.17347                  21344632.9134
        31.2504         27.5004
  24107195.0694   17824935.93546  13850977.96346                  24107204.3434
        18.2504         18.5004
  24697594.8824   17977693.49646   6108704.57446                  24697601.8474
        14.0004         12.7504
  22351571.1324   -2959017.77448  -2243009.82047                  22351577.9294
        28.7504         29.5004
  23642818.6714   -4983580.68246  -3775577.67746                  23642825.7884
        17.0004         17.0004
  23566497.9294   -6764929.91147  -5122546.64046                  23566506.5934
        20.0004         20.7504
 98  6 11 21 12 15.0030000  0  6G 6G30G10G17G26G23
  21347898.4604    -665468.80848   -467669.92047                  21347903.7924
        30.7504         27.5004
  24120525.4134   17894989.09946  13905564.76246                  24120534.4174
        18.2504         18.5004
  24710833.6474   18047263.55246   6162914.97346                  24710841.3864
        14.0004         12.7504
  22352466.5224   -2954312.92348  -2239343.69047                  22352473.3664
        29.2504         29.2504
  23641447.1244   -4990789.73946  -3781195.08546                  23641454.3824
        17.5004         17.0004
  23562462.0384   -6786139.04847  -5139073.19946                  23562470.9254
        20.2504         21.2504
 98  6 11 21 12 30.0030000  0  6G 6G30G10G17G26G23
  21351192.7964    -648157.35948   -454180.48647                  21351198.1164
        31.2504         27.5004
  24133866.2494   17965092.38546  13960190.62246                  24133875.8624
        18.0004         18.2504
  24724081.6474   18116881.81146   6217162.93546                  24724089.2334
        14.0004         12.7504
  22353372.3744   -2949552.54948  -2235634.30647                  22353379.2064
        28.2504         29.0004
  23640097.5624   -4997882.09246  -3786721.53346                  23640104.4564
        17.7504         17.0004
  23558443.0304   -6807258.00447  -5155529.48946                  23558451.7654
        20.2504         21.2504
 98  6 11 21 12 45.0030000  0  6G 6G30G10G17G26G23
  21354511.4214    -630718.37548   -440591.67447                  21354516.7654
        30.5004         27.5004
  24147216.7024   18035249.07946  14014858.10446                  24147225.6834
        18.0004         18.0004
  24737339.1084   18186550.55746   6271450.22546                  24737346.0624
        13.0004         12.5004
  22354288.3274   -2944738.14148  -2231882.80947                  22354295.1364
        28.7504         29.2504
  23638770.7654   -5004854.16346  -3792154.27546                  23638777.4444
        18.0004         17.2504
  23554442.0384   -6828283.69847  -5171913.10346                  23554450.5734
        20.7504         21.7504
 98  6 11 21 13  0.0030000  0  6G 6G30G10G17G26G23
  21357854.1404    -613151.49148   -426903.20247                  21357859.4134
        30.7504         27.2504
  24160576.0854   18105455.35846  14069564.21346                  24160584.7024
        17.7504         18.2504
  24750605.9684   18256268.24446   6325775.66346                  24750613.1674
        13.0004         12.2504
  22355214.2724   -2939873.94548  -2228092.51847                  22355221.2844
        28.5004         29.5004
  23637466.6014   -5011707.42046  -3797494.41746                  23637473.2454
        17.7504         17.2504
  23550458.4214   -6849218.45347  -5188225.86246                  23550467.1444
        20.5004         21.7504
 98  6 11 21 13 15.0030000  0  6G 6G30G10G17G26G23
  21361221.2024    -595457.94148   -413116.02547                  21361226.4294
        30.7504         27.2504
  24173944.3274   18175704.85046  14124303.99646                  24173953.5774
        17.2504         18.0004
  24763880.6874   18326030.71946   6380136.00546                  24763888.9524
        12.5004         12.2504
  22356148.9764   -2934961.01348  -2224264.25047                  22356155.9294
        28.7504         29.0004
  23636184.9134   -5018442.21046  -3802742.26146                  23636191.9604
        18.0004         17.5004
  23546491.9994   -6870062.48747  -5204467.92346                  23546500.4994
        21.2504         22.0004
 98  6 11 21 13 30.0030000  0  6G 6G30G10G17G26G23
  21364611.6244    -577640.39248   -399232.23847                  21364617.0384
        30.7504         27.2504
  24187320.3904   18245996.91446  14179076.94246                  24187329.7694
        18.0004         18.0004
  24777164.8974   18395835.22746   6434529.09845                  24777172.7064
        13.0004         11.7504
  22357093.7884   -2929995.97748  -2220395.38547                  22357100.5034
        28.0004         29.0004
  23634925.6554   -5025059.56446  -3807898.59246                  23634933.0074
        18.5004         17.5004
  23542543.1404   -6890814.63547  -5220638.39046                  23542551.6514
        21.5004         22.2504
 98  6 11 21 13 45.0030000  0  6G 6G30G10G17G26G23
  21368025.7654    -559698.50748   -385251.54747                  21368031.0384
        30.5004         27.2504
  24200705.5854   18316335.41946  14233886.08046                  24200714.3784
        17.7504         18.5004
  24790457.1164   18465685.05446   6488957.49146                  24790464.4094
        12.5004         12.0004
  22358048.3584   -2924977.50548  -2216484.87247                  22358055.0624
        29.0004         29.2504
  23633688.8904   -5031558.90246  -3812962.95946                  23633696.0194
        18.2504         17.5004
  23538611.6554   -6911473.83847  -5236736.42946                  23538620.2724
        21.2504         22.2504
 98  6 11 21 14  0.0030000  0  6G 6G30G10G17G26G23
  21371463.1794    -541635.00448   -371176.10047                  21371468.6164
        30.2504         27.2504
  24214098.7804   18386717.11746  14288728.87446                  24214107.7844
        18.0004         18.5004
  24803756.1404   18535576.86246   6543418.61546                  24803764.0654
        12.2504         12.0004
  22359013.4994   -2919907.18948  -2212533.97447                  22359020.1674
        29.0004         29.2504
  23632474.4834   -5037940.80246  -3817935.81946                  23632481.8004
        18.0004         17.2504
  23534698.0694   -6932040.01147  -5252761.97446                  23534706.5584
        21.7504         22.2504
 98  6 11 21 14 15.0030000  0  6G 6G30G10G17G26G23
  21374923.1404    -523453.12548   -357008.40947                  21374928.2964
        30.7504         27.2504
  24227499.5224   18457137.18746  14343601.57546                  24227508.6084
        18.2504         18.2504
  24817064.0074   18605507.00046   6597909.58945                  24817071.9794
        12.5004         11.7504
  22359987.8514   -2914787.20448  -2208544.37047                  22359994.6474
        28.7504         29.2504
  23631282.0224   -5044205.53846  -3822817.38446                  23631289.3044
        17.7504         17.5004
  23530801.1634   -6952517.50647  -5268718.42246                  23530809.5344
        21.5004         22.5004
 98  6 11 21 14 30.0030000  0  6G 6G30G10G17G26G23
  21378407.0854    -505145.28748   -342742.56547                  21378412.3824
        30.5004         27.2504
  24240908.8584   18527603.41246  14398510.23946                  24240917.8274
        17.7504         18.0004
  24830380.0624   18675482.64946   6652436.04046                  24830388.1284
        12.2504         12.0004
  22360973.3354   -2909608.54948  -2204509.04447                  22360980.0384
        28.5004         29.2504
  23630113.3904   -5050346.70846  -3827602.66246                  23630119.8474
        18.2504         17.2504
  23526922.8904   -6972898.45547  -5284599.63846                  23526931.3784
        22.2504         22.7504
 98  6 11 21 14 45.0030000  0  6G 6G30G10G17G26G23
  21381912.3744    -486725.06348   -328389.14847                  21381917.6594
        31.0004         27.2504
  24254325.3274   18598105.43046  14453446.77646                  24254334.1554
        18.5004         18.2504
  24843701.7024   18745492.17346   6706988.87946                  24843709.7694
        13.2504         12.2504
  22361969.1244   -2904375.69848  -2200431.49647                  22361975.8274
        29.2504         29.2504
  23628965.7264   -5056378.24046  -3832302.50546                  23628972.3234
        18.7504         17.7504
  23523061.1714   -6993191.20447  -5300412.12946                  23523069.3314
        22.0004         22.7504
 98  6 11 21 15  0.0030000  0  6G 6G30G10G17G26G23
  21385439.9914    -468186.95048   -313943.86947                  21385445.2414
        31.0004         27.5004
  24267748.9054   18668648.84446  14508415.59146                  24267758.0734
        17.7504         18.2504
  24857032.6874   18815543.96645   6761574.68645                  24857040.1904
        11.7504         11.5004
  22362977.9054   -2899075.48048  -2196301.45847                  22362984.4914
        28.2504         29.2504
  23627839.8904   -5062293.63546  -3836911.86346                  23627846.5694
        18.5004         17.7504
  23519217.8974   -7013387.84547  -5316149.73546                  23519226.1984
        22.2504         23.2504
 98  6 11 21 15 15.0030000  0  6G 6G30G10G17G26G23
  21388990.7024    -449528.21048   -299404.59747                  21388996.0224
        31.0004         27.5004
  24281180.8124   18739233.96646  14563416.88846                  24281189.7104
        17.7504         18.0004
  24870371.3194   18885639.75446   6816194.72946                  24870379.0584
        12.5004         12.0004
  22363999.6084   -2893706.25048  -2192117.63247                  22364006.3354
        29.2504         29.2504
  23626737.0464   -5068089.41346  -3841428.01146                  23626743.8904
        18.2504         18.0004
  23515392.6714   -7033489.13347  -5331813.02846                  23515401.0544
        22.0004         23.2504
 98  6 11 21 15 30.0030000  0  6G 6G30G10G17G26G23
  21392565.0154    -430744.49748   -284767.93747                  21392570.3354
        31.2504         27.7504
  24294621.2654   18809862.65846  14618452.14746                  24294630.5154
        18.7504         18.5004
  24883718.9834   18955782.83146   6870851.63545                  24883726.8514
        12.7504         11.5004
  22365034.3194   -2888267.29148  -2187879.47747                  22365040.9524
        28.5004         29.2504
  23625657.2334   -5073763.95846  -3845849.70046                  23625664.3044
        18.2504         18.0004
  23511585.9914   -7053493.83047  -5347401.05646                  23511594.3274
        22.2504         23.2504
 98  6 11 21 15 45.0030000  0  6G 6G30G10G17G26G23
  21396162.0544    -411842.32148   -270038.98147                  21396167.3514
        31.2504         27.7504
  24308068.0074   18880524.96246  14673513.60046                  24308076.5774
        18.5004         18.0004
  24897074.7654   19025965.76246   6925539.61345                  24897081.9174
        12.7504         11.7504
  22366080.7024   -2882768.94948  -2183595.04847                  22366087.3474
        28.7504         29.2504
  23624598.6554   -5079326.64346  -3850184.20546                  23624606.0894
        18.0004         18.2504
  23507795.7184   -7073409.57247  -5362919.76746                  23507804.0194
        22.2504         23.0004
 98  6 11 21 16  0.0030000  0  6G 6G30G10G17G26G23
  21399782.1874    -392818.52248   -255215.25147                  21399787.4604
        31.0004         27.7504
  24321520.6714   18951218.67746  14728599.52046                  24321529.6634
        18.2504         18.5004
  24910437.3584   19096188.75546   6980258.80646                  24910445.5544
        12.7504         12.2504
  22367138.2724   -2877212.08148  -2179265.01947                  22367144.9874
        28.0004         29.2504
  23623561.1474   -5084778.21446  -3854432.12346                  23623568.6284
        18.5004         18.2504
  23504023.0464   -7093236.63747  -5378369.38346                  23504031.3234
        23.0004         23.5004
 98  6 11 21 16 15.0030000  0  6G 6G30G10G17G26G23
  21403427.0544    -373664.30348   -240289.89047                  21403432.5624
        31.2504         27.7504
  24334979.8514   19021946.29146  14783711.84946                  24334988.7144
        18.5004         18.0004
  24923809.7574   19166456.91546   7035013.16546                  24923818.2334
        13.0004         12.2504
  22368207.6164   -2871591.41248  -2174885.27047                  22368214.5584
        28.5004         29.0004
  23622545.4524   -5090114.86746  -3858590.51446                  23622552.5694
        18.2504         18.2504
  23500268.1634   -7112969.41747  -5393745.53046                  23500276.3354
        23.0004         23.7504
 98  6 11 21 16 30.0030000  0  6G 6G30G10G17G26G23
  21407097.6014    -354376.39548   -225260.36647                  21407102.8864
        31.5004         27.7504
  24348446.6324   19092711.94546  14838853.82946                  24348455.6014
        18.7504         18.0004
  24937190.3124   19236773.35146   7089805.16346                  24937198.8124
        12.2504         12.5004
  22369289.3904   -2865907.33948  -2170456.11947                  22369296.0224
        28.7504         29.0004
  23621551.6714   -5095335.82446  -3862658.75546                  23621559.1284
        17.5004         18.5004
  23496531.1554   -7132607.05247  -5409047.54146                  23496539.4684
        23.0004         23.7504
 98  6 11 21 16 45.0030000  0  6G 6G30G10G17G26G23
  21410791.9764    -334962.06048   -210132.32147                  21410797.4014
        30.7504         27.7504
  24361918.6014   19163510.82046  14894021.68446                  24361927.5344
        18.7504         18.2504
  24950579.3974   19307133.28846   7144631.04746                  24950586.7614
        12.2504         12.0004
  22370381.7024   -2860167.77147  -2165983.71947                  22370388.4994
        27.7504         29.0004
  23620578.7264   -5100448.58246  -3866642.67346                  23620585.9834
        18.0004         18.5004
  23492810.9374   -7152155.94047  -5424280.39246                  23492819.3194
        22.5004         23.7504
 98  6 11 21 17  0.0030000  0  6G 6G30G10G17G26G23
  21414511.5774    -315414.56548   -194900.51247                  21414517.0384
        30.7504         27.5004
  24375399.2724   19234350.97646  14949221.72146                  24375408.5114
        18.5004         18.0004
  24963978.3274   19377545.63945   7199497.79445                  24963986.6634
        11.7504         11.2504
  22371485.0154   -2854369.52348  -2161465.59747                  22371491.6714
        28.5004         28.7504
  23619628.9214   -5105441.15746  -3870532.93846                  23619636.5654
        17.7504         18.2504
  23489108.6944   -7171611.02647  -5439440.14646                  23489117.1594
        22.5004         23.5004
 98  6 11 21 17 15.0040000  0  6G 6G30G10G17G26G23
  21418256.2074    -295736.96248   -179567.32547                  21418261.7154
        30.7504         27.5004
  24388887.5824   19305232.84046  15004454.23646                  24388896.5394
        18.2504         18.0004
  24977386.6524   19448007.11846   7254402.80845                  24977394.3204
        12.2504         11.2504
  22372597.4494   -2848522.80548  -2156909.70947                  22372604.1764
        28.5004         29.0004
  23618701.7234   -5110315.19446  -3874330.85046                  23618708.8634
        17.7504         18.2504
  23485422.6684   -7190981.06747  -5454533.64246                  23485430.8404
        22.2504         23.7504
 98  6 11 21 17 30.0040000  0  6G 6G30G10G17G26G23
  21422025.0744    -275931.31948   -164134.36447                  21422030.6644
        30.5004         27.7504
  24402383.3324   19376152.10946  15059715.91446                  24402392.7344
        18.5004         17.5004
  24990802.5984   19518508.50246   7309338.89645                  24990809.7624
        12.5004         11.7504
  22373719.0434   -2842628.80948  -2152316.97347                  22373725.9264
        28.7504         29.2504
  23617796.6994   -5115068.69046  -3878034.82146                  23617803.6994
        17.5004         18.0004
  23481754.3164   -7210258.69247  -5469555.11646                  23481762.6524
        22.2504         23.7504
 98  6 11 21 17 45.0040000  0  6G 6G30G10G17G26G23
  21425818.1054    -255999.32248   -148602.94547                  21425823.6484
        30.2504         27.2504
  24415886.8324   19447114.90546  15115011.50646                  24415896.0944
        18.0004         17.5004
  25004227.0514   19589054.00246   7364309.39746                  25004233.8484
        12.5004         12.0004
  22374850.4654   -2836683.21548  -2147684.03247                  22374857.1564
        28.5004         29.0004
  23616914.8634   -5119702.73346  -3881645.72646                  23616921.9344
        18.0004         18.2504
  23478104.1454   -7229440.14947  -5484501.66146                  23478112.5274
        22.0004         23.5004
 98  6 11 21 18  0.0040000  0  6G 6G30G10G17G26G23
  21429633.9494    -235945.72548   -132976.77447                  21429639.3874
        30.2504         27.2504
  24429399.3244   19518122.73746  15170342.18646                  24429408.4344
        17.5004         17.2504
  25017659.0824   19659640.06745   7419311.48945                  25017666.1524
        11.7504         11.7504
  22375992.0354   -2830683.86148  -2143009.20647                  22375998.5044
        28.7504         29.0004
  23616056.2934   -5124214.98946  -3885161.71946                  23616063.2234
        18.2504         18.0004
  23474471.4574   -7248529.17847  -5499376.18346                  23474479.8874
        21.5004         23.5004
 98  6 11 21 18 15.0040000  0  6G 6G30G10G17G26G23
  21433473.4184    -215769.68648   -117255.19047                  21433478.8324
        30.2504         27.2504
  24442920.8164   19589178.53846  15225710.24246                  24442930.4534
        17.2504         16.7504
  25031099.3954   19730267.38946   7474345.73046                  25031106.7584
        12.5004         12.0004
  22377144.6844   -2824626.52548  -2138289.20347                  22377151.2114
        28.7504         29.0004
  23615221.0204   -5128602.02646  -3888580.13746                  23615228.1254
        18.7504         18.2504
  23470856.6134   -7267524.84247  -5514177.95246                  23470865.1604
        21.2504         23.2504
 98  6 11 21 18 30.0040000  0  6G 6G30G10G17G26G23
  21437334.1134    -195481.27248   -101446.04047                  21437339.6094
        30.2504         27.2504
  24456451.0824   19660280.45146  15281114.24246                  24456460.8124
        17.2504         17.2504
  25044546.4104   19800930.07146   7529407.52046                  25044554.5474
        12.7504         12.2504
  22378307.0594   -2818518.08848  -2133529.36847                  22378313.6454
        28.2504         29.0004
  23614409.8324   -5132866.43746  -3891903.02046                  23614416.7274
        19.0004         18.2504
  23467258.5204   -7286430.65847  -5528909.70446                  23467267.0204
        21.5004         23.2504
 98  6 11 21 18 45.0040000  0  6G 6G30G10G17G26G23
  21441215.3634    -175083.60048    -85551.76147                  21441220.8484
        30.5004         27.0004
  24469990.6454   19731429.54046  15336554.99646                  24470000.1174
        17.0004         16.5004
  25057999.0434   19871627.14146   7584496.13446                  25058006.6994
        12.7504         12.2504
  22379479.5904   -2812357.79948  -2128729.13847                  22379486.3054
        29.2504         29.2504
  23613622.0824   -5137006.28746  -3895128.82946                  23613629.1294
        17.7504         17.7504
  23463678.4964   -7305245.53847  -5543570.60946                  23463686.9264
        21.0004         22.7504
 98  6 11 21 19  0.0040000  0  6G 6G30G10G17G26G23
  21445117.6454    -154578.03848    -69573.41347                  21445123.2114
        30.2504         27.2504
  24483538.4344   19802622.05046  15392029.58246                  24483547.8954
        16.7504         17.2504
  25071458.3404   19942355.52946   7639609.10746                  25071466.2074
        12.5004         12.5004
  22380661.3244   -2806146.48348  -2123889.14847                  22380667.9454
        28.2504         29.2504
  23612858.4414   -5141018.75246  -3898255.36746                  23612864.9574
        18.0004         18.0004
  23460115.3244   -7323968.37547  -5558159.78146                  23460123.7194
        20.5004         22.7504
 98  6 11 21 19 15.0040000  0  6G 6G30G10G17G26G23
  21449041.7304    -133957.75248    -53505.66547                  21449047.1684
        30.5004         27.2504
  24497094.4184   19873862.50046  15447541.53146                  24497103.7974
        17.0004         17.0004
  25084924.3244   20013119.95845   7694750.19646                  25084932.4964
        11.0004         12.2504
  22381854.1914   -2799878.09448  -2119004.67247                  22381861.0354
        28.0004         29.2504
  23612120.2304   -5144897.51646  -3901277.74246                  23612126.6054
        18.2504         17.7504
  23456571.8244   -7342590.68447  -5572670.62646                  23456580.2894
        21.0004         23.0004
 98  6 11 21 19 30.0040000  0  6G 6G30G10G17G26G23
  21452989.5044    -113212.12948    -37340.25147                  21452995.1174
        30.5004         27.5004
  24510661.8794   19945158.46946  15503096.72546                  24510671.3404
        17.0004         17.5004
  25098399.5204   20083929.60646   7749926.50746                  25098407.9964
        12.0004         12.0004
  22383060.1994   -2793540.38048  -2114066.18447                  22383067.0084
        29.0004         29.2504
  23611408.2234   -5148638.32346  -3904192.61146                  23611414.3054
        18.5004         18.0004
  23453049.5984   -7361101.60947  -5587094.67546                  23453057.8054
        21.2504         23.0004
 98  6 11 21 19 45.0040000  0  6G 6G30G10G17G26G23
  21456960.4494     -92344.80348    -21080.00347                  21456965.9924
        30.7504         27.5004
  24524238.0044   20016501.51546  15558688.60746                  24524247.3484
        16.2504         17.0004
  25111881.9344   20154780.87445   7805135.23945                  25111889.8714
        11.5004         11.7504
  22384278.6684   -2787136.79048  -2109076.36547                  22384285.4884
        28.2504         29.2504
  23610721.6764   -5152246.43346  -3907004.08746                  23610728.0624
        19.2504         18.0004
  23449547.2384   -7379505.85547  -5601435.59946                  23449555.4344
        21.0004         22.5004
 98  6 11 21 20  0.0040000  0  6G 6G30G10G17G26G23
  21460954.1054     -71358.55248     -4727.09647                  21460959.7894
        30.5004         27.7504
  24537820.8874   20087881.16646  15614309.01946                  24537830.7704
        16.5004         17.5004
  25125370.2544   20225665.71345   7860370.17346                  25125378.5784
        11.5004         12.0004
  22385508.0594   -2780675.90048  -2104041.89447                  22385514.7274
        28.0004         29.0004
  23610059.6994   -5155726.82946  -3909716.03646                  23610066.2034
        19.7504         18.0004
  23446062.8404   -7397815.61747  -5615702.90246                  23446070.9654
        21.2504         22.7504
 98  6 11 21 20 15.0040000  0  6G 6G30G10G17G26G23
  21464972.2774     -50242.54248     11726.92847                  21464977.8204
        30.5004         27.7504
  24551412.1374   20159301.09546  15669960.80546                  24551421.6684
        17.0004         17.5004
  25138867.5824   20296593.63645   7915638.62546                  25138875.6844
        11.7504         12.2504
  22386749.5434   -2774153.12848  -2098959.20347                  22386756.3524
        28.7504         29.2504
  23609422.3954   -5159073.52946  -3912323.81946                  23609428.9224
        18.0004         17.7504
  23442597.7154   -7416026.10847  -5629892.84746                  23442606.0044
        21.0004         22.5004
 98  6 11 21 20 30.0040000  0  6G 6G30G10G17G26G23
  21469014.3014     -29002.08448     28277.92747                  21469020.0084
        30.7504         28.0004
  24565009.3014   20230753.36346  15725637.80146                  24565018.8554
        16.7504         17.2504
  25152372.1604   20367559.79346   7970936.89346                  25152380.0864
        12.2504         12.0004
  22388000.6134   -2767578.69748  -2093836.26247                  22388007.4844
        28.5004         29.2504
  23608809.4104   -5162295.81646  -3914834.65846                  23608816.2074
        18.2504         17.7504
  23439150.7074   -7434141.10147  -5644008.37946                  23439158.8094
        20.5004         22.5004
 98  6 11 21 20 45.0040000  0  6G 6G30G10G17G26G23
  21473081.1134      -7631.53648     44930.28647                  21473086.7854
        30.5004         27.7504
  24578613.0204   20302241.49546  15781342.74446                  24578622.5624
        16.5004         16.7504
  25165884.2624   20438567.01645   8026267.16745                  25165892.4104
        11.5004         11.7504
  22389261.7704   -2760950.55848  -2088671.46747                  22389268.6414
        28.0004         29.2504
  23608220.4184   -5165390.95146  -3917246.41746                  23608227.4534
        18.2504         18.0004
  23435721.3404   -7452161.01747  -5658049.82946                  23435729.3714
        20.5004         22.5004
 98  6 11 21 21  0.0040000  0  6G 6G30G10G17G26G23
  21477172.7704      13871.37948     61685.79947                  21477178.3594
        31.0004         28.0004
  24592222.5824   20373760.16546  15837071.47146                  24592231.7624
        16.7504         16.7504
  25179404.2154   20509612.12045   8081626.96345                  25179412.7504
        11.0004         11.7504
  22390533.6524   -2754266.94548  -2083463.44747                  22390540.4144
        28.2504         29.0004
  23607655.2934   -5168360.12446  -3919560.02146                  23607662.1524
        18.2504         17.7504
  23432309.6524   -7470089.19647  -5672019.78746                  23432317.5554
        21.2504         22.2504
 98  6 11 21 21 15.0040000  0  6G 6G30G10G17G26G23
  21481289.8794      35506.70548     78544.48647                  21481295.5864
        30.5004         28.0004
  24605837.8954   20445308.73446  15892823.50346                  24605847.5204
        16.7504         16.7504
  25192930.1604   20580693.32445   8137014.86546                  25192938.3444
        11.5004         12.2504
  22391816.0274   -2747527.39247  -2078211.84147                  22391822.8124
        27.7504         29.0004
  23607113.7384   -5171206.86746  -3921778.22446                  23607120.2304
        17.7504         18.0004
  23428915.1764   -7487927.12647  -5685919.42846                  23428922.9844
        20.7504         22.5004
 98  6 11 21 21 30.0040000  0  6G 6G30G10G17G26G23
  21485433.0124      57278.64748     95509.62347                  21485438.6954
        30.7504         28.0004
  24619460.2384   20516891.40646  15948602.11346                  24619469.6174
        16.2504         16.5004
  25206464.4494   20651816.71245   8192435.65846                  25206473.5354
        11.5004         12.0004
  22393110.7774   -2740724.24448  -2072910.67247                  22393117.7194
        28.2504         29.0004
  23606595.3484   -5173931.78846  -3923901.50546                  23606602.2304
        19.2504         18.5004
  23425538.3094   -7505672.94347  -5699747.29246                  23425546.2934
        21.0004         22.5004
 98  6 11 21 21 45.0040000  0  7G 6G30G10G22G17G26G23
  21489600.7544      79181.04948    112576.42547                  21489606.4264
        30.5004         28.0004
  24633086.7154   20588500.20446  16004401.07346                  24633096.2934
        15.7504         17.0004
  25220005.0594   20722971.69245   8247881.04545                  25220013.7344
        11.0004         11.5004
  25120367.9654       -496.67453
         5.0004
  22394416.0744   -2733865.50448  -2067566.19347                  22394422.8714
        28.5004         29.0004
  23606098.4804   -5176541.39146  -3925934.92346                  23606104.9494
        18.5004         18.7504
  23422176.9264   -7523336.12447  -5713510.76246                  23422185.1094
        20.2504         22.2504
 98  6 11 21 22  0.0040000  0  7G 6G30G10G22G17G26G23
  21493794.0594     101217.07948    129747.35447                  21493799.6374
        30.0004         27.7504
  24646718.6844   20660136.54146  16060221.49246                  24646728.2854
        16.0004         16.7504
  25233551.1684   20794160.15645   8303352.55845                  25233559.9264
        11.2504         11.5004
  25120210.0984      -1330.58443
         5.2504
  22395731.8954   -2726949.87448  -2062177.38647                  22395738.5274
        29.0004         29.0004
  23605624.4654   -5179032.16946  -3927875.75046                  23605631.4884
        19.5004         18.7504
  23418831.5274   -7540916.30447  -5727209.55746                  23418839.5474
        20.5004         22.2504
 98  6 11 21 22 15.0040000  0  7G 6G30G10G22G17G26G23
  21498011.8554     123381.63048    147018.41847                  21498017.4694
        30.0004         27.5004
  24660355.5594   20731799.20946  16116062.41746                  24660365.0434
        16.7504         16.7504
  25247104.1684   20865380.80345   8358849.11945                  25247113.0204
        11.0004         11.7504
  25120075.0664      -2036.98143
         6.0004
  22397058.3164   -2719979.03348  -2056745.55547                  22397064.8094
        29.5004         29.0004
  23605172.7074   -5181405.23546  -3929724.86146                  23605179.8014
        18.7504         18.7504
  23415502.1914   -7558412.60347  -5740842.99646                  23415509.8954
        21.0004         22.0004
 98  6 11 21 22 30.0040000  0  7G 6G30G10G22G17G26G23
  21502254.3164     145676.25848    164390.84547                  21502259.9304
        29.5004         27.5004
  24673999.0044   20803494.13046  16171928.48346                  24674008.6054
        16.7504         16.7504
  25260663.8244   20936637.75945   8414373.97945                  25260671.7274
        10.7504         11.0004
  25119966.5514      -2608.35544
         6.5004
  22398396.6914   -2712946.42148  -2051265.59047                  22398403.4184
        28.7504         29.0004
  23604744.3404   -5183657.51746  -3931479.85846                  23604751.4454
        19.5004         18.5004
  23412190.3404   -7575816.26847  -5754404.25046                  23412198.1254
        20.2504         22.2504
 98  6 11 21 22 45.0040000  0  7G 6G30G10G22G17G26G23
  21506519.2854     168088.32648    181854.78547                  21506524.7934
        30.2504         27.5004
  24687646.1524   20875210.34646  16227811.14446                  24687655.2624
        16.2504         16.5004
  25274227.6524   21007915.04345   8469914.68645                  25274236.4224
        11.2504         11.5004
  25119881.6374      -3053.80245
         7.7504
  22399744.2934   -2705862.67748  -2045745.78147                  22399750.9964
        28.2504         29.0004
  23604337.1374   -5185797.38446  -3933147.25146                  23604344.1604
        19.2504         18.2504
  23408893.9104   -7593137.63547  -5767901.36346                  23408902.0004
        20.2504         22.5004
 98  6 11 21 23  0.0040000  0  7G 6G30G10G22G17G26G23
  21510807.2304     190621.98348    199413.47547                  21510812.7154
        30.2504         27.5004
  24701297.9654   20946951.90246  16283713.55046                  24701307.1684
        16.2504         15.7504
  25287796.7704   21079218.54145   8525475.83145                  25287805.5514
        11.2504         11.0004
  25119822.0204      -3367.51345      -100.95355                  25119830.7894
         8.7504          8.5004
  22401103.9494   -2698718.16748  -2040178.62147                  22401110.6994
        28.0004         28.7504
  23603952.8484   -5187816.57747  -3934720.62046                  23603958.9064
        20.0004         18.5004
  23405614.7934   -7610370.04647  -5781329.17646                  23405622.7304
        20.0004         22.5004
 98  6 11 21 23 15.0040000  0  7G 6G30G10G22G17G26G23
  21515118.2774     213276.78048    217066.55547                  21515123.9024
        30.0004         27.7504
  24714953.9494   21018716.16146  16339633.65446                  24714963.7734
        15.5004         15.7504
  25301370.5354   21150550.06445   8581058.78245                  25301379.4804
        11.0004         10.7504
  25119787.1764      -3547.44845      -241.17745                  25119794.2464
         9.0004          8.7504
  22402474.8794   -2691514.96148  -2034565.73047                  22402481.6994
        28.5004         29.0004
  23603591.4264   -5189715.67847  -3936200.40146                  23603597.9654
        20.0004         19.0004
  23402353.1374   -7627509.21547  -5794684.32546                  23402360.8874
        20.2504         22.2504
 98  6 11 21 23 30.0040000  0  7G 6G30G10G22G17G26G23
  21519452.6684     236053.64048    234814.75047                  21519458.2234
        30.0004         27.7504
  24728615.3794   21090504.85146  16395572.77546                  24728624.6054
        15.2504         15.2504
  25314949.7234   21221911.66445   8636665.18445                  25314957.5314
        11.0004         10.5004
  25119778.6524      -3592.84945      -276.53545                  25119785.6874
        10.2504         10.0004
  22403856.2544   -2684255.92348  -2028909.32347                  22403863.0514
        28.7504         28.7504
  23603253.1054   -5191494.35346  -3937586.33546                  23603259.7274
        19.2504         18.5004
  23399109.7304   -7644554.07047  -5807965.98646                  23399117.8204
        20.5004         22.0004
 98  6 11 21 23 45.0040000  0  7G 6G30G10G22G17G26G23
  21523810.2934     258953.38648    252658.70047                  21523815.9534
        30.2504         27.5004
  24742280.8484   21162316.54346  16451529.82546                  24742290.3094
        15.2504         15.0004
  25328535.1214   21293302.21945   8692294.17945                  25328542.6724
        10.7504         10.5004
  25119795.7154      -3504.03645      -207.33745                  25119803.8754
        10.7504         10.7504
  22405247.6054   -2676943.56148  -2023211.37247                  22405254.2854
        28.2504         29.0004
  23602937.4494   -5193151.04547  -3938877.24046                  23602943.8124
        20.2504         18.7504
  23395883.7234   -7661506.01547  -5821175.25246                  23395891.8014
        20.2504         22.5004
 98  6 11 21 24  0.0040000  0  7G 6G30G10G22G17G26G23
  21528190.7854     281972.15848    270595.39347                  21528196.5044
        30.0004         28.0004
  24755949.8014   21234147.76446  16507502.11246                  24755959.4614
        15.0004         15.2504
  25342125.5824   21364719.88145   8747944.24445                  25342133.5314
        10.7504         10.0004
  25119837.8484      -3281.49445       -33.92045                  25119846.4184
        11.0004         11.2504
  22406648.2074   -2669583.18048  -2017476.00047                  22406654.9344
        28.2504         29.0004
  23602645.6374   -5194685.76147  -3940073.08346                  23602652.1644
        20.2504         18.7504
  23392675.3324   -7678366.66847  -5834313.37346                  23392683.5624
        20.5004         22.5004
 98  6 11 21 24 15.0040000  0  7G 6G30G10G22G17G26G23
  21532594.2544     305113.00348    288627.20947                  21532599.9374
        30.0004         27.7504
  24769623.9264   21306006.01546  16563495.44246                  24769633.9964
        14.7504         14.7504
  25355722.0744   21436171.66445   8803620.93445                  25355730.0704
        10.0004         10.2504
  25119907.1294      -2918.99545       248.57146                  25119915.9804
        11.5004         12.0004
  22408059.3324   -2662167.76748  -2011697.74847                  22408066.0824
        28.2504         29.2504
  23602378.2704   -5196091.54246  -3941168.46346                  23602384.6094
        19.7504         18.5004
  23389485.5904   -7695127.25647  -5847373.52946                  23389493.5274
        20.0004         22.5004
 98  6 11 21 24 30.0040000  0  7G 6G30G10G22G17G26G23
  21537019.2624     328367.33548    306747.45947                  21537024.9694
        30.2504         28.0004
  24783302.6214   21377887.06046  16619506.52846                  24783311.6374
        15.7504         15.2504
  25369325.0124   21507652.01545   8859319.87345                  25369332.7384
        10.2504         10.0004
  25120001.2854      -2425.26645       633.28446                  25120009.2234
        11.0004         12.2504
  22409479.7934   -2654703.96848  -2005881.79147                  22409486.6374
        29.0004         29.0004
  23602133.7624   -5197374.43147  -3942168.08746                  23602140.1254
        20.2504         18.7504
  23386314.0204   -7711794.88547  -5860361.24746                  23386322.0744
        20.0004         22.2504
 98  6 11 21 24 45.0040000  0  7G 6G30G10G22G17G26G23
  21541467.9654     351744.53248    324963.44847                  21541473.6954
        30.2504         28.0004
  24796986.7854   21449797.11046  16675540.23546                  24796996.5864
        14.2504         15.2504
  25382933.1524   21579166.80645   8915045.66045                  25382943.2934
        10.2504         10.5004
  25120120.1604      -1798.38246      1121.79646                  25120128.6484
        12.0004         12.7504
  22410910.2544   -2647186.72948  -2000024.19847                  22410917.0164
        28.0004         29.2504
  23601914.1764   -5198528.17847  -3943067.09046                  23601920.4454
        20.2504         18.7504
  23383160.6684   -7728365.74947  -5873273.56846                  23383168.7344
        20.0004         22.2504
 98  6 11 21 25  0.0040000  0  7G 6G30G10G22G17G26G23
  21545941.1134     375251.35548    343280.44647                  21545946.9964
        30.2504         28.0004
  24810677.3714   21521738.84346  16731598.60446                  24810686.6684
        14.7504         15.0004
  25396549.4494   21650720.53945   8970801.78845                  25396558.7704
        10.5004         10.0004
  25120265.3094      -1037.90546      1714.38646                  25120273.5514
        12.0004         13.0004
  22412351.0984   -2639614.17148  -1994123.49247                  22412357.7074
        28.2504         29.0004
  23601720.2544   -5199547.21647  -3943861.09946                  23601726.9454
        20.0004         18.7504
  23380026.1684   -7744836.38647  -5886107.78646                  23380034.3164
        20.2504         22.2504
 98  6 11 21 25 15.0040000  0  7G 6G30G10G22G17G26G23
  21550439.5744     398889.61748    361699.85947                  21550445.4574
        30.2504         28.2504
  24824373.5664   21593713.40446  16787682.57246                  24824383.0984
        14.7504         14.7504
  25410174.0124   21722315.45345   9026590.00545                  25410183.3674
        10.0004          9.5004
  25120435.0274       -144.73045      2410.35546                  25120444.1484
        11.5004         12.0004
  22413802.0904   -2631989.70048  -1988182.33947                  22413808.8284
        29.7504         29.0004
  23601551.1684   -5200434.28946  -3944552.29746                  23601557.9774
        19.2504         18.2504
  23376910.9104   -7761206.95847  -5898864.03546                  23376918.9774
        20.0004         22.5004
 98  6 11 21 25 30.0040000  0  7G 6G30G10G22G17G26G23
  21554962.1294     422656.55848    380219.54747                  21554968.0124
        30.5004         28.0004
  24838075.7624   21665717.99046  16843789.92746                  24838085.4574
        15.0004         14.5004
  25423804.6604   21793946.14345   9082406.09545                  25423813.9924
        10.0004          9.5004
  25120629.3954        877.70545      3207.08545                  25120637.8364
        11.5004         11.7504
  22415261.6134   -2624317.51947  -1982204.01047                  22415268.2584
        27.7504         29.2504
  23601406.7464   -5201192.45046  -3945143.05646                  23601413.3444
        19.2504         18.2504
  23373814.0824   -7777480.63746  -5911544.77546                  23373822.1724
        19.7504         22.5004
 98  6 11 21 25 45.0040000  0  7G 6G30G10G22G17G26G23
  21559509.4884     446553.01348    398840.15147                  21559515.1134
        30.2504         28.0004
  24851783.9734   21737756.06546  16899923.38246                  24851793.7154
        14.7504         14.5004
  25437443.2934   21865613.83945   9138251.01945                  25437450.9024
         9.7504          9.5004
  25120848.9804       2031.58445      4106.23945                  25120855.6374
        10.7504         11.0004
  22416732.0044   -2616592.66048  -1976184.62747                  22416738.6724
        29.7504         29.2504
  23601288.0824   -5201817.61946  -3945630.17646                  23601294.4224
        19.5004         18.2504
  23370736.3404   -7793655.81247  -5924148.76246                  23370744.5474
        20.0004         22.5004
 98  6 11 21 26  0.0040000  0  7G 6G30G10G22G17G26G23
  21564082.1294     470583.66548    417565.32447                  21564087.8014
        30.2504         28.0004
  24865500.3484   21809834.85346  16956088.56446                  24865509.0004
        14.5004         14.7504
  25451088.2854   21937325.22445   9194129.97845                  25451096.0474
         9.2504          9.5004
  25121095.4344       3324.89845      5114.01245                  25121102.7734
        10.7504         11.2504
  22418213.5434   -2608808.77348  -1970119.25947                  22418220.1874
        29.2504         29.5004
  23601195.5044   -5202301.82846  -3946007.46446                  23601202.4694
        19.0004         18.2504
  23367678.9574   -7809721.75647  -5936667.64146                  23367687.0234
        20.2504         22.5004
 98  6 11 21 26 15.0040000  0  7G 6G30G10G22G17G26G23
  21568679.7544     494743.09648    436390.84947                  21568685.5784
        30.5004         28.0004
  24879223.1524   21881948.67646  17012281.04046                  24879232.9414
        14.2504         14.5004
  25464742.3634   22009073.97745   9250038.06445                  25464751.9414
         9.2504          9.5004
  25121366.3874       4750.68445      6225.03645                  25121374.3014
         9.7504         10.2504
  22419705.0044   -2600971.03748  -1964011.92047                  22419711.4024
        29.0004         29.5004
  23601129.7384   -5202649.09246  -3946278.03746                  23601136.4304
        19.0004         18.7504
  23364641.7154   -7825681.44447  -5949103.71846                  23364649.8054
        20.5004         23.0004
 98  6 11 21 26 30.0040000  0  7G 6G30G10G22G17G26G23
  21573299.9494     519022.00048    455309.46947                  21573305.7624
        30.0004         28.2504
  24892950.8324   21954087.21246  17068492.76746                  24892959.8364
        15.0004         14.2504
  25478401.0514   22080850.02745   9305967.40245                  25478409.1644
        10.5004          9.5004
  25121659.9884       6296.30845      7429.45345                  25121668.1134
        10.5004         10.5004
  22421204.5354   -2593090.41848  -1957871.17347                  22421211.0744
        29.5004         29.5004
  23601087.6454   -5202869.41446  -3946449.68746                  23601094.6684
        18.7504         18.5004
  23361623.0354   -7841545.95847  -5961465.63546                  23361631.4534
        20.2504         23.0004
 98  6 11 21 26 45.0040000  0  7G 6G30G10G22G17G26G23
  21577944.3634     543429.15548    474328.02847                  21577950.1644
        30.7504         28.2504
  24906683.7464   22026254.61646  17124727.01746                  24906692.9964
        14.2504         14.2504
  25492064.6684   22152658.05545   9361921.69845                  25492072.7234
         9.7504          9.5004
  25121978.1054       7966.65345      8730.99645                  25121985.8674
        11.5004         10.7504
  22422713.3094   -2585161.04648  -1951692.43447                  22422719.8364
        29.5004         29.5004
  23601070.5594   -5202958.94646  -3946519.43546                  23601077.5474
        17.7504         18.7504
  23358622.9804   -7857309.81247  -5973749.10846                  23358631.1054
        21.0004         23.0004
 98  6 11 21 27  0.0040000  0  7G 6G30G10G22G17G26G23
  21582614.6134     567971.20048    493451.69347                  21582620.3324
        30.2504         28.0004
  24920422.8014   22098452.74746  17180985.16446                  24920432.6484
        14.5004         14.0004
  25505736.4884   22224499.96045   9417902.38145                  25505744.7424
         9.2504          9.5004
  25122322.0904       9772.84145     10138.36745                  25122330.3324
        11.5004         11.0004
  22424232.7544   -2577175.54848  -1945469.96247                  22424239.1874
        29.5004         29.5004
  23601079.5744   -5202911.83746  -3946482.69346                  23601087.0664
        18.7504         18.5004
  23355643.6844   -7872967.76747  -5985950.08346                  23355651.6564
        20.2504         23.0004
 98  6 11 21 27 15.0040000  0  7G 6G30G10G22G17G26G23
  21587310.1374     592645.10848    512678.11247                  21587315.7974
        30.5004         28.2504
  24934168.4264   22170683.15146  17237268.48646                  24934177.5704
        14.2504         14.0004
  25519414.8164   22296377.10145   9473910.48345                  25519425.2974
         9.2504          9.5004
  25122691.9964      11718.06245     11654.11645                  25122699.5124
        11.0004         11.5004
  22425763.9654   -2569129.40248  -1939200.23447                  22425770.5274
        29.2504         29.5004
  23601115.0514   -5202727.04146  -3946338.68146                  23601122.0044
        19.2504         19.0004
  23352684.2464   -7888518.35947  -5998067.38446                  23352692.2774
        20.7504         22.7504
 98  6 11 21 27 30.0040000  0  7G 6G30G10G22G17G26G23
  21592028.7544     617442.35548    532000.63847                  21592034.3794
        30.2504         28.0004
  24947918.0274   22242940.11246  17293572.49346                  24947928.5314
        13.2504         14.0004
  25533096.9414   22368282.02945   9529940.27745                  25533105.3594
         9.5004          8.7504
  25123087.9264      13799.06545     13275.70445                  25123096.0624
        10.0004         11.2504
  22427306.4734   -2561024.68748  -1932884.86247                  22427313.1644
        30.5004         29.7504
  23601175.6374   -5202408.79547  -3946090.67246                  23601182.4574
        20.7504         19.5004
  23349743.9494   -7903968.98747  -6010106.79246                  23349752.2274
        20.5004         23.5004
 98  6 11 21 27 45.0040000  0  7G 6G30G10G22G17G26G23
  21596770.7234     642361.74848    551418.33947                  21596776.5354
        30.0004         27.7504
  24961672.4804   22315220.23946  17349894.55146                  24961682.5274
        13.5004         14.0004
  25546784.7234   22440212.82845   9585990.21045                  25546791.6764
         9.0004          9.0004
  25123510.0594      16015.28245     15002.65445                  25123518.3484
         9.7504         11.7504
  22428859.9414   -2552860.17348  -1926522.89647                  22428866.4104
        30.5004         29.7504
  23601261.2384   -5201958.31947  -3945739.62746                  23601268.0824
        20.5004         19.5004
  23346823.0984   -7919319.78047  -6022068.39946                  23346831.0944
        21.0004         23.2504
 98  6 11 21 28  0.0040000  0  7G 6G30G10G22G17G26G23
  21601535.1374     667399.54048    570928.29947                  21601540.8324
        30.0004         28.0004
  24975431.0434   22387519.23646  17406231.30846                  24975441.1374
        13.2504         14.0004
  25560477.5514   22512165.21745   9642056.97145                  25560484.5044
         9.0004          9.2504
  25123956.6214      18360.07045     16829.79246                  25123965.6134
        10.7504         12.0004
  22430423.9264   -2544641.31348  -1920118.58247                  22430430.4184
        30.2504         29.5004
  23601371.2544   -5201380.84347  -3945289.63246                  23601377.8524
        20.7504         19.5004
  23343919.4734   -7934578.03647  -6033957.91746                  23343927.5164
        21.5004         23.2504
 98  6 11 21 28 15.0040000  0  7G 6G30G10G22G17G26G23
  21606322.1844     692555.79448    590530.57447                  21606327.9264
        30.0004         28.2504
  24989191.9654   22459833.46846  17462579.93046                  24989201.9534
        13.2504         14.2504
  25574173.7074   22584137.21045   9698138.98245                  25574181.8914
         8.7504          9.0004
  25124426.5044      20830.22645     18754.57645                  25124435.1214
        11.0004         11.7504
  22431998.5354   -2536367.73048  -1913671.62547                  22432004.9574
        30.2504         29.5004
  23601505.0744   -5200677.48947  -3944741.54246                  23601512.0514
        20.5004         20.0004
  23341032.4804   -7949748.61847  -6045779.11646                  23341040.5594
        21.2504         23.5004
 98  6 11 21 28 30.0040000  0  7G 6G30G10G22G17G26G23
  21611133.1454     717837.25048    610230.40347                  21611138.8874
        30.2504         28.0004
  25002956.2774   22532166.01746  17518942.84746                  25002966.0204
        12.7504         14.0004
  25587873.2384   22656132.55245   9754239.21945                  25587880.9304
         9.5004          9.0004
  25124920.6914      23430.28945     20780.60945                  25124929.2734
        10.7504         11.0004
  22433584.7234   -2528031.29648  -1907175.69247                  22433591.1914
        30.0004         29.7504
  23601663.7464   -5199843.61347  -3944091.74646                  23601670.6174
        21.0004         19.7504
  23338162.3554   -7964832.09147  -6057532.43146                  23338170.3634
        20.7504         23.2504
 98  6 11 21 28 45.0040000  0  7G 6G30G10G22G17G26G23
  21615967.9804     743244.89248    630028.55347                  21615973.7584
        30.2504         28.2504
  25016724.0664   22604516.30846  17575319.58146                  25016734.0664
        12.5004         14.0004
  25601577.8554   22728149.94245   9810356.64445                  25601585.8874
         8.7504          9.2504
  25125441.0594      26162.22145     22909.37745                  25125449.5474
        11.5004         11.7504
  22435183.3094   -2519630.60748  -1900629.68847                  22435189.8364
        29.7504         29.7504
  23601846.4804   -5198881.79847  -3943342.26146                  23601853.0554
        20.5004         19.5004
  23335308.1994   -7979829.20647  -6069218.45446                  23335316.3484
        21.0004         23.5004
 98  6 11 21 29  0.0040000  0  7G 6G30G10G22G17G26G23
  21620826.0434     768773.28948    649920.80247                  21620831.7154
        30.5004         28.2504
  25030493.5354   22676874.88746  17631702.75246                  25030503.5824
        12.7504         13.7504
  25615285.3794   22800179.36345   9866483.41045                  25615294.1134
         9.7504          9.5004
  25125985.0204      29022.69845     25138.33746                  25125994.0354
        11.7504         12.2504
  22436793.0824   -2511171.31348  -1894038.02547                  22436799.5864
        30.7504         29.7504
  23602053.2774   -5197797.48747  -3942497.32146                  23602059.9344
        21.0004         19.5004
  23332469.5594   -7994746.46347  -6080842.25046                  23332477.7894
        21.2504         23.2504
 98  6 11 21 29 15.0040000  0  7G 6G30G10G22G17G26G23
  21625708.4414     794430.37848    669913.32747                  21625714.2074
        30.2504         28.2504
  25044265.8014   22749249.83146  17688098.68646                  25044276.3284
        12.2504         13.2504
  25628995.8014   22872230.39345   9922627.01345                  25629003.5164
         9.2504         10.0004
  25126554.8554      32018.17545     27472.44845                  25126564.1054
        10.2504         11.2504
  22438414.9344   -2502649.30848  -1887397.49347                  22438421.3674
        30.5004         29.7504
  23602284.4414   -5196581.44747  -3941549.74146                  23602290.9104
        20.0004         19.2504
  23329647.5824   -8009574.48747  -6092396.51746                  23329655.5084
        21.2504         23.0004
 98  6 11 21 29 30.0040000  0  7G 6G30G10G22G17G26G23
  21630615.6054     820217.81548    690007.43347                  21630621.3124
        30.7504         28.2504
  25058041.5434   22821642.38345  17744508.35046                  25058051.9884
        11.7504         13.0004
  25642710.6684   22944303.10345   9978787.52045                  25642720.2114
         9.7504          9.7504
  25127149.9884      35144.57245     29908.61345                  25127158.6994
         9.5004         11.2504
  22440047.8874   -2494067.97348  -1880710.72447                  22440054.5314
        29.7504         30.0004
  23602540.8164   -5195233.15547  -3940499.10446                  23602546.9804
        20.0004         19.0004
  23326843.7544   -8024309.73747  -6103878.49446                  23326851.5514
        21.2504         23.2504
 98  6 11 21 29 45.0040000  0  7G 6G30G10G22G17G26G23
  21635548.1054     846137.99048    710204.95647                  21635553.8124
        30.5004         28.2504
  25071820.7704   22894049.93345  17800929.69546                  25071831.5084
        11.7504         13.5004
  25656429.7854   23016396.32945  10034964.04145                  25656437.9924
        10.0004          9.7504
  25127769.1914      38399.86045     32445.20145                  25127778.1024
         9.2504         11.2504
  22441690.9494   -2485432.99748  -1873982.16947                  22441697.5354
        30.5004         30.0004
  23602822.3244   -5193753.64547  -3939346.22346                  23602828.5944
        20.5004         18.7504
  23324057.4494   -8038951.72947  -6115287.80246                  23324065.2814
        21.2504         23.2504
 98  6 11 21 30  0.0040000  0  7G 6G30G10G22G17G26G23
  21640506.1914     872192.77848    730507.37747                  21640511.7934
        31.2504         28.5004
  25085603.0824   22966473.37145  17857363.42946                  25085613.2344
        11.2504         13.0004
  25670152.5904   23088510.59645  10091156.92145                  25670162.0044
        10.0004         10.5004
  25128413.7544      41785.59645     35083.44245                  25128423.4264
        10.5004         11.7504
  22443344.1764   -2476744.61148  -1867211.99047                  22443350.4924
        30.7504         29.7504
  23603128.9574   -5192141.77147  -3938090.20746                  23603135.1094
        20.0004         19.0004
  23321289.1604   -8053498.80147  -6126623.14146                  23321297.1804
        21.5004         23.5004
 98  6 11 21 30 15.0040000  0  7G 6G30G10G22G17G26G23
  21645490.9884     898388.32048    750919.47847                  21645496.3914
        30.7504         28.5004
  25099388.8874   23038919.33745  17913814.69646                  25099400.0354
        11.2504         12.5004
  25683880.2854   23160648.06145  10147367.90545                  25683887.8484
        10.7504         10.2504
  25129083.8634      45307.33145     37827.65046                  25129092.6094
        11.5004         12.0004
  22445008.8094   -2467997.46348  -1860396.01747                  22445015.1954
        30.7504         29.7504
  23603462.4494   -5190389.87147  -3936725.06346                  23603468.3914
        20.0004         18.2504
  23318540.0984   -8067945.36547  -6137880.17546                  23318548.0594
        21.0004         23.2504
 98  6 11 21 30 30.0040000  0  7G 6G30G10G22G17G26G23
  21650503.7464     924729.90648    771445.38047                  21650509.1604
        31.2504         28.2504
  25113179.9024   23111392.80045  17970287.39946                  25113190.5944
        11.5004         12.7504
  25697612.1374   23232812.58245  10203599.94845                  25697619.5004
        10.7504         10.2504
  25129781.6844      48973.88645     40684.71245                  25129789.4574
        10.7504         11.2504
  22446684.8554   -2459190.00748  -1853533.05647                  22446691.1954
        31.0004         29.7504
  23603823.1134   -5188493.65347  -3935247.48446                  23603829.1484
        20.5004         18.2504
  23315811.7774   -8082282.76847  -6149052.13746                  23315819.7504
        22.0004         23.5004
 98  6 11 21 30 45.0040000  0  7G 6G30G10G22G17G26G23
  21655543.1134     951212.34948    792081.03147                  21655548.7384
        30.5004         28.2504
  25126976.6454   23183892.66745  18026780.67346                  25126987.5124
        11.0004         12.7504
  25711350.3554   23305001.82545  10259851.25645                  25711358.7154
        10.5004         10.5004
  25130506.4884      52783.50445     43653.25845                  25130514.9654
        10.5004         11.2504
  22448370.9964   -2450329.67348  -1846628.89147                  22448377.4884
        31.7504         29.7504
  23604210.6454   -5186458.02946  -3933661.26646                  23604216.7624
        19.7504         18.7504
  23313104.5124   -8096508.96947  -6160137.45446                  23313112.2384
        22.2504         23.0004
 98  6 11 21 31  0.0040000  0  7G 6G30G10G22G17G26G23
  21660608.9654     977833.39348    812824.68347                  21660614.6254
        30.7504         28.5004
  25140777.3794   23256417.34745  18083293.28046                  25140787.7894
        11.0004         12.0004
  25725091.1134   23377214.62445  10316120.92345                  25725100.0124
        10.7504         10.2504
  25131258.3554      56733.79745     46731.38445                  25131267.1724
        11.0004         11.2504
  22450066.1454   -2441420.77948  -1839686.88847                  22450072.4734
        31.5004         30.0004
  23604624.4414   -5184281.45246  -3931965.21446                  23604630.8874
        19.7504         19.0004
  23310418.5434   -8110624.06447  -6171136.19146                  23310426.3524
        22.2504         23.2504
 98  6 11 21 31 15.0040000  0  7G 6G30G10G22G17G26G23
  21665700.5434    1004589.95448    833673.93547                  21665706.2504
        30.5004         28.5004
  25154582.9804   23328967.45145  18139825.70646                  25154594.1994
        10.7504         12.5004
  25738836.7704   23449449.41945  10372407.76745                  25738843.4844
        10.7504         10.2504
  25132036.6214      60822.62245     49917.51645                  25132045.0984
        11.0004         11.2504
  22451770.3244   -2432466.01848  -1832709.14547                  22451776.7234
        30.5004         30.0004
  23605065.6914   -5181963.76447  -3930159.21046                  23605072.3484
        20.2504         19.2504
  23307753.4884   -8124629.11147  -6182049.18846                  23307761.2034
        22.0004         23.2504
 98  6 11 21 31 30.0040000  0  7G 6G30G10G22G17G26G23
  21670817.5124    1031479.60148    854626.90147                  21670823.1954
        30.5004         28.2504
  25168394.0514   23401545.15545  18196379.63446                  25168404.4734
        10.5004         12.5004
  25752587.6054   23521707.11645  10428712.41245                  25752597.7234
        10.7504          9.7504
  25132841.2464      65049.24545     53211.01545                  25132850.6134
        11.5004         11.2504
  22453483.3324   -2423463.22948  -1825693.97247                  22453489.7304
        31.5004         30.0004
  23605533.9024   -5179502.99247  -3928241.70946                  23605540.4064
        20.2504         19.5004
  23305109.3094   -8138522.34547  -6192875.04146                  23305117.1994
        22.2504         23.2504
 98  6 11 21 31 45.0040000  0  7G 6G30G10G22G17G26G23
  21675958.7464    1058496.54148    875679.05047                  21675964.3364
        30.7504         28.2504
  25182209.9184   23474146.29145  18252951.81846                  25182220.9844
        10.7504         12.0004
  25766341.7464   23593983.15645  10485031.36345                  25766349.7894
        10.5004         10.0004
  25133671.0354      69412.97745     56611.30845                  25133679.3124
        11.0004         11.5004
  22455205.4884   -2414413.34248  -1818642.10647                  22455211.9104
        31.0004         30.0004
  23606028.6294   -5176902.41047  -3926215.27546                  23606035.8404
        20.0004         19.7504
  23302486.0514   -8152309.50947  -6203618.25446                  23302493.8244
        22.2504         23.5004
 98  6 11 21 32  0.0040000  0  7G 6G30G10G22G17G26G23
  21681122.9184    1085634.81348    896825.74947                  21681128.6844
        30.2504         28.2504
  25196028.8794   23546762.24945  18309535.54446                  25196040.0514
        11.2504         12.2504
  25780097.2704   23666271.79545  10541360.15145                  25780105.8404
        10.2504          9.2504
  25134526.7464      73910.28445     60115.71645                  25134535.5864
        11.2504         11.5004
  22456936.0984   -2405319.96648  -1811556.34747                  22456942.1914
        31.0004         29.7504
  23606548.7854   -5174170.25247  -3924086.29246                  23606555.6804
        20.5004         19.7504
  23299880.8484   -8165999.11447  -6214285.44946                  23299888.5274
        22.2504         23.5004
 98  6 11 21 32 15.0040000  0  7G 6G30G10G22G17G26G23
  21686311.1294    1112899.69648    918071.10947                  21686317.0124
        30.5004         28.0004
  25209850.6914   23619396.58445  18366133.59346                  25209862.2274
        10.7504         12.2504
  25793856.7154   23738577.37345  10597702.10445                  25793865.1454
        10.5004          9.7504
  25135409.3014      78547.89145     63729.43845                  25135418.2814
        11.5004         11.7504
  22458675.9574   -2396176.43248  -1804431.50647                  22458681.9804
        32.2504         29.5004
  23607094.7074   -5171302.02747  -3921851.30646                  23607101.6134
        20.2504         20.2504
  23297294.9264   -8179587.63847  -6224873.87046                  23297302.5594
        22.5004         23.2504
 98  6 11 21 32 30.0040000  0  7G 6G30G10G22G17G26G23
  21691525.6914    1140302.38348    939423.84247                  21691531.5274
        30.5004         28.5004
  25223677.4574   23692058.45245  18422753.11646                  25223688.5704
        10.2504         13.0004
  25807621.9264   23810913.87345  10654068.17145                  25807630.3204
        11.2504          9.2504
  25136319.9024      83334.35045     67459.13345                  25136328.3204
        11.5004         11.7504
  22460427.2234   -2386973.30048  -1797260.23247                  22460433.4574
        31.7504         29.5004
  23607668.3714   -5168288.26747  -3919502.90446                  23607675.0044
        20.2504         20.2504
  23294730.3874   -8193063.86747  -6235374.79446                  23294737.9844
        22.5004         23.5004
